<?xml version="1.0" encoding="UTF-8" standalone="no" ?>
<gpx xmlns="http://www.topografix.com/GPX/1/1" xmlns:xsi="http://www.w3.org/2001/XMLSchema-instance" xsi:schemaLocation="http://www.topografix.com/GPX/1/1 http://www.topografix.com/GPX/1/1/gpx.xsd" version="1.1" creator="VisuGPX - https://www.visugpx.com">
  <metadata>
    <name>Aiguille des Calvaires</name>
    <desc><![CDATA[Les remontées sont fermées, la neige est excellente]]></desc>
  </metadata>
  <trk>
    <name><![CDATA[Tracé actuel: 24 MARS 2021 09:36]]></name>
    <trkseg>
      <trkpt lat="45.9031" lon="6.42612">
        <ele>1093.64</ele>
        <time>2021-03-24T08:36:07Z</time>
      </trkpt>
      <trkpt lat="45.90313" lon="6.42606">
        <ele>1094.12</ele>
        <time>2021-03-24T08:36:27Z</time>
      </trkpt>
      <trkpt lat="45.90313" lon="6.42605">
        <ele>1094.12</ele>
        <time>2021-03-24T08:36:53Z</time>
      </trkpt>
      <trkpt lat="45.90312" lon="6.42604">
        <ele>1093.64</ele>
        <time>2021-03-24T08:37:14Z</time>
      </trkpt>
      <trkpt lat="45.90311" lon="6.42607">
        <ele>1093.64</ele>
        <time>2021-03-24T08:37:33Z</time>
      </trkpt>
      <trkpt lat="45.90314" lon="6.42604">
        <ele>1093.64</ele>
        <time>2021-03-24T08:37:55Z</time>
      </trkpt>
      <trkpt lat="45.90314" lon="6.42607">
        <ele>1093.64</ele>
        <time>2021-03-24T08:38:08Z</time>
      </trkpt>
      <trkpt lat="45.90311" lon="6.42607">
        <ele>1093.16</ele>
        <time>2021-03-24T08:38:25Z</time>
      </trkpt>
      <trkpt lat="45.90312" lon="6.42605">
        <ele>1093.16</ele>
        <time>2021-03-24T08:38:42Z</time>
      </trkpt>
      <trkpt lat="45.90315" lon="6.42607">
        <ele>1093.16</ele>
        <time>2021-03-24T08:38:54Z</time>
      </trkpt>
      <trkpt lat="45.90312" lon="6.42605">
        <ele>1093.16</ele>
        <time>2021-03-24T08:39:10Z</time>
      </trkpt>
      <trkpt lat="45.90312" lon="6.42605">
        <ele>1093.16</ele>
        <time>2021-03-24T08:39:25Z</time>
      </trkpt>
      <trkpt lat="45.9031" lon="6.42604">
        <ele>1093.16</ele>
        <time>2021-03-24T08:39:42Z</time>
      </trkpt>
      <trkpt lat="45.90309" lon="6.42605">
        <ele>1093.16</ele>
        <time>2021-03-24T08:39:44Z</time>
      </trkpt>
      <trkpt lat="45.90305" lon="6.42605">
        <ele>1094.6</ele>
        <time>2021-03-24T08:39:48Z</time>
      </trkpt>
      <trkpt lat="45.90301" lon="6.42609">
        <ele>1094.6</ele>
        <time>2021-03-24T08:39:53Z</time>
      </trkpt>
      <trkpt lat="45.90297" lon="6.42617">
        <ele>1095.08</ele>
        <time>2021-03-24T08:39:59Z</time>
      </trkpt>
      <trkpt lat="45.90308" lon="6.42636">
        <ele>1097.96</ele>
        <time>2021-03-24T08:40:16Z</time>
      </trkpt>
      <trkpt lat="45.90313" lon="6.4265">
        <ele>1100.37</ele>
        <time>2021-03-24T08:40:29Z</time>
      </trkpt>
      <trkpt lat="45.90295" lon="6.42646">
        <ele>1102.29</ele>
        <time>2021-03-24T08:40:46Z</time>
      </trkpt>
      <trkpt lat="45.9028" lon="6.42641">
        <ele>1104.69</ele>
        <time>2021-03-24T08:41:04Z</time>
      </trkpt>
      <trkpt lat="45.90279" lon="6.42644">
        <ele>1104.69</ele>
        <time>2021-03-24T08:41:24Z</time>
      </trkpt>
      <trkpt lat="45.90279" lon="6.42645">
        <ele>1105.17</ele>
        <time>2021-03-24T08:41:49Z</time>
      </trkpt>
      <trkpt lat="45.90279" lon="6.42646">
        <ele>1105.17</ele>
        <time>2021-03-24T08:42:13Z</time>
      </trkpt>
      <trkpt lat="45.90278" lon="6.42645">
        <ele>1105.17</ele>
        <time>2021-03-24T08:42:41Z</time>
      </trkpt>
      <trkpt lat="45.90278" lon="6.42643">
        <ele>1105.17</ele>
        <time>2021-03-24T08:43:05Z</time>
      </trkpt>
      <trkpt lat="45.90277" lon="6.42644">
        <ele>1105.17</ele>
        <time>2021-03-24T08:43:21Z</time>
      </trkpt>
      <trkpt lat="45.90273" lon="6.42652">
        <ele>1107.1</ele>
        <time>2021-03-24T08:43:43Z</time>
      </trkpt>
      <trkpt lat="45.90267" lon="6.42659">
        <ele>1110.46</ele>
        <time>2021-03-24T08:43:57Z</time>
      </trkpt>
      <trkpt lat="45.90265" lon="6.4267">
        <ele>1112.86</ele>
        <time>2021-03-24T08:44:11Z</time>
      </trkpt>
      <trkpt lat="45.90262" lon="6.4268">
        <ele>1115.75</ele>
        <time>2021-03-24T08:44:24Z</time>
      </trkpt>
      <trkpt lat="45.90255" lon="6.42691">
        <ele>1118.63</ele>
        <time>2021-03-24T08:44:41Z</time>
      </trkpt>
      <trkpt lat="45.90254" lon="6.42704">
        <ele>1121.03</ele>
        <time>2021-03-24T08:44:56Z</time>
      </trkpt>
      <trkpt lat="45.90254" lon="6.42716">
        <ele>1123.44</ele>
        <time>2021-03-24T08:45:11Z</time>
      </trkpt>
      <trkpt lat="45.90257" lon="6.42727">
        <ele>1125.84</ele>
        <time>2021-03-24T08:45:27Z</time>
      </trkpt>
      <trkpt lat="45.9026" lon="6.42741">
        <ele>1128.73</ele>
        <time>2021-03-24T08:45:45Z</time>
      </trkpt>
      <trkpt lat="45.90259" lon="6.42753">
        <ele>1131.13</ele>
        <time>2021-03-24T08:45:59Z</time>
      </trkpt>
      <trkpt lat="45.90259" lon="6.42764">
        <ele>1132.57</ele>
        <time>2021-03-24T08:46:15Z</time>
      </trkpt>
      <trkpt lat="45.90259" lon="6.42765">
        <ele>1132.57</ele>
        <time>2021-03-24T08:46:34Z</time>
      </trkpt>
      <trkpt lat="45.90258" lon="6.42767">
        <ele>1132.57</ele>
        <time>2021-03-24T08:46:50Z</time>
      </trkpt>
      <trkpt lat="45.90258" lon="6.42772">
        <ele>1132.57</ele>
        <time>2021-03-24T08:47:13Z</time>
      </trkpt>
      <trkpt lat="45.90256" lon="6.42778">
        <ele>1134.01</ele>
        <time>2021-03-24T08:47:25Z</time>
      </trkpt>
      <trkpt lat="45.90254" lon="6.42782">
        <ele>1134.97</ele>
        <time>2021-03-24T08:47:37Z</time>
      </trkpt>
      <trkpt lat="45.90256" lon="6.42794">
        <ele>1136.42</ele>
        <time>2021-03-24T08:47:51Z</time>
      </trkpt>
      <trkpt lat="45.90259" lon="6.42806">
        <ele>1137.86</ele>
        <time>2021-03-24T08:48:04Z</time>
      </trkpt>
      <trkpt lat="45.90259" lon="6.42821">
        <ele>1140.26</ele>
        <time>2021-03-24T08:48:17Z</time>
      </trkpt>
      <trkpt lat="45.90261" lon="6.42834">
        <ele>1142.18</ele>
        <time>2021-03-24T08:48:30Z</time>
      </trkpt>
      <trkpt lat="45.90261" lon="6.42847">
        <ele>1144.11</ele>
        <time>2021-03-24T08:48:43Z</time>
      </trkpt>
      <trkpt lat="45.90258" lon="6.42859">
        <ele>1146.51</ele>
        <time>2021-03-24T08:48:57Z</time>
      </trkpt>
      <trkpt lat="45.90255" lon="6.42869">
        <ele>1148.91</ele>
        <time>2021-03-24T08:49:11Z</time>
      </trkpt>
      <trkpt lat="45.90249" lon="6.42882">
        <ele>1151.32</ele>
        <time>2021-03-24T08:49:26Z</time>
      </trkpt>
      <trkpt lat="45.90246" lon="6.42895">
        <ele>1153.72</ele>
        <time>2021-03-24T08:49:42Z</time>
      </trkpt>
      <trkpt lat="45.90244" lon="6.42908">
        <ele>1155.64</ele>
        <time>2021-03-24T08:49:56Z</time>
      </trkpt>
      <trkpt lat="45.9024" lon="6.42921">
        <ele>1158.53</ele>
        <time>2021-03-24T08:50:12Z</time>
      </trkpt>
      <trkpt lat="45.90237" lon="6.42934">
        <ele>1160.93</ele>
        <time>2021-03-24T08:50:28Z</time>
      </trkpt>
      <trkpt lat="45.90234" lon="6.4295">
        <ele>1163.33</ele>
        <time>2021-03-24T08:50:43Z</time>
      </trkpt>
      <trkpt lat="45.90229" lon="6.42962">
        <ele>1165.74</ele>
        <time>2021-03-24T08:50:59Z</time>
      </trkpt>
      <trkpt lat="45.90224" lon="6.42972">
        <ele>1168.14</ele>
        <time>2021-03-24T08:51:12Z</time>
      </trkpt>
      <trkpt lat="45.90219" lon="6.42982">
        <ele>1170.06</ele>
        <time>2021-03-24T08:51:26Z</time>
      </trkpt>
      <trkpt lat="45.90212" lon="6.42992">
        <ele>1172.47</ele>
        <time>2021-03-24T08:51:42Z</time>
      </trkpt>
      <trkpt lat="45.90208" lon="6.43004">
        <ele>1173.91</ele>
        <time>2021-03-24T08:51:56Z</time>
      </trkpt>
      <trkpt lat="45.90203" lon="6.43013">
        <ele>1176.31</ele>
        <time>2021-03-24T08:52:11Z</time>
      </trkpt>
      <trkpt lat="45.90198" lon="6.43023">
        <ele>1178.23</ele>
        <time>2021-03-24T08:52:25Z</time>
      </trkpt>
      <trkpt lat="45.90194" lon="6.43034">
        <ele>1181.6</ele>
        <time>2021-03-24T08:52:41Z</time>
      </trkpt>
      <trkpt lat="45.90188" lon="6.43042">
        <ele>1183.04</ele>
        <time>2021-03-24T08:52:56Z</time>
      </trkpt>
      <trkpt lat="45.90183" lon="6.4305">
        <ele>1185.44</ele>
        <time>2021-03-24T08:53:11Z</time>
      </trkpt>
      <trkpt lat="45.90179" lon="6.43061">
        <ele>1188.33</ele>
        <time>2021-03-24T08:53:27Z</time>
      </trkpt>
      <trkpt lat="45.90175" lon="6.43071">
        <ele>1191.21</ele>
        <time>2021-03-24T08:53:41Z</time>
      </trkpt>
      <trkpt lat="45.9017" lon="6.4308">
        <ele>1194.58</ele>
        <time>2021-03-24T08:53:57Z</time>
      </trkpt>
      <trkpt lat="45.90169" lon="6.43081">
        <ele>1194.58</ele>
        <time>2021-03-24T08:53:59Z</time>
      </trkpt>
      <trkpt lat="45.9016" lon="6.43083">
        <ele>1196.98</ele>
        <time>2021-03-24T08:54:14Z</time>
      </trkpt>
      <trkpt lat="45.90152" lon="6.43086">
        <ele>1198.9</ele>
        <time>2021-03-24T08:54:28Z</time>
      </trkpt>
      <trkpt lat="45.90145" lon="6.43092">
        <ele>1201.3</ele>
        <time>2021-03-24T08:54:43Z</time>
      </trkpt>
      <trkpt lat="45.9014" lon="6.431">
        <ele>1203.71</ele>
        <time>2021-03-24T08:54:57Z</time>
      </trkpt>
      <trkpt lat="45.90139" lon="6.4311">
        <ele>1206.59</ele>
        <time>2021-03-24T08:55:11Z</time>
      </trkpt>
      <trkpt lat="45.9014" lon="6.43112">
        <ele>1206.59</ele>
        <time>2021-03-24T08:55:13Z</time>
      </trkpt>
      <trkpt lat="45.90141" lon="6.43123">
        <ele>1207.55</ele>
        <time>2021-03-24T08:55:25Z</time>
      </trkpt>
      <trkpt lat="45.90141" lon="6.43136">
        <ele>1210.44</ele>
        <time>2021-03-24T08:55:41Z</time>
      </trkpt>
      <trkpt lat="45.90136" lon="6.43148">
        <ele>1212.36</ele>
        <time>2021-03-24T08:55:56Z</time>
      </trkpt>
      <trkpt lat="45.90129" lon="6.43159">
        <ele>1215.24</ele>
        <time>2021-03-24T08:56:12Z</time>
      </trkpt>
      <trkpt lat="45.90125" lon="6.4317">
        <ele>1217.65</ele>
        <time>2021-03-24T08:56:27Z</time>
      </trkpt>
      <trkpt lat="45.90121" lon="6.4318">
        <ele>1220.53</ele>
        <time>2021-03-24T08:56:43Z</time>
      </trkpt>
      <trkpt lat="45.90117" lon="6.43187">
        <ele>1222.45</ele>
        <time>2021-03-24T08:56:56Z</time>
      </trkpt>
      <trkpt lat="45.90113" lon="6.43197">
        <ele>1225.34</ele>
        <time>2021-03-24T08:57:12Z</time>
      </trkpt>
      <trkpt lat="45.90111" lon="6.43208">
        <ele>1227.26</ele>
        <time>2021-03-24T08:57:28Z</time>
      </trkpt>
      <trkpt lat="45.90109" lon="6.4322">
        <ele>1229.66</ele>
        <time>2021-03-24T08:57:42Z</time>
      </trkpt>
      <trkpt lat="45.90104" lon="6.43227">
        <ele>1232.07</ele>
        <time>2021-03-24T08:57:56Z</time>
      </trkpt>
      <trkpt lat="45.90096" lon="6.43231">
        <ele>1234.95</ele>
        <time>2021-03-24T08:58:11Z</time>
      </trkpt>
      <trkpt lat="45.90087" lon="6.43238">
        <ele>1237.35</ele>
        <time>2021-03-24T08:58:27Z</time>
      </trkpt>
      <trkpt lat="45.90082" lon="6.43244">
        <ele>1239.76</ele>
        <time>2021-03-24T08:58:41Z</time>
      </trkpt>
      <trkpt lat="45.90083" lon="6.43252">
        <ele>1241.68</ele>
        <time>2021-03-24T08:58:53Z</time>
      </trkpt>
      <trkpt lat="45.90083" lon="6.43255">
        <ele>1242.64</ele>
        <time>2021-03-24T08:59:07Z</time>
      </trkpt>
      <trkpt lat="45.90082" lon="6.43259">
        <ele>1243.12</ele>
        <time>2021-03-24T08:59:23Z</time>
      </trkpt>
      <trkpt lat="45.90083" lon="6.43262">
        <ele>1244.08</ele>
        <time>2021-03-24T08:59:39Z</time>
      </trkpt>
      <trkpt lat="45.90083" lon="6.43265">
        <ele>1244.56</ele>
        <time>2021-03-24T09:00:00Z</time>
      </trkpt>
      <trkpt lat="45.90081" lon="6.43269">
        <ele>1245.04</ele>
        <time>2021-03-24T09:00:20Z</time>
      </trkpt>
      <trkpt lat="45.90071" lon="6.43274">
        <ele>1246.97</ele>
        <time>2021-03-24T09:00:35Z</time>
      </trkpt>
      <trkpt lat="45.9007" lon="6.43273">
        <ele>1247.45</ele>
        <time>2021-03-24T09:00:53Z</time>
      </trkpt>
      <trkpt lat="45.90073" lon="6.43272">
        <ele>1247.45</ele>
        <time>2021-03-24T09:01:32Z</time>
      </trkpt>
      <trkpt lat="45.90071" lon="6.43274">
        <ele>1247.45</ele>
        <time>2021-03-24T09:01:51Z</time>
      </trkpt>
      <trkpt lat="45.90069" lon="6.43286">
        <ele>1250.33</ele>
        <time>2021-03-24T09:02:05Z</time>
      </trkpt>
      <trkpt lat="45.90071" lon="6.43298">
        <ele>1252.74</ele>
        <time>2021-03-24T09:02:20Z</time>
      </trkpt>
      <trkpt lat="45.90068" lon="6.43307">
        <ele>1254.66</ele>
        <time>2021-03-24T09:02:34Z</time>
      </trkpt>
      <trkpt lat="45.90064" lon="6.43315">
        <ele>1256.58</ele>
        <time>2021-03-24T09:02:48Z</time>
      </trkpt>
      <trkpt lat="45.9006" lon="6.43322">
        <ele>1258.98</ele>
        <time>2021-03-24T09:03:01Z</time>
      </trkpt>
      <trkpt lat="45.90054" lon="6.43329">
        <ele>1261.87</ele>
        <time>2021-03-24T09:03:19Z</time>
      </trkpt>
      <trkpt lat="45.90049" lon="6.43337">
        <ele>1265.23</ele>
        <time>2021-03-24T09:03:38Z</time>
      </trkpt>
      <trkpt lat="45.90044" lon="6.43345">
        <ele>1268.6</ele>
        <time>2021-03-24T09:03:56Z</time>
      </trkpt>
      <trkpt lat="45.90038" lon="6.43355">
        <ele>1271.48</ele>
        <time>2021-03-24T09:04:13Z</time>
      </trkpt>
      <trkpt lat="45.90034" lon="6.43365">
        <ele>1273.88</ele>
        <time>2021-03-24T09:04:29Z</time>
      </trkpt>
      <trkpt lat="45.9003" lon="6.43376">
        <ele>1276.77</ele>
        <time>2021-03-24T09:04:46Z</time>
      </trkpt>
      <trkpt lat="45.90025" lon="6.43387">
        <ele>1280.13</ele>
        <time>2021-03-24T09:05:04Z</time>
      </trkpt>
      <trkpt lat="45.9002" lon="6.43396">
        <ele>1282.06</ele>
        <time>2021-03-24T09:05:19Z</time>
      </trkpt>
      <trkpt lat="45.90016" lon="6.43405">
        <ele>1285.42</ele>
        <time>2021-03-24T09:05:35Z</time>
      </trkpt>
      <trkpt lat="45.90012" lon="6.43416">
        <ele>1288.3</ele>
        <time>2021-03-24T09:05:51Z</time>
      </trkpt>
      <trkpt lat="45.90011" lon="6.43427">
        <ele>1291.19</ele>
        <time>2021-03-24T09:06:08Z</time>
      </trkpt>
      <trkpt lat="45.90006" lon="6.43441">
        <ele>1293.59</ele>
        <time>2021-03-24T09:06:26Z</time>
      </trkpt>
      <trkpt lat="45.90002" lon="6.43453">
        <ele>1296.48</ele>
        <time>2021-03-24T09:06:44Z</time>
      </trkpt>
      <trkpt lat="45.89997" lon="6.43462">
        <ele>1298.4</ele>
        <time>2021-03-24T09:06:58Z</time>
      </trkpt>
      <trkpt lat="45.89994" lon="6.43469">
        <ele>1300.32</ele>
        <time>2021-03-24T09:07:11Z</time>
      </trkpt>
      <trkpt lat="45.8999" lon="6.43476">
        <ele>1303.2</ele>
        <time>2021-03-24T09:07:26Z</time>
      </trkpt>
      <trkpt lat="45.89983" lon="6.43482">
        <ele>1306.09</ele>
        <time>2021-03-24T09:07:43Z</time>
      </trkpt>
      <trkpt lat="45.89978" lon="6.43489">
        <ele>1308.01</ele>
        <time>2021-03-24T09:07:56Z</time>
      </trkpt>
      <trkpt lat="45.89973" lon="6.43498">
        <ele>1311.38</ele>
        <time>2021-03-24T09:08:13Z</time>
      </trkpt>
      <trkpt lat="45.89968" lon="6.43505">
        <ele>1313.3</ele>
        <time>2021-03-24T09:08:27Z</time>
      </trkpt>
      <trkpt lat="45.89962" lon="6.43512">
        <ele>1316.18</ele>
        <time>2021-03-24T09:08:46Z</time>
      </trkpt>
      <trkpt lat="45.89957" lon="6.43518">
        <ele>1318.59</ele>
        <time>2021-03-24T09:09:01Z</time>
      </trkpt>
      <trkpt lat="45.89951" lon="6.43525">
        <ele>1321.47</ele>
        <time>2021-03-24T09:09:17Z</time>
      </trkpt>
      <trkpt lat="45.89944" lon="6.4353">
        <ele>1323.87</ele>
        <time>2021-03-24T09:09:32Z</time>
      </trkpt>
      <trkpt lat="45.89937" lon="6.43535">
        <ele>1326.28</ele>
        <time>2021-03-24T09:09:48Z</time>
      </trkpt>
      <trkpt lat="45.89932" lon="6.43539">
        <ele>1328.2</ele>
        <time>2021-03-24T09:10:03Z</time>
      </trkpt>
      <trkpt lat="45.89926" lon="6.43544">
        <ele>1332.04</ele>
        <time>2021-03-24T09:10:21Z</time>
      </trkpt>
      <trkpt lat="45.89925" lon="6.43549">
        <ele>1333.01</ele>
        <time>2021-03-24T09:10:36Z</time>
      </trkpt>
      <trkpt lat="45.89931" lon="6.43557">
        <ele>1335.41</ele>
        <time>2021-03-24T09:10:50Z</time>
      </trkpt>
      <trkpt lat="45.89934" lon="6.43568">
        <ele>1338.29</ele>
        <time>2021-03-24T09:11:08Z</time>
      </trkpt>
      <trkpt lat="45.8993" lon="6.43572">
        <ele>1340.22</ele>
        <time>2021-03-24T09:11:20Z</time>
      </trkpt>
      <trkpt lat="45.89923" lon="6.43576">
        <ele>1342.62</ele>
        <time>2021-03-24T09:11:33Z</time>
      </trkpt>
      <trkpt lat="45.89915" lon="6.43581">
        <ele>1344.54</ele>
        <time>2021-03-24T09:11:48Z</time>
      </trkpt>
      <trkpt lat="45.89913" lon="6.43589">
        <ele>1347.43</ele>
        <time>2021-03-24T09:12:05Z</time>
      </trkpt>
      <trkpt lat="45.89905" lon="6.43594">
        <ele>1349.83</ele>
        <time>2021-03-24T09:12:20Z</time>
      </trkpt>
      <trkpt lat="45.89901" lon="6.43601">
        <ele>1351.75</ele>
        <time>2021-03-24T09:12:36Z</time>
      </trkpt>
      <trkpt lat="45.89907" lon="6.43609">
        <ele>1354.15</ele>
        <time>2021-03-24T09:12:52Z</time>
      </trkpt>
      <trkpt lat="45.89907" lon="6.43619">
        <ele>1356.56</ele>
        <time>2021-03-24T09:13:06Z</time>
      </trkpt>
      <trkpt lat="45.89898" lon="6.43621">
        <ele>1358.48</ele>
        <time>2021-03-24T09:13:20Z</time>
      </trkpt>
      <trkpt lat="45.89889" lon="6.43623">
        <ele>1360.4</ele>
        <time>2021-03-24T09:13:36Z</time>
      </trkpt>
      <trkpt lat="45.89881" lon="6.43627">
        <ele>1362.33</ele>
        <time>2021-03-24T09:13:50Z</time>
      </trkpt>
      <trkpt lat="45.89882" lon="6.43636">
        <ele>1364.73</ele>
        <time>2021-03-24T09:14:05Z</time>
      </trkpt>
      <trkpt lat="45.89884" lon="6.4365">
        <ele>1368.09</ele>
        <time>2021-03-24T09:14:26Z</time>
      </trkpt>
      <trkpt lat="45.89875" lon="6.43655">
        <ele>1370.5</ele>
        <time>2021-03-24T09:14:44Z</time>
      </trkpt>
      <trkpt lat="45.89869" lon="6.43658">
        <ele>1372.9</ele>
        <time>2021-03-24T09:14:57Z</time>
      </trkpt>
      <trkpt lat="45.89864" lon="6.43663">
        <ele>1374.34</ele>
        <time>2021-03-24T09:15:09Z</time>
      </trkpt>
      <trkpt lat="45.89857" lon="6.43667">
        <ele>1377.23</ele>
        <time>2021-03-24T09:15:25Z</time>
      </trkpt>
      <trkpt lat="45.89852" lon="6.43675">
        <ele>1380.59</ele>
        <time>2021-03-24T09:15:43Z</time>
      </trkpt>
      <trkpt lat="45.89853" lon="6.43686">
        <ele>1382.99</ele>
        <time>2021-03-24T09:16:03Z</time>
      </trkpt>
      <trkpt lat="45.89846" lon="6.43689">
        <ele>1385.88</ele>
        <time>2021-03-24T09:16:21Z</time>
      </trkpt>
      <trkpt lat="45.89847" lon="6.43698">
        <ele>1388.28</ele>
        <time>2021-03-24T09:16:37Z</time>
      </trkpt>
      <trkpt lat="45.89842" lon="6.43702">
        <ele>1390.68</ele>
        <time>2021-03-24T09:16:51Z</time>
      </trkpt>
      <trkpt lat="45.89842" lon="6.43713">
        <ele>1392.61</ele>
        <time>2021-03-24T09:17:09Z</time>
      </trkpt>
      <trkpt lat="45.89843" lon="6.43726">
        <ele>1395.49</ele>
        <time>2021-03-24T09:17:28Z</time>
      </trkpt>
      <trkpt lat="45.89837" lon="6.43732">
        <ele>1397.41</ele>
        <time>2021-03-24T09:17:42Z</time>
      </trkpt>
      <trkpt lat="45.89832" lon="6.43737">
        <ele>1399.82</ele>
        <time>2021-03-24T09:17:57Z</time>
      </trkpt>
      <trkpt lat="45.89823" lon="6.43743">
        <ele>1402.7</ele>
        <time>2021-03-24T09:18:13Z</time>
      </trkpt>
      <trkpt lat="45.89818" lon="6.43748">
        <ele>1404.14</ele>
        <time>2021-03-24T09:18:26Z</time>
      </trkpt>
      <trkpt lat="45.89812" lon="6.43754">
        <ele>1406.07</ele>
        <time>2021-03-24T09:18:40Z</time>
      </trkpt>
      <trkpt lat="45.89806" lon="6.4376">
        <ele>1408.47</ele>
        <time>2021-03-24T09:18:56Z</time>
      </trkpt>
      <trkpt lat="45.89799" lon="6.43768">
        <ele>1411.35</ele>
        <time>2021-03-24T09:19:14Z</time>
      </trkpt>
      <trkpt lat="45.89793" lon="6.43776">
        <ele>1413.76</ele>
        <time>2021-03-24T09:19:31Z</time>
      </trkpt>
      <trkpt lat="45.89787" lon="6.43788">
        <ele>1416.64</ele>
        <time>2021-03-24T09:19:50Z</time>
      </trkpt>
      <trkpt lat="45.89782" lon="6.43797">
        <ele>1419.04</ele>
        <time>2021-03-24T09:20:07Z</time>
      </trkpt>
      <trkpt lat="45.89778" lon="6.43805">
        <ele>1420.97</ele>
        <time>2021-03-24T09:20:21Z</time>
      </trkpt>
      <trkpt lat="45.89771" lon="6.43815">
        <ele>1423.85</ele>
        <time>2021-03-24T09:20:39Z</time>
      </trkpt>
      <trkpt lat="45.89767" lon="6.43822">
        <ele>1426.25</ele>
        <time>2021-03-24T09:20:52Z</time>
      </trkpt>
      <trkpt lat="45.8976" lon="6.4383">
        <ele>1428.66</ele>
        <time>2021-03-24T09:21:09Z</time>
      </trkpt>
      <trkpt lat="45.89757" lon="6.43836">
        <ele>1431.06</ele>
        <time>2021-03-24T09:21:23Z</time>
      </trkpt>
      <trkpt lat="45.89751" lon="6.43845">
        <ele>1433.46</ele>
        <time>2021-03-24T09:21:41Z</time>
      </trkpt>
      <trkpt lat="45.89745" lon="6.43854">
        <ele>1436.35</ele>
        <time>2021-03-24T09:22:00Z</time>
      </trkpt>
      <trkpt lat="45.8974" lon="6.43862">
        <ele>1439.23</ele>
        <time>2021-03-24T09:22:18Z</time>
      </trkpt>
      <trkpt lat="45.89736" lon="6.4387">
        <ele>1442.11</ele>
        <time>2021-03-24T09:22:36Z</time>
      </trkpt>
      <trkpt lat="45.89731" lon="6.43878">
        <ele>1444.52</ele>
        <time>2021-03-24T09:22:52Z</time>
      </trkpt>
      <trkpt lat="45.89728" lon="6.43879">
        <ele>1445</ele>
        <time>2021-03-24T09:23:08Z</time>
      </trkpt>
      <trkpt lat="45.8973" lon="6.43882">
        <ele>1445</ele>
        <time>2021-03-24T09:23:29Z</time>
      </trkpt>
      <trkpt lat="45.89731" lon="6.43877">
        <ele>1445.48</ele>
        <time>2021-03-24T09:23:42Z</time>
      </trkpt>
      <trkpt lat="45.89729" lon="6.43876">
        <ele>1445.48</ele>
        <time>2021-03-24T09:24:00Z</time>
      </trkpt>
      <trkpt lat="45.8973" lon="6.43875">
        <ele>1445.48</ele>
        <time>2021-03-24T09:24:16Z</time>
      </trkpt>
      <trkpt lat="45.8973" lon="6.43876">
        <ele>1445.48</ele>
        <time>2021-03-24T09:24:33Z</time>
      </trkpt>
      <trkpt lat="45.89728" lon="6.43876">
        <ele>1445.48</ele>
        <time>2021-03-24T09:24:52Z</time>
      </trkpt>
      <trkpt lat="45.89728" lon="6.43876">
        <ele>1445.48</ele>
        <time>2021-03-24T09:25:11Z</time>
      </trkpt>
      <trkpt lat="45.89728" lon="6.43881">
        <ele>1446.92</ele>
        <time>2021-03-24T09:25:27Z</time>
      </trkpt>
      <trkpt lat="45.89724" lon="6.43888">
        <ele>1449.81</ele>
        <time>2021-03-24T09:25:41Z</time>
      </trkpt>
      <trkpt lat="45.8972" lon="6.43897">
        <ele>1452.21</ele>
        <time>2021-03-24T09:25:56Z</time>
      </trkpt>
      <trkpt lat="45.89716" lon="6.43905">
        <ele>1454.61</ele>
        <time>2021-03-24T09:26:11Z</time>
      </trkpt>
      <trkpt lat="45.8971" lon="6.43913">
        <ele>1457.02</ele>
        <time>2021-03-24T09:26:25Z</time>
      </trkpt>
      <trkpt lat="45.89704" lon="6.43921">
        <ele>1459.42</ele>
        <time>2021-03-24T09:26:40Z</time>
      </trkpt>
      <trkpt lat="45.89698" lon="6.43927">
        <ele>1461.34</ele>
        <time>2021-03-24T09:26:54Z</time>
      </trkpt>
      <trkpt lat="45.89693" lon="6.43935">
        <ele>1464.23</ele>
        <time>2021-03-24T09:27:11Z</time>
      </trkpt>
      <trkpt lat="45.89687" lon="6.43942">
        <ele>1466.63</ele>
        <time>2021-03-24T09:27:26Z</time>
      </trkpt>
      <trkpt lat="45.89685" lon="6.43948">
        <ele>1468.55</ele>
        <time>2021-03-24T09:27:37Z</time>
      </trkpt>
      <trkpt lat="45.89681" lon="6.43955">
        <ele>1471.44</ele>
        <time>2021-03-24T09:27:53Z</time>
      </trkpt>
      <trkpt lat="45.89676" lon="6.43963">
        <ele>1474.32</ele>
        <time>2021-03-24T09:28:13Z</time>
      </trkpt>
      <trkpt lat="45.8967" lon="6.43969">
        <ele>1476.72</ele>
        <time>2021-03-24T09:28:29Z</time>
      </trkpt>
      <trkpt lat="45.89664" lon="6.43976">
        <ele>1478.65</ele>
        <time>2021-03-24T09:28:45Z</time>
      </trkpt>
      <trkpt lat="45.89659" lon="6.43981">
        <ele>1480.57</ele>
        <time>2021-03-24T09:28:59Z</time>
      </trkpt>
      <trkpt lat="45.89653" lon="6.43987">
        <ele>1482.97</ele>
        <time>2021-03-24T09:29:14Z</time>
      </trkpt>
      <trkpt lat="45.89651" lon="6.43992">
        <ele>1484.41</ele>
        <time>2021-03-24T09:29:28Z</time>
      </trkpt>
      <trkpt lat="45.89645" lon="6.43997">
        <ele>1486.82</ele>
        <time>2021-03-24T09:29:45Z</time>
      </trkpt>
      <trkpt lat="45.89638" lon="6.44005">
        <ele>1489.22</ele>
        <time>2021-03-24T09:30:01Z</time>
      </trkpt>
      <trkpt lat="45.89641" lon="6.44012">
        <ele>1490.66</ele>
        <time>2021-03-24T09:30:14Z</time>
      </trkpt>
      <trkpt lat="45.89646" lon="6.44017">
        <ele>1492.1</ele>
        <time>2021-03-24T09:30:27Z</time>
      </trkpt>
      <trkpt lat="45.89652" lon="6.44021">
        <ele>1494.03</ele>
        <time>2021-03-24T09:30:42Z</time>
      </trkpt>
      <trkpt lat="45.89657" lon="6.44025">
        <ele>1494.99</ele>
        <time>2021-03-24T09:30:55Z</time>
      </trkpt>
      <trkpt lat="45.89659" lon="6.4403">
        <ele>1496.43</ele>
        <time>2021-03-24T09:31:08Z</time>
      </trkpt>
      <trkpt lat="45.89658" lon="6.44031">
        <ele>1496.43</ele>
        <time>2021-03-24T09:31:23Z</time>
      </trkpt>
      <trkpt lat="45.89659" lon="6.44034">
        <ele>1496.43</ele>
        <time>2021-03-24T09:31:42Z</time>
      </trkpt>
      <trkpt lat="45.89658" lon="6.44036">
        <ele>1496.43</ele>
        <time>2021-03-24T09:32:05Z</time>
      </trkpt>
      <trkpt lat="45.89658" lon="6.44035">
        <ele>1496.43</ele>
        <time>2021-03-24T09:32:20Z</time>
      </trkpt>
      <trkpt lat="45.89657" lon="6.44036">
        <ele>1496.43</ele>
        <time>2021-03-24T09:32:48Z</time>
      </trkpt>
      <trkpt lat="45.89658" lon="6.44036">
        <ele>1496.43</ele>
        <time>2021-03-24T09:33:08Z</time>
      </trkpt>
      <trkpt lat="45.89658" lon="6.44037">
        <ele>1496.43</ele>
        <time>2021-03-24T09:33:26Z</time>
      </trkpt>
      <trkpt lat="45.89657" lon="6.44036">
        <ele>1496.43</ele>
        <time>2021-03-24T09:33:54Z</time>
      </trkpt>
      <trkpt lat="45.89657" lon="6.44037">
        <ele>1496.43</ele>
        <time>2021-03-24T09:34:16Z</time>
      </trkpt>
      <trkpt lat="45.89657" lon="6.44037">
        <ele>1496.43</ele>
        <time>2021-03-24T09:34:40Z</time>
      </trkpt>
      <trkpt lat="45.89657" lon="6.44038">
        <ele>1496.43</ele>
        <time>2021-03-24T09:35:10Z</time>
      </trkpt>
      <trkpt lat="45.89657" lon="6.44036">
        <ele>1496.43</ele>
        <time>2021-03-24T09:35:33Z</time>
      </trkpt>
      <trkpt lat="45.89655" lon="6.4404">
        <ele>1496.91</ele>
        <time>2021-03-24T09:35:44Z</time>
      </trkpt>
      <trkpt lat="45.89657" lon="6.44039">
        <ele>1496.91</ele>
        <time>2021-03-24T09:36:04Z</time>
      </trkpt>
      <trkpt lat="45.89656" lon="6.44039">
        <ele>1496.91</ele>
        <time>2021-03-24T09:36:25Z</time>
      </trkpt>
      <trkpt lat="45.89656" lon="6.44041">
        <ele>1496.91</ele>
        <time>2021-03-24T09:36:45Z</time>
      </trkpt>
      <trkpt lat="45.89657" lon="6.44041">
        <ele>1496.91</ele>
        <time>2021-03-24T09:37:13Z</time>
      </trkpt>
      <trkpt lat="45.89655" lon="6.4404">
        <ele>1496.91</ele>
        <time>2021-03-24T09:37:37Z</time>
      </trkpt>
      <trkpt lat="45.89651" lon="6.44048">
        <ele>1496.91</ele>
        <time>2021-03-24T09:37:52Z</time>
      </trkpt>
      <trkpt lat="45.89651" lon="6.44052">
        <ele>1496.91</ele>
        <time>2021-03-24T09:37:55Z</time>
      </trkpt>
      <trkpt lat="45.89648" lon="6.44068">
        <ele>1497.39</ele>
        <time>2021-03-24T09:38:09Z</time>
      </trkpt>
      <trkpt lat="45.89644" lon="6.44081">
        <ele>1499.79</ele>
        <time>2021-03-24T09:38:22Z</time>
      </trkpt>
      <trkpt lat="45.89642" lon="6.44096">
        <ele>1500.76</ele>
        <time>2021-03-24T09:38:35Z</time>
      </trkpt>
      <trkpt lat="45.89637" lon="6.44106">
        <ele>1502.2</ele>
        <time>2021-03-24T09:38:47Z</time>
      </trkpt>
      <trkpt lat="45.89633" lon="6.44117">
        <ele>1504.6</ele>
        <time>2021-03-24T09:39:01Z</time>
      </trkpt>
      <trkpt lat="45.89631" lon="6.44128">
        <ele>1507</ele>
        <time>2021-03-24T09:39:16Z</time>
      </trkpt>
      <trkpt lat="45.89626" lon="6.44136">
        <ele>1509.41</ele>
        <time>2021-03-24T09:39:30Z</time>
      </trkpt>
      <trkpt lat="45.89624" lon="6.44146">
        <ele>1511.81</ele>
        <time>2021-03-24T09:39:45Z</time>
      </trkpt>
      <trkpt lat="45.8962" lon="6.44156">
        <ele>1514.21</ele>
        <time>2021-03-24T09:39:59Z</time>
      </trkpt>
      <trkpt lat="45.89615" lon="6.44167">
        <ele>1514.69</ele>
        <time>2021-03-24T09:40:13Z</time>
      </trkpt>
      <trkpt lat="45.89614" lon="6.44169">
        <ele>1515.18</ele>
        <time>2021-03-24T09:40:15Z</time>
      </trkpt>
      <trkpt lat="45.8961" lon="6.44182">
        <ele>1516.62</ele>
        <time>2021-03-24T09:40:29Z</time>
      </trkpt>
      <trkpt lat="45.89606" lon="6.44192">
        <ele>1518.54</ele>
        <time>2021-03-24T09:40:43Z</time>
      </trkpt>
      <trkpt lat="45.89602" lon="6.442">
        <ele>1520.94</ele>
        <time>2021-03-24T09:40:56Z</time>
      </trkpt>
      <trkpt lat="45.89599" lon="6.44211">
        <ele>1523.35</ele>
        <time>2021-03-24T09:41:13Z</time>
      </trkpt>
      <trkpt lat="45.89593" lon="6.4422">
        <ele>1525.27</ele>
        <time>2021-03-24T09:41:27Z</time>
      </trkpt>
      <trkpt lat="45.89586" lon="6.44231">
        <ele>1526.71</ele>
        <time>2021-03-24T09:41:42Z</time>
      </trkpt>
      <trkpt lat="45.89579" lon="6.44243">
        <ele>1528.63</ele>
        <time>2021-03-24T09:41:57Z</time>
      </trkpt>
      <trkpt lat="45.89575" lon="6.44247">
        <ele>1529.11</ele>
        <time>2021-03-24T09:42:02Z</time>
      </trkpt>
      <trkpt lat="45.89567" lon="6.44257">
        <ele>1530.56</ele>
        <time>2021-03-24T09:42:17Z</time>
      </trkpt>
      <trkpt lat="45.89557" lon="6.44269">
        <ele>1532.48</ele>
        <time>2021-03-24T09:42:32Z</time>
      </trkpt>
      <trkpt lat="45.8955" lon="6.44278">
        <ele>1533.44</ele>
        <time>2021-03-24T09:42:45Z</time>
      </trkpt>
      <trkpt lat="45.89542" lon="6.44288">
        <ele>1535.36</ele>
        <time>2021-03-24T09:42:59Z</time>
      </trkpt>
      <trkpt lat="45.89539" lon="6.44291">
        <ele>1535.36</ele>
        <time>2021-03-24T09:43:03Z</time>
      </trkpt>
      <trkpt lat="45.89535" lon="6.44295">
        <ele>1536.32</ele>
        <time>2021-03-24T09:43:10Z</time>
      </trkpt>
      <trkpt lat="45.89528" lon="6.44302">
        <ele>1537.29</ele>
        <time>2021-03-24T09:43:21Z</time>
      </trkpt>
      <trkpt lat="45.8952" lon="6.44309">
        <ele>1538.73</ele>
        <time>2021-03-24T09:43:33Z</time>
      </trkpt>
      <trkpt lat="45.89512" lon="6.44317">
        <ele>1540.17</ele>
        <time>2021-03-24T09:43:46Z</time>
      </trkpt>
      <trkpt lat="45.89503" lon="6.44323">
        <ele>1541.61</ele>
        <time>2021-03-24T09:43:59Z</time>
      </trkpt>
      <trkpt lat="45.89497" lon="6.44333">
        <ele>1543.53</ele>
        <time>2021-03-24T09:44:13Z</time>
      </trkpt>
      <trkpt lat="45.89488" lon="6.44342">
        <ele>1544.5</ele>
        <time>2021-03-24T09:44:28Z</time>
      </trkpt>
      <trkpt lat="45.8948" lon="6.44348">
        <ele>1546.42</ele>
        <time>2021-03-24T09:44:42Z</time>
      </trkpt>
      <trkpt lat="45.89474" lon="6.44356">
        <ele>1547.86</ele>
        <time>2021-03-24T09:44:56Z</time>
      </trkpt>
      <trkpt lat="45.89466" lon="6.44363">
        <ele>1548.82</ele>
        <time>2021-03-24T09:45:09Z</time>
      </trkpt>
      <trkpt lat="45.89461" lon="6.44372">
        <ele>1550.74</ele>
        <time>2021-03-24T09:45:22Z</time>
      </trkpt>
      <trkpt lat="45.89455" lon="6.44385">
        <ele>1552.67</ele>
        <time>2021-03-24T09:45:37Z</time>
      </trkpt>
      <trkpt lat="45.89449" lon="6.44394">
        <ele>1554.11</ele>
        <time>2021-03-24T09:45:50Z</time>
      </trkpt>
      <trkpt lat="45.89444" lon="6.44403">
        <ele>1555.55</ele>
        <time>2021-03-24T09:46:03Z</time>
      </trkpt>
      <trkpt lat="45.89439" lon="6.44414">
        <ele>1556.99</ele>
        <time>2021-03-24T09:46:17Z</time>
      </trkpt>
      <trkpt lat="45.89435" lon="6.44424">
        <ele>1559.4</ele>
        <time>2021-03-24T09:46:32Z</time>
      </trkpt>
      <trkpt lat="45.89429" lon="6.44429">
        <ele>1561.32</ele>
        <time>2021-03-24T09:46:45Z</time>
      </trkpt>
      <trkpt lat="45.89424" lon="6.44438">
        <ele>1562.28</ele>
        <time>2021-03-24T09:46:58Z</time>
      </trkpt>
      <trkpt lat="45.89419" lon="6.44448">
        <ele>1563.72</ele>
        <time>2021-03-24T09:47:13Z</time>
      </trkpt>
      <trkpt lat="45.89413" lon="6.44458">
        <ele>1566.61</ele>
        <time>2021-03-24T09:47:30Z</time>
      </trkpt>
      <trkpt lat="45.89407" lon="6.44464">
        <ele>1569.01</ele>
        <time>2021-03-24T09:47:46Z</time>
      </trkpt>
      <trkpt lat="45.89402" lon="6.44471">
        <ele>1570.45</ele>
        <time>2021-03-24T09:48:01Z</time>
      </trkpt>
      <trkpt lat="45.89396" lon="6.44478">
        <ele>1572.85</ele>
        <time>2021-03-24T09:48:17Z</time>
      </trkpt>
      <trkpt lat="45.89393" lon="6.44484">
        <ele>1575.26</ele>
        <time>2021-03-24T09:48:31Z</time>
      </trkpt>
      <trkpt lat="45.89386" lon="6.4449">
        <ele>1577.66</ele>
        <time>2021-03-24T09:48:49Z</time>
      </trkpt>
      <trkpt lat="45.89381" lon="6.44498">
        <ele>1579.58</ele>
        <time>2021-03-24T09:49:03Z</time>
      </trkpt>
      <trkpt lat="45.89376" lon="6.44503">
        <ele>1581.51</ele>
        <time>2021-03-24T09:49:17Z</time>
      </trkpt>
      <trkpt lat="45.8937" lon="6.4451">
        <ele>1583.91</ele>
        <time>2021-03-24T09:49:32Z</time>
      </trkpt>
      <trkpt lat="45.89364" lon="6.44518">
        <ele>1585.35</ele>
        <time>2021-03-24T09:49:46Z</time>
      </trkpt>
      <trkpt lat="45.89356" lon="6.44526">
        <ele>1586.31</ele>
        <time>2021-03-24T09:50:00Z</time>
      </trkpt>
      <trkpt lat="45.89353" lon="6.44529">
        <ele>1586.79</ele>
        <time>2021-03-24T09:50:06Z</time>
      </trkpt>
      <trkpt lat="45.89344" lon="6.44535">
        <ele>1588.24</ele>
        <time>2021-03-24T09:50:19Z</time>
      </trkpt>
      <trkpt lat="45.89335" lon="6.44538">
        <ele>1589.2</ele>
        <time>2021-03-24T09:50:33Z</time>
      </trkpt>
      <trkpt lat="45.89325" lon="6.44542">
        <ele>1590.64</ele>
        <time>2021-03-24T09:50:52Z</time>
      </trkpt>
      <trkpt lat="45.89318" lon="6.44538">
        <ele>1592.56</ele>
        <time>2021-03-24T09:51:07Z</time>
      </trkpt>
      <trkpt lat="45.89312" lon="6.44533">
        <ele>1594.48</ele>
        <time>2021-03-24T09:51:20Z</time>
      </trkpt>
      <trkpt lat="45.89307" lon="6.44526">
        <ele>1596.41</ele>
        <time>2021-03-24T09:51:33Z</time>
      </trkpt>
      <trkpt lat="45.893" lon="6.44519">
        <ele>1598.33</ele>
        <time>2021-03-24T09:51:47Z</time>
      </trkpt>
      <trkpt lat="45.89294" lon="6.44519">
        <ele>1599.29</ele>
        <time>2021-03-24T09:51:59Z</time>
      </trkpt>
      <trkpt lat="45.89293" lon="6.44529">
        <ele>1601.21</ele>
        <time>2021-03-24T09:52:13Z</time>
      </trkpt>
      <trkpt lat="45.89293" lon="6.44538">
        <ele>1603.62</ele>
        <time>2021-03-24T09:52:27Z</time>
      </trkpt>
      <trkpt lat="45.89296" lon="6.4455">
        <ele>1605.54</ele>
        <time>2021-03-24T09:52:42Z</time>
      </trkpt>
      <trkpt lat="45.89301" lon="6.44559">
        <ele>1606.98</ele>
        <time>2021-03-24T09:52:56Z</time>
      </trkpt>
      <trkpt lat="45.89306" lon="6.4457">
        <ele>1608.9</ele>
        <time>2021-03-24T09:53:11Z</time>
      </trkpt>
      <trkpt lat="45.89309" lon="6.44581">
        <ele>1610.83</ele>
        <time>2021-03-24T09:53:26Z</time>
      </trkpt>
      <trkpt lat="45.8931" lon="6.44594">
        <ele>1612.27</ele>
        <time>2021-03-24T09:53:40Z</time>
      </trkpt>
      <trkpt lat="45.89312" lon="6.44603">
        <ele>1613.71</ele>
        <time>2021-03-24T09:53:54Z</time>
      </trkpt>
      <trkpt lat="45.89313" lon="6.44614">
        <ele>1615.63</ele>
        <time>2021-03-24T09:54:07Z</time>
      </trkpt>
      <trkpt lat="45.89305" lon="6.44612">
        <ele>1618.04</ele>
        <time>2021-03-24T09:54:21Z</time>
      </trkpt>
      <trkpt lat="45.89298" lon="6.44609">
        <ele>1619.48</ele>
        <time>2021-03-24T09:54:33Z</time>
      </trkpt>
      <trkpt lat="45.8929" lon="6.44616">
        <ele>1620.44</ele>
        <time>2021-03-24T09:54:48Z</time>
      </trkpt>
      <trkpt lat="45.89288" lon="6.44627">
        <ele>1622.84</ele>
        <time>2021-03-24T09:55:02Z</time>
      </trkpt>
      <trkpt lat="45.89287" lon="6.44639">
        <ele>1625.25</ele>
        <time>2021-03-24T09:55:16Z</time>
      </trkpt>
      <trkpt lat="45.89287" lon="6.4465">
        <ele>1627.17</ele>
        <time>2021-03-24T09:55:28Z</time>
      </trkpt>
      <trkpt lat="45.89287" lon="6.44657">
        <ele>1629.09</ele>
        <time>2021-03-24T09:55:41Z</time>
      </trkpt>
      <trkpt lat="45.89286" lon="6.44667">
        <ele>1631.49</ele>
        <time>2021-03-24T09:55:54Z</time>
      </trkpt>
      <trkpt lat="45.89285" lon="6.44675">
        <ele>1633.42</ele>
        <time>2021-03-24T09:56:07Z</time>
      </trkpt>
      <trkpt lat="45.89283" lon="6.44682">
        <ele>1635.34</ele>
        <time>2021-03-24T09:56:19Z</time>
      </trkpt>
      <trkpt lat="45.89283" lon="6.44688">
        <ele>1637.74</ele>
        <time>2021-03-24T09:56:33Z</time>
      </trkpt>
      <trkpt lat="45.89284" lon="6.44699">
        <ele>1640.15</ele>
        <time>2021-03-24T09:56:49Z</time>
      </trkpt>
      <trkpt lat="45.89282" lon="6.44705">
        <ele>1642.07</ele>
        <time>2021-03-24T09:57:01Z</time>
      </trkpt>
      <trkpt lat="45.89281" lon="6.44714">
        <ele>1643.99</ele>
        <time>2021-03-24T09:57:14Z</time>
      </trkpt>
      <trkpt lat="45.89281" lon="6.44723">
        <ele>1646.88</ele>
        <time>2021-03-24T09:57:28Z</time>
      </trkpt>
      <trkpt lat="45.89278" lon="6.44731">
        <ele>1649.28</ele>
        <time>2021-03-24T09:57:41Z</time>
      </trkpt>
      <trkpt lat="45.89278" lon="6.4473">
        <ele>1648.8</ele>
        <time>2021-03-24T09:57:52Z</time>
      </trkpt>
      <trkpt lat="45.89283" lon="6.44734">
        <ele>1650.72</ele>
        <time>2021-03-24T09:58:07Z</time>
      </trkpt>
      <trkpt lat="45.89279" lon="6.44742">
        <ele>1652.64</ele>
        <time>2021-03-24T09:58:21Z</time>
      </trkpt>
      <trkpt lat="45.89274" lon="6.44748">
        <ele>1654.57</ele>
        <time>2021-03-24T09:58:37Z</time>
      </trkpt>
      <trkpt lat="45.89267" lon="6.44748">
        <ele>1656.01</ele>
        <time>2021-03-24T09:58:47Z</time>
      </trkpt>
      <trkpt lat="45.8926" lon="6.44748">
        <ele>1657.45</ele>
        <time>2021-03-24T09:58:59Z</time>
      </trkpt>
      <trkpt lat="45.89259" lon="6.44749">
        <ele>1657.45</ele>
        <time>2021-03-24T09:59:20Z</time>
      </trkpt>
      <trkpt lat="45.89257" lon="6.44746">
        <ele>1657.93</ele>
        <time>2021-03-24T09:59:41Z</time>
      </trkpt>
      <trkpt lat="45.89255" lon="6.44745">
        <ele>1658.41</ele>
        <time>2021-03-24T09:59:44Z</time>
      </trkpt>
      <trkpt lat="45.89246" lon="6.44739">
        <ele>1659.37</ele>
        <time>2021-03-24T09:59:57Z</time>
      </trkpt>
      <trkpt lat="45.89237" lon="6.44734">
        <ele>1661.3</ele>
        <time>2021-03-24T10:00:08Z</time>
      </trkpt>
      <trkpt lat="45.89229" lon="6.44733">
        <ele>1662.74</ele>
        <time>2021-03-24T10:00:20Z</time>
      </trkpt>
      <trkpt lat="45.8922" lon="6.44727">
        <ele>1664.66</ele>
        <time>2021-03-24T10:00:34Z</time>
      </trkpt>
      <trkpt lat="45.89211" lon="6.44724">
        <ele>1666.1</ele>
        <time>2021-03-24T10:00:47Z</time>
      </trkpt>
      <trkpt lat="45.89202" lon="6.44718">
        <ele>1668.02</ele>
        <time>2021-03-24T10:00:59Z</time>
      </trkpt>
      <trkpt lat="45.89193" lon="6.44713">
        <ele>1669.47</ele>
        <time>2021-03-24T10:01:13Z</time>
      </trkpt>
      <trkpt lat="45.89186" lon="6.44707">
        <ele>1669.95</ele>
        <time>2021-03-24T10:01:25Z</time>
      </trkpt>
      <trkpt lat="45.89176" lon="6.44701">
        <ele>1672.35</ele>
        <time>2021-03-24T10:01:40Z</time>
      </trkpt>
      <trkpt lat="45.89168" lon="6.44696">
        <ele>1673.79</ele>
        <time>2021-03-24T10:01:53Z</time>
      </trkpt>
      <trkpt lat="45.89159" lon="6.44691">
        <ele>1675.23</ele>
        <time>2021-03-24T10:02:06Z</time>
      </trkpt>
      <trkpt lat="45.89151" lon="6.44686">
        <ele>1676.2</ele>
        <time>2021-03-24T10:02:18Z</time>
      </trkpt>
      <trkpt lat="45.89141" lon="6.4468">
        <ele>1677.64</ele>
        <time>2021-03-24T10:02:32Z</time>
      </trkpt>
      <trkpt lat="45.8914" lon="6.4468">
        <ele>1678.12</ele>
        <time>2021-03-24T10:02:33Z</time>
      </trkpt>
      <trkpt lat="45.89132" lon="6.44675">
        <ele>1679.08</ele>
        <time>2021-03-24T10:02:45Z</time>
      </trkpt>
      <trkpt lat="45.89124" lon="6.44671">
        <ele>1680.52</ele>
        <time>2021-03-24T10:02:57Z</time>
      </trkpt>
      <trkpt lat="45.89115" lon="6.44667">
        <ele>1681.96</ele>
        <time>2021-03-24T10:03:10Z</time>
      </trkpt>
      <trkpt lat="45.89106" lon="6.44661">
        <ele>1682.93</ele>
        <time>2021-03-24T10:03:24Z</time>
      </trkpt>
      <trkpt lat="45.89098" lon="6.44656">
        <ele>1684.37</ele>
        <time>2021-03-24T10:03:36Z</time>
      </trkpt>
      <trkpt lat="45.89095" lon="6.44654">
        <ele>1684.85</ele>
        <time>2021-03-24T10:03:41Z</time>
      </trkpt>
      <trkpt lat="45.89087" lon="6.44645">
        <ele>1686.29</ele>
        <time>2021-03-24T10:03:54Z</time>
      </trkpt>
      <trkpt lat="45.89085" lon="6.44642">
        <ele>1686.29</ele>
        <time>2021-03-24T10:03:58Z</time>
      </trkpt>
      <trkpt lat="45.89074" lon="6.44635">
        <ele>1688.21</ele>
        <time>2021-03-24T10:04:12Z</time>
      </trkpt>
      <trkpt lat="45.89064" lon="6.44631">
        <ele>1689.17</ele>
        <time>2021-03-24T10:04:25Z</time>
      </trkpt>
      <trkpt lat="45.89054" lon="6.44627">
        <ele>1691.1</ele>
        <time>2021-03-24T10:04:39Z</time>
      </trkpt>
      <trkpt lat="45.89043" lon="6.44626">
        <ele>1692.06</ele>
        <time>2021-03-24T10:04:54Z</time>
      </trkpt>
      <trkpt lat="45.89038" lon="6.44625">
        <ele>1693.02</ele>
        <time>2021-03-24T10:05:01Z</time>
      </trkpt>
      <trkpt lat="45.89027" lon="6.44624">
        <ele>1694.46</ele>
        <time>2021-03-24T10:05:15Z</time>
      </trkpt>
      <trkpt lat="45.89017" lon="6.44624">
        <ele>1696.38</ele>
        <time>2021-03-24T10:05:30Z</time>
      </trkpt>
      <trkpt lat="45.89007" lon="6.44625">
        <ele>1698.31</ele>
        <time>2021-03-24T10:05:43Z</time>
      </trkpt>
      <trkpt lat="45.88998" lon="6.4463">
        <ele>1699.75</ele>
        <time>2021-03-24T10:05:57Z</time>
      </trkpt>
      <trkpt lat="45.88989" lon="6.44636">
        <ele>1700.71</ele>
        <time>2021-03-24T10:06:11Z</time>
      </trkpt>
      <trkpt lat="45.8898" lon="6.4464">
        <ele>1702.15</ele>
        <time>2021-03-24T10:06:24Z</time>
      </trkpt>
      <trkpt lat="45.88971" lon="6.44647">
        <ele>1704.07</ele>
        <time>2021-03-24T10:06:38Z</time>
      </trkpt>
      <trkpt lat="45.88964" lon="6.44655">
        <ele>1706</ele>
        <time>2021-03-24T10:06:51Z</time>
      </trkpt>
      <trkpt lat="45.88958" lon="6.44664">
        <ele>1707.44</ele>
        <time>2021-03-24T10:07:05Z</time>
      </trkpt>
      <trkpt lat="45.88952" lon="6.44675">
        <ele>1709.36</ele>
        <time>2021-03-24T10:07:19Z</time>
      </trkpt>
      <trkpt lat="45.88947" lon="6.44686">
        <ele>1710.8</ele>
        <time>2021-03-24T10:07:33Z</time>
      </trkpt>
      <trkpt lat="45.88943" lon="6.44699">
        <ele>1713.21</ele>
        <time>2021-03-24T10:07:47Z</time>
      </trkpt>
      <trkpt lat="45.8894" lon="6.44711">
        <ele>1714.17</ele>
        <time>2021-03-24T10:08:00Z</time>
      </trkpt>
      <trkpt lat="45.88939" lon="6.44723">
        <ele>1715.61</ele>
        <time>2021-03-24T10:08:13Z</time>
      </trkpt>
      <trkpt lat="45.8894" lon="6.44737">
        <ele>1717.05</ele>
        <time>2021-03-24T10:08:28Z</time>
      </trkpt>
      <trkpt lat="45.88939" lon="6.44751">
        <ele>1718.49</ele>
        <time>2021-03-24T10:08:42Z</time>
      </trkpt>
      <trkpt lat="45.88939" lon="6.44764">
        <ele>1719.94</ele>
        <time>2021-03-24T10:08:55Z</time>
      </trkpt>
      <trkpt lat="45.88939" lon="6.44776">
        <ele>1721.86</ele>
        <time>2021-03-24T10:09:09Z</time>
      </trkpt>
      <trkpt lat="45.88937" lon="6.44791">
        <ele>1723.78</ele>
        <time>2021-03-24T10:09:24Z</time>
      </trkpt>
      <trkpt lat="45.88934" lon="6.44801">
        <ele>1725.7</ele>
        <time>2021-03-24T10:09:37Z</time>
      </trkpt>
      <trkpt lat="45.88931" lon="6.44813">
        <ele>1727.15</ele>
        <time>2021-03-24T10:09:51Z</time>
      </trkpt>
      <trkpt lat="45.88926" lon="6.44824">
        <ele>1727.63</ele>
        <time>2021-03-24T10:10:04Z</time>
      </trkpt>
      <trkpt lat="45.88921" lon="6.44836">
        <ele>1729.55</ele>
        <time>2021-03-24T10:10:18Z</time>
      </trkpt>
      <trkpt lat="45.88917" lon="6.44849">
        <ele>1730.99</ele>
        <time>2021-03-24T10:10:32Z</time>
      </trkpt>
      <trkpt lat="45.88912" lon="6.44862">
        <ele>1732.43</ele>
        <time>2021-03-24T10:10:46Z</time>
      </trkpt>
      <trkpt lat="45.8891" lon="6.44876">
        <ele>1734.36</ele>
        <time>2021-03-24T10:11:00Z</time>
      </trkpt>
      <trkpt lat="45.88905" lon="6.44889">
        <ele>1735.8</ele>
        <time>2021-03-24T10:11:14Z</time>
      </trkpt>
      <trkpt lat="45.88901" lon="6.449">
        <ele>1737.24</ele>
        <time>2021-03-24T10:11:27Z</time>
      </trkpt>
      <trkpt lat="45.88897" lon="6.44912">
        <ele>1738.68</ele>
        <time>2021-03-24T10:11:40Z</time>
      </trkpt>
      <trkpt lat="45.88893" lon="6.44928">
        <ele>1740.12</ele>
        <time>2021-03-24T10:11:54Z</time>
      </trkpt>
      <trkpt lat="45.88892" lon="6.44938">
        <ele>1740.6</ele>
        <time>2021-03-24T10:12:05Z</time>
      </trkpt>
      <trkpt lat="45.88886" lon="6.44955">
        <ele>1741.57</ele>
        <time>2021-03-24T10:12:20Z</time>
      </trkpt>
      <trkpt lat="45.88884" lon="6.44968">
        <ele>1743.49</ele>
        <time>2021-03-24T10:12:35Z</time>
      </trkpt>
      <trkpt lat="45.88884" lon="6.44983">
        <ele>1744.45</ele>
        <time>2021-03-24T10:12:49Z</time>
      </trkpt>
      <trkpt lat="45.88882" lon="6.44995">
        <ele>1746.37</ele>
        <time>2021-03-24T10:13:03Z</time>
      </trkpt>
      <trkpt lat="45.88878" lon="6.45005">
        <ele>1747.33</ele>
        <time>2021-03-24T10:13:17Z</time>
      </trkpt>
      <trkpt lat="45.88879" lon="6.45005">
        <ele>1747.33</ele>
        <time>2021-03-24T10:13:36Z</time>
      </trkpt>
      <trkpt lat="45.88879" lon="6.4501">
        <ele>1747.33</ele>
        <time>2021-03-24T10:13:57Z</time>
      </trkpt>
      <trkpt lat="45.88882" lon="6.45022">
        <ele>1748.78</ele>
        <time>2021-03-24T10:14:09Z</time>
      </trkpt>
      <trkpt lat="45.88884" lon="6.45035">
        <ele>1750.7</ele>
        <time>2021-03-24T10:14:21Z</time>
      </trkpt>
      <trkpt lat="45.88886" lon="6.4505">
        <ele>1753.1</ele>
        <time>2021-03-24T10:14:36Z</time>
      </trkpt>
      <trkpt lat="45.88887" lon="6.45062">
        <ele>1754.54</ele>
        <time>2021-03-24T10:14:49Z</time>
      </trkpt>
      <trkpt lat="45.8889" lon="6.45075">
        <ele>1756.47</ele>
        <time>2021-03-24T10:15:03Z</time>
      </trkpt>
      <trkpt lat="45.88892" lon="6.45085">
        <ele>1758.39</ele>
        <time>2021-03-24T10:15:16Z</time>
      </trkpt>
      <trkpt lat="45.88894" lon="6.45102">
        <ele>1760.31</ele>
        <time>2021-03-24T10:15:31Z</time>
      </trkpt>
      <trkpt lat="45.88896" lon="6.45116">
        <ele>1761.27</ele>
        <time>2021-03-24T10:15:45Z</time>
      </trkpt>
      <trkpt lat="45.88899" lon="6.45128">
        <ele>1763.2</ele>
        <time>2021-03-24T10:16:00Z</time>
      </trkpt>
      <trkpt lat="45.88903" lon="6.45141">
        <ele>1764.64</ele>
        <time>2021-03-24T10:16:14Z</time>
      </trkpt>
      <trkpt lat="45.88907" lon="6.45153">
        <ele>1766.56</ele>
        <time>2021-03-24T10:16:28Z</time>
      </trkpt>
      <trkpt lat="45.88909" lon="6.45168">
        <ele>1768.48</ele>
        <time>2021-03-24T10:16:43Z</time>
      </trkpt>
      <trkpt lat="45.8891" lon="6.45179">
        <ele>1769.92</ele>
        <time>2021-03-24T10:16:56Z</time>
      </trkpt>
      <trkpt lat="45.88911" lon="6.4518">
        <ele>1769.92</ele>
        <time>2021-03-24T10:16:57Z</time>
      </trkpt>
      <trkpt lat="45.88914" lon="6.45193">
        <ele>1771.85</ele>
        <time>2021-03-24T10:17:11Z</time>
      </trkpt>
      <trkpt lat="45.88918" lon="6.45206">
        <ele>1773.29</ele>
        <time>2021-03-24T10:17:24Z</time>
      </trkpt>
      <trkpt lat="45.88919" lon="6.45218">
        <ele>1775.21</ele>
        <time>2021-03-24T10:17:38Z</time>
      </trkpt>
      <trkpt lat="45.88922" lon="6.4523">
        <ele>1777.13</ele>
        <time>2021-03-24T10:17:54Z</time>
      </trkpt>
      <trkpt lat="45.88926" lon="6.45243">
        <ele>1779.54</ele>
        <time>2021-03-24T10:18:10Z</time>
      </trkpt>
      <trkpt lat="45.88929" lon="6.45254">
        <ele>1780.5</ele>
        <time>2021-03-24T10:18:24Z</time>
      </trkpt>
      <trkpt lat="45.88933" lon="6.45265">
        <ele>1782.9</ele>
        <time>2021-03-24T10:18:40Z</time>
      </trkpt>
      <trkpt lat="45.88937" lon="6.45275">
        <ele>1784.34</ele>
        <time>2021-03-24T10:18:56Z</time>
      </trkpt>
      <trkpt lat="45.8894" lon="6.45284">
        <ele>1786.75</ele>
        <time>2021-03-24T10:19:10Z</time>
      </trkpt>
      <trkpt lat="45.88945" lon="6.45294">
        <ele>1788.67</ele>
        <time>2021-03-24T10:19:26Z</time>
      </trkpt>
      <trkpt lat="45.88949" lon="6.45302">
        <ele>1790.59</ele>
        <time>2021-03-24T10:19:40Z</time>
      </trkpt>
      <trkpt lat="45.8895" lon="6.45313">
        <ele>1793</ele>
        <time>2021-03-24T10:19:56Z</time>
      </trkpt>
      <trkpt lat="45.88953" lon="6.45321">
        <ele>1794.92</ele>
        <time>2021-03-24T10:20:09Z</time>
      </trkpt>
      <trkpt lat="45.88957" lon="6.45327">
        <ele>1797.32</ele>
        <time>2021-03-24T10:20:24Z</time>
      </trkpt>
      <trkpt lat="45.88957" lon="6.45338">
        <ele>1799.73</ele>
        <time>2021-03-24T10:20:40Z</time>
      </trkpt>
      <trkpt lat="45.88962" lon="6.45349">
        <ele>1801.65</ele>
        <time>2021-03-24T10:20:56Z</time>
      </trkpt>
      <trkpt lat="45.88965" lon="6.45358">
        <ele>1803.57</ele>
        <time>2021-03-24T10:21:12Z</time>
      </trkpt>
      <trkpt lat="45.88967" lon="6.45368">
        <ele>1805.49</ele>
        <time>2021-03-24T10:21:26Z</time>
      </trkpt>
      <trkpt lat="45.8897" lon="6.45379">
        <ele>1807.42</ele>
        <time>2021-03-24T10:21:42Z</time>
      </trkpt>
      <trkpt lat="45.88973" lon="6.45388">
        <ele>1809.34</ele>
        <time>2021-03-24T10:21:56Z</time>
      </trkpt>
      <trkpt lat="45.88977" lon="6.45398">
        <ele>1811.26</ele>
        <time>2021-03-24T10:22:12Z</time>
      </trkpt>
      <trkpt lat="45.8898" lon="6.45411">
        <ele>1813.66</ele>
        <time>2021-03-24T10:22:29Z</time>
      </trkpt>
      <trkpt lat="45.88982" lon="6.45418">
        <ele>1815.11</ele>
        <time>2021-03-24T10:22:41Z</time>
      </trkpt>
      <trkpt lat="45.88985" lon="6.45431">
        <ele>1817.03</ele>
        <time>2021-03-24T10:22:59Z</time>
      </trkpt>
      <trkpt lat="45.88989" lon="6.45442">
        <ele>1819.43</ele>
        <time>2021-03-24T10:23:14Z</time>
      </trkpt>
      <trkpt lat="45.88991" lon="6.45452">
        <ele>1821.35</ele>
        <time>2021-03-24T10:23:29Z</time>
      </trkpt>
      <trkpt lat="45.88994" lon="6.45459">
        <ele>1822.8</ele>
        <time>2021-03-24T10:23:41Z</time>
      </trkpt>
      <trkpt lat="45.88998" lon="6.45468">
        <ele>1825.2</ele>
        <time>2021-03-24T10:23:57Z</time>
      </trkpt>
      <trkpt lat="45.89003" lon="6.45476">
        <ele>1827.6</ele>
        <time>2021-03-24T10:24:11Z</time>
      </trkpt>
      <trkpt lat="45.89005" lon="6.45486">
        <ele>1829.05</ele>
        <time>2021-03-24T10:24:25Z</time>
      </trkpt>
      <trkpt lat="45.89008" lon="6.45496">
        <ele>1831.93</ele>
        <time>2021-03-24T10:24:40Z</time>
      </trkpt>
      <trkpt lat="45.89014" lon="6.45509">
        <ele>1833.37</ele>
        <time>2021-03-24T10:24:56Z</time>
      </trkpt>
      <trkpt lat="45.89017" lon="6.45516">
        <ele>1833.85</ele>
        <time>2021-03-24T10:25:11Z</time>
      </trkpt>
      <trkpt lat="45.89018" lon="6.45517">
        <ele>1834.81</ele>
        <time>2021-03-24T10:25:30Z</time>
      </trkpt>
      <trkpt lat="45.8902" lon="6.45515">
        <ele>1834.81</ele>
        <time>2021-03-24T10:25:54Z</time>
      </trkpt>
      <trkpt lat="45.89019" lon="6.45516">
        <ele>1834.81</ele>
        <time>2021-03-24T10:26:13Z</time>
      </trkpt>
      <trkpt lat="45.89018" lon="6.45519">
        <ele>1834.81</ele>
        <time>2021-03-24T10:26:31Z</time>
      </trkpt>
      <trkpt lat="45.89018" lon="6.45517">
        <ele>1834.81</ele>
        <time>2021-03-24T10:26:49Z</time>
      </trkpt>
      <trkpt lat="45.89017" lon="6.45517">
        <ele>1834.81</ele>
        <time>2021-03-24T10:27:12Z</time>
      </trkpt>
      <trkpt lat="45.8902" lon="6.45513">
        <ele>1834.81</ele>
        <time>2021-03-24T10:27:39Z</time>
      </trkpt>
      <trkpt lat="45.8902" lon="6.45515">
        <ele>1834.81</ele>
        <time>2021-03-24T10:27:58Z</time>
      </trkpt>
      <trkpt lat="45.89017" lon="6.45528">
        <ele>1834.81</ele>
        <time>2021-03-24T10:28:13Z</time>
      </trkpt>
      <trkpt lat="45.89016" lon="6.45529">
        <ele>1834.81</ele>
        <time>2021-03-24T10:28:27Z</time>
      </trkpt>
      <trkpt lat="45.89017" lon="6.4553">
        <ele>1835.29</ele>
        <time>2021-03-24T10:28:50Z</time>
      </trkpt>
      <trkpt lat="45.8902" lon="6.45535">
        <ele>1836.26</ele>
        <time>2021-03-24T10:29:06Z</time>
      </trkpt>
      <trkpt lat="45.89025" lon="6.45543">
        <ele>1837.7</ele>
        <time>2021-03-24T10:29:19Z</time>
      </trkpt>
      <trkpt lat="45.89025" lon="6.45551">
        <ele>1840.1</ele>
        <time>2021-03-24T10:29:31Z</time>
      </trkpt>
      <trkpt lat="45.89026" lon="6.45568">
        <ele>1841.54</ele>
        <time>2021-03-24T10:29:45Z</time>
      </trkpt>
      <trkpt lat="45.89026" lon="6.45584">
        <ele>1843.47</ele>
        <time>2021-03-24T10:30:00Z</time>
      </trkpt>
      <trkpt lat="45.89026" lon="6.45596">
        <ele>1845.87</ele>
        <time>2021-03-24T10:30:15Z</time>
      </trkpt>
      <trkpt lat="45.89028" lon="6.45603">
        <ele>1847.79</ele>
        <time>2021-03-24T10:30:28Z</time>
      </trkpt>
      <trkpt lat="45.89031" lon="6.45607">
        <ele>1849.71</ele>
        <time>2021-03-24T10:30:43Z</time>
      </trkpt>
      <trkpt lat="45.89032" lon="6.45622">
        <ele>1852.12</ele>
        <time>2021-03-24T10:30:59Z</time>
      </trkpt>
      <trkpt lat="45.89034" lon="6.45639">
        <ele>1854.04</ele>
        <time>2021-03-24T10:31:16Z</time>
      </trkpt>
      <trkpt lat="45.89035" lon="6.4565">
        <ele>1855.96</ele>
        <time>2021-03-24T10:31:30Z</time>
      </trkpt>
      <trkpt lat="45.89036" lon="6.45661">
        <ele>1857.89</ele>
        <time>2021-03-24T10:31:46Z</time>
      </trkpt>
      <trkpt lat="45.89037" lon="6.45668">
        <ele>1859.81</ele>
        <time>2021-03-24T10:32:02Z</time>
      </trkpt>
      <trkpt lat="45.89039" lon="6.4568">
        <ele>1861.73</ele>
        <time>2021-03-24T10:32:16Z</time>
      </trkpt>
      <trkpt lat="45.89037" lon="6.45687">
        <ele>1863.65</ele>
        <time>2021-03-24T10:32:29Z</time>
      </trkpt>
      <trkpt lat="45.8904" lon="6.45699">
        <ele>1866.06</ele>
        <time>2021-03-24T10:32:45Z</time>
      </trkpt>
      <trkpt lat="45.89041" lon="6.4571">
        <ele>1867.98</ele>
        <time>2021-03-24T10:33:01Z</time>
      </trkpt>
      <trkpt lat="45.89041" lon="6.45722">
        <ele>1869.42</ele>
        <time>2021-03-24T10:33:16Z</time>
      </trkpt>
      <trkpt lat="45.89042" lon="6.45734">
        <ele>1872.79</ele>
        <time>2021-03-24T10:33:31Z</time>
      </trkpt>
      <trkpt lat="45.89041" lon="6.45748">
        <ele>1875.19</ele>
        <time>2021-03-24T10:33:48Z</time>
      </trkpt>
      <trkpt lat="45.89043" lon="6.45757">
        <ele>1877.59</ele>
        <time>2021-03-24T10:34:03Z</time>
      </trkpt>
      <trkpt lat="45.89044" lon="6.45762">
        <ele>1880</ele>
        <time>2021-03-24T10:34:16Z</time>
      </trkpt>
      <trkpt lat="45.89048" lon="6.45774">
        <ele>1882.4</ele>
        <time>2021-03-24T10:34:35Z</time>
      </trkpt>
      <trkpt lat="45.8905" lon="6.45784">
        <ele>1884.32</ele>
        <time>2021-03-24T10:34:49Z</time>
      </trkpt>
      <trkpt lat="45.89052" lon="6.45793">
        <ele>1886.24</ele>
        <time>2021-03-24T10:35:04Z</time>
      </trkpt>
      <trkpt lat="45.89055" lon="6.45804">
        <ele>1888.17</ele>
        <time>2021-03-24T10:35:20Z</time>
      </trkpt>
      <trkpt lat="45.89058" lon="6.45816">
        <ele>1891.05</ele>
        <time>2021-03-24T10:35:39Z</time>
      </trkpt>
      <trkpt lat="45.89062" lon="6.45824">
        <ele>1892.49</ele>
        <time>2021-03-24T10:35:51Z</time>
      </trkpt>
      <trkpt lat="45.89063" lon="6.45834">
        <ele>1894.9</ele>
        <time>2021-03-24T10:36:06Z</time>
      </trkpt>
      <trkpt lat="45.89065" lon="6.45845">
        <ele>1896.82</ele>
        <time>2021-03-24T10:36:22Z</time>
      </trkpt>
      <trkpt lat="45.89065" lon="6.45858">
        <ele>1898.26</ele>
        <time>2021-03-24T10:36:37Z</time>
      </trkpt>
      <trkpt lat="45.89066" lon="6.45873">
        <ele>1900.18</ele>
        <time>2021-03-24T10:36:54Z</time>
      </trkpt>
      <trkpt lat="45.89067" lon="6.45887">
        <ele>1902.59</ele>
        <time>2021-03-24T10:37:09Z</time>
      </trkpt>
      <trkpt lat="45.89064" lon="6.45901">
        <ele>1904.03</ele>
        <time>2021-03-24T10:37:24Z</time>
      </trkpt>
      <trkpt lat="45.89062" lon="6.45915">
        <ele>1905.47</ele>
        <time>2021-03-24T10:37:38Z</time>
      </trkpt>
      <trkpt lat="45.89058" lon="6.45931">
        <ele>1906.91</ele>
        <time>2021-03-24T10:37:53Z</time>
      </trkpt>
      <trkpt lat="45.89055" lon="6.45946">
        <ele>1909.32</ele>
        <time>2021-03-24T10:38:10Z</time>
      </trkpt>
      <trkpt lat="45.89053" lon="6.45959">
        <ele>1910.76</ele>
        <time>2021-03-24T10:38:24Z</time>
      </trkpt>
      <trkpt lat="45.8905" lon="6.45967">
        <ele>1911.72</ele>
        <time>2021-03-24T10:38:31Z</time>
      </trkpt>
      <trkpt lat="45.89047" lon="6.45981">
        <ele>1913.64</ele>
        <time>2021-03-24T10:38:48Z</time>
      </trkpt>
      <trkpt lat="45.89044" lon="6.45994">
        <ele>1916.53</ele>
        <time>2021-03-24T10:39:04Z</time>
      </trkpt>
      <trkpt lat="45.89041" lon="6.46005">
        <ele>1918.45</ele>
        <time>2021-03-24T10:39:19Z</time>
      </trkpt>
      <trkpt lat="45.89039" lon="6.4601">
        <ele>1919.89</ele>
        <time>2021-03-24T10:39:38Z</time>
      </trkpt>
      <trkpt lat="45.89038" lon="6.46013">
        <ele>1919.89</ele>
        <time>2021-03-24T10:40:01Z</time>
      </trkpt>
      <trkpt lat="45.89038" lon="6.46013">
        <ele>1920.37</ele>
        <time>2021-03-24T10:40:30Z</time>
      </trkpt>
      <trkpt lat="45.89037" lon="6.46015">
        <ele>1920.37</ele>
        <time>2021-03-24T10:40:54Z</time>
      </trkpt>
      <trkpt lat="45.89036" lon="6.46016">
        <ele>1920.37</ele>
        <time>2021-03-24T10:41:21Z</time>
      </trkpt>
      <trkpt lat="45.89038" lon="6.46013">
        <ele>1920.37</ele>
        <time>2021-03-24T10:41:43Z</time>
      </trkpt>
      <trkpt lat="45.89038" lon="6.46013">
        <ele>1920.37</ele>
        <time>2021-03-24T10:42:07Z</time>
      </trkpt>
      <trkpt lat="45.89039" lon="6.46011">
        <ele>1920.37</ele>
        <time>2021-03-24T10:42:29Z</time>
      </trkpt>
      <trkpt lat="45.89039" lon="6.46013">
        <ele>1920.37</ele>
        <time>2021-03-24T10:42:55Z</time>
      </trkpt>
      <trkpt lat="45.89038" lon="6.46013">
        <ele>1920.37</ele>
        <time>2021-03-24T10:43:15Z</time>
      </trkpt>
      <trkpt lat="45.89038" lon="6.46014">
        <ele>1920.37</ele>
        <time>2021-03-24T10:43:34Z</time>
      </trkpt>
      <trkpt lat="45.89038" lon="6.46017">
        <ele>1920.37</ele>
        <time>2021-03-24T10:44:04Z</time>
      </trkpt>
      <trkpt lat="45.8904" lon="6.46019">
        <ele>1921.33</ele>
        <time>2021-03-24T10:44:18Z</time>
      </trkpt>
      <trkpt lat="45.8904" lon="6.46028">
        <ele>1923.25</ele>
        <time>2021-03-24T10:44:33Z</time>
      </trkpt>
      <trkpt lat="45.89039" lon="6.46036">
        <ele>1926.14</ele>
        <time>2021-03-24T10:44:49Z</time>
      </trkpt>
      <trkpt lat="45.89036" lon="6.46045">
        <ele>1929.02</ele>
        <time>2021-03-24T10:45:06Z</time>
      </trkpt>
      <trkpt lat="45.89031" lon="6.46052">
        <ele>1930.95</ele>
        <time>2021-03-24T10:45:20Z</time>
      </trkpt>
      <trkpt lat="45.89025" lon="6.46058">
        <ele>1933.83</ele>
        <time>2021-03-24T10:45:39Z</time>
      </trkpt>
      <trkpt lat="45.89028" lon="6.46066">
        <ele>1935.27</ele>
        <time>2021-03-24T10:45:54Z</time>
      </trkpt>
      <trkpt lat="45.89031" lon="6.46076">
        <ele>1937.67</ele>
        <time>2021-03-24T10:46:10Z</time>
      </trkpt>
      <trkpt lat="45.89035" lon="6.46082">
        <ele>1940.08</ele>
        <time>2021-03-24T10:46:25Z</time>
      </trkpt>
      <trkpt lat="45.89036" lon="6.46085">
        <ele>1941.52</ele>
        <time>2021-03-24T10:46:38Z</time>
      </trkpt>
      <trkpt lat="45.89031" lon="6.46088">
        <ele>1943.44</ele>
        <time>2021-03-24T10:46:52Z</time>
      </trkpt>
      <trkpt lat="45.89027" lon="6.46092">
        <ele>1944.88</ele>
        <time>2021-03-24T10:47:06Z</time>
      </trkpt>
      <trkpt lat="45.89021" lon="6.46095">
        <ele>1946.81</ele>
        <time>2021-03-24T10:47:18Z</time>
      </trkpt>
      <trkpt lat="45.89018" lon="6.461">
        <ele>1948.25</ele>
        <time>2021-03-24T10:47:36Z</time>
      </trkpt>
      <trkpt lat="45.89024" lon="6.46109">
        <ele>1950.65</ele>
        <time>2021-03-24T10:47:53Z</time>
      </trkpt>
      <trkpt lat="45.89029" lon="6.46118">
        <ele>1953.06</ele>
        <time>2021-03-24T10:48:09Z</time>
      </trkpt>
      <trkpt lat="45.89035" lon="6.46128">
        <ele>1954.98</ele>
        <time>2021-03-24T10:48:26Z</time>
      </trkpt>
      <trkpt lat="45.89039" lon="6.46134">
        <ele>1957.38</ele>
        <time>2021-03-24T10:48:41Z</time>
      </trkpt>
      <trkpt lat="45.89035" lon="6.46137">
        <ele>1958.34</ele>
        <time>2021-03-24T10:48:55Z</time>
      </trkpt>
      <trkpt lat="45.89029" lon="6.4614">
        <ele>1960.75</ele>
        <time>2021-03-24T10:49:10Z</time>
      </trkpt>
      <trkpt lat="45.89023" lon="6.46146">
        <ele>1962.67</ele>
        <time>2021-03-24T10:49:26Z</time>
      </trkpt>
      <trkpt lat="45.89018" lon="6.46147">
        <ele>1963.63</ele>
        <time>2021-03-24T10:49:37Z</time>
      </trkpt>
      <trkpt lat="45.89011" lon="6.46151">
        <ele>1965.55</ele>
        <time>2021-03-24T10:49:53Z</time>
      </trkpt>
      <trkpt lat="45.89003" lon="6.46154">
        <ele>1969.4</ele>
        <time>2021-03-24T10:50:14Z</time>
      </trkpt>
      <trkpt lat="45.88996" lon="6.46159">
        <ele>1971.32</ele>
        <time>2021-03-24T10:50:29Z</time>
      </trkpt>
      <trkpt lat="45.88991" lon="6.46163">
        <ele>1973.24</ele>
        <time>2021-03-24T10:50:42Z</time>
      </trkpt>
      <trkpt lat="45.88984" lon="6.46167">
        <ele>1975.65</ele>
        <time>2021-03-24T10:50:59Z</time>
      </trkpt>
      <trkpt lat="45.88979" lon="6.46172">
        <ele>1978.05</ele>
        <time>2021-03-24T10:51:16Z</time>
      </trkpt>
      <trkpt lat="45.88974" lon="6.46175">
        <ele>1979.97</ele>
        <time>2021-03-24T10:51:28Z</time>
      </trkpt>
      <trkpt lat="45.88971" lon="6.46178">
        <ele>1982.38</ele>
        <time>2021-03-24T10:51:44Z</time>
      </trkpt>
      <trkpt lat="45.88965" lon="6.46182">
        <ele>1984.3</ele>
        <time>2021-03-24T10:51:59Z</time>
      </trkpt>
      <trkpt lat="45.88961" lon="6.46187">
        <ele>1986.22</ele>
        <time>2021-03-24T10:52:13Z</time>
      </trkpt>
      <trkpt lat="45.88956" lon="6.46191">
        <ele>1988.14</ele>
        <time>2021-03-24T10:52:26Z</time>
      </trkpt>
      <trkpt lat="45.88954" lon="6.46193">
        <ele>1988.62</ele>
        <time>2021-03-24T10:52:46Z</time>
      </trkpt>
      <trkpt lat="45.88949" lon="6.46197">
        <ele>1991.03</ele>
        <time>2021-03-24T10:53:01Z</time>
      </trkpt>
      <trkpt lat="45.88953" lon="6.462">
        <ele>1991.99</ele>
        <time>2021-03-24T10:53:14Z</time>
      </trkpt>
      <trkpt lat="45.88958" lon="6.46208">
        <ele>1994.39</ele>
        <time>2021-03-24T10:53:30Z</time>
      </trkpt>
      <trkpt lat="45.88961" lon="6.46215">
        <ele>1995.83</ele>
        <time>2021-03-24T10:53:41Z</time>
      </trkpt>
      <trkpt lat="45.88966" lon="6.46224">
        <ele>1997.76</ele>
        <time>2021-03-24T10:53:57Z</time>
      </trkpt>
      <trkpt lat="45.88969" lon="6.46232">
        <ele>1999.68</ele>
        <time>2021-03-24T10:54:13Z</time>
      </trkpt>
      <trkpt lat="45.88972" lon="6.4624">
        <ele>2001.6</ele>
        <time>2021-03-24T10:54:26Z</time>
      </trkpt>
      <trkpt lat="45.88977" lon="6.46248">
        <ele>2003.52</ele>
        <time>2021-03-24T10:54:42Z</time>
      </trkpt>
      <trkpt lat="45.88979" lon="6.46251">
        <ele>2004.49</ele>
        <time>2021-03-24T10:55:04Z</time>
      </trkpt>
      <trkpt lat="45.88979" lon="6.46252">
        <ele>2004.49</ele>
        <time>2021-03-24T10:55:27Z</time>
      </trkpt>
      <trkpt lat="45.88979" lon="6.4625">
        <ele>2004.49</ele>
        <time>2021-03-24T10:55:54Z</time>
      </trkpt>
      <trkpt lat="45.88982" lon="6.46255">
        <ele>2004.97</ele>
        <time>2021-03-24T10:56:21Z</time>
      </trkpt>
      <trkpt lat="45.88987" lon="6.46266">
        <ele>2007.37</ele>
        <time>2021-03-24T10:56:37Z</time>
      </trkpt>
      <trkpt lat="45.88991" lon="6.46273">
        <ele>2008.81</ele>
        <time>2021-03-24T10:56:49Z</time>
      </trkpt>
      <trkpt lat="45.88995" lon="6.46282">
        <ele>2011.22</ele>
        <time>2021-03-24T10:57:03Z</time>
      </trkpt>
      <trkpt lat="45.88999" lon="6.46291">
        <ele>2013.62</ele>
        <time>2021-03-24T10:57:18Z</time>
      </trkpt>
      <trkpt lat="45.89002" lon="6.46298">
        <ele>2015.54</ele>
        <time>2021-03-24T10:57:33Z</time>
      </trkpt>
      <trkpt lat="45.89006" lon="6.46307">
        <ele>2017.46</ele>
        <time>2021-03-24T10:57:48Z</time>
      </trkpt>
      <trkpt lat="45.89007" lon="6.4631">
        <ele>2018.91</ele>
        <time>2021-03-24T10:58:07Z</time>
      </trkpt>
      <trkpt lat="45.89006" lon="6.46312">
        <ele>2019.39</ele>
        <time>2021-03-24T10:58:30Z</time>
      </trkpt>
      <trkpt lat="45.89001" lon="6.46319">
        <ele>2020.83</ele>
        <time>2021-03-24T10:58:46Z</time>
      </trkpt>
      <trkpt lat="45.88997" lon="6.46323">
        <ele>2022.75</ele>
        <time>2021-03-24T10:58:58Z</time>
      </trkpt>
      <trkpt lat="45.88987" lon="6.4633">
        <ele>2024.67</ele>
        <time>2021-03-24T10:59:17Z</time>
      </trkpt>
      <trkpt lat="45.88981" lon="6.46335">
        <ele>2026.6</ele>
        <time>2021-03-24T10:59:33Z</time>
      </trkpt>
      <trkpt lat="45.88975" lon="6.46341">
        <ele>2028.04</ele>
        <time>2021-03-24T10:59:46Z</time>
      </trkpt>
      <trkpt lat="45.88969" lon="6.46346">
        <ele>2029.96</ele>
        <time>2021-03-24T11:00:02Z</time>
      </trkpt>
      <trkpt lat="45.88964" lon="6.46354">
        <ele>2032.36</ele>
        <time>2021-03-24T11:00:18Z</time>
      </trkpt>
      <trkpt lat="45.88965" lon="6.46354">
        <ele>2032.36</ele>
        <time>2021-03-24T11:00:43Z</time>
      </trkpt>
      <trkpt lat="45.88962" lon="6.46359">
        <ele>2033.81</ele>
        <time>2021-03-24T11:01:04Z</time>
      </trkpt>
      <trkpt lat="45.88958" lon="6.46366">
        <ele>2035.73</ele>
        <time>2021-03-24T11:01:17Z</time>
      </trkpt>
      <trkpt lat="45.88952" lon="6.4637">
        <ele>2037.65</ele>
        <time>2021-03-24T11:01:32Z</time>
      </trkpt>
      <trkpt lat="45.88953" lon="6.46377">
        <ele>2039.57</ele>
        <time>2021-03-24T11:01:45Z</time>
      </trkpt>
      <trkpt lat="45.88958" lon="6.46384">
        <ele>2041.98</ele>
        <time>2021-03-24T11:02:01Z</time>
      </trkpt>
      <trkpt lat="45.88963" lon="6.46391">
        <ele>2043.9</ele>
        <time>2021-03-24T11:02:15Z</time>
      </trkpt>
      <trkpt lat="45.88968" lon="6.46399">
        <ele>2046.3</ele>
        <time>2021-03-24T11:02:30Z</time>
      </trkpt>
      <trkpt lat="45.88974" lon="6.46408">
        <ele>2048.71</ele>
        <time>2021-03-24T11:02:48Z</time>
      </trkpt>
      <trkpt lat="45.88979" lon="6.46417">
        <ele>2051.11</ele>
        <time>2021-03-24T11:03:05Z</time>
      </trkpt>
      <trkpt lat="45.88984" lon="6.46424">
        <ele>2052.55</ele>
        <time>2021-03-24T11:03:19Z</time>
      </trkpt>
      <trkpt lat="45.88988" lon="6.46433">
        <ele>2055.44</ele>
        <time>2021-03-24T11:03:36Z</time>
      </trkpt>
      <trkpt lat="45.88996" lon="6.46441">
        <ele>2057.36</ele>
        <time>2021-03-24T11:03:52Z</time>
      </trkpt>
      <trkpt lat="45.89002" lon="6.46448">
        <ele>2059.28</ele>
        <time>2021-03-24T11:04:07Z</time>
      </trkpt>
      <trkpt lat="45.89008" lon="6.46455">
        <ele>2061.68</ele>
        <time>2021-03-24T11:04:25Z</time>
      </trkpt>
      <trkpt lat="45.89013" lon="6.46461">
        <ele>2064.09</ele>
        <time>2021-03-24T11:04:40Z</time>
      </trkpt>
      <trkpt lat="45.89015" lon="6.46465">
        <ele>2065.53</ele>
        <time>2021-03-24T11:04:56Z</time>
      </trkpt>
      <trkpt lat="45.89014" lon="6.4647">
        <ele>2066.01</ele>
        <time>2021-03-24T11:05:12Z</time>
      </trkpt>
      <trkpt lat="45.89007" lon="6.46474">
        <ele>2067.93</ele>
        <time>2021-03-24T11:05:30Z</time>
      </trkpt>
      <trkpt lat="45.89001" lon="6.46477">
        <ele>2069.38</ele>
        <time>2021-03-24T11:05:44Z</time>
      </trkpt>
      <trkpt lat="45.88996" lon="6.46481">
        <ele>2071.3</ele>
        <time>2021-03-24T11:05:57Z</time>
      </trkpt>
      <trkpt lat="45.88991" lon="6.46484">
        <ele>2073.22</ele>
        <time>2021-03-24T11:06:11Z</time>
      </trkpt>
      <trkpt lat="45.88985" lon="6.46486">
        <ele>2075.14</ele>
        <time>2021-03-24T11:06:25Z</time>
      </trkpt>
      <trkpt lat="45.88978" lon="6.46488">
        <ele>2076.59</ele>
        <time>2021-03-24T11:06:38Z</time>
      </trkpt>
      <trkpt lat="45.88969" lon="6.46488">
        <ele>2078.51</ele>
        <time>2021-03-24T11:06:56Z</time>
      </trkpt>
      <trkpt lat="45.88961" lon="6.46489">
        <ele>2080.91</ele>
        <time>2021-03-24T11:07:13Z</time>
      </trkpt>
      <trkpt lat="45.88956" lon="6.4649">
        <ele>2082.35</ele>
        <time>2021-03-24T11:07:26Z</time>
      </trkpt>
      <trkpt lat="45.88951" lon="6.4649">
        <ele>2084.28</ele>
        <time>2021-03-24T11:07:39Z</time>
      </trkpt>
      <trkpt lat="45.88944" lon="6.46489">
        <ele>2086.2</ele>
        <time>2021-03-24T11:07:54Z</time>
      </trkpt>
      <trkpt lat="45.88937" lon="6.46488">
        <ele>2088.12</ele>
        <time>2021-03-24T11:08:12Z</time>
      </trkpt>
      <trkpt lat="45.88936" lon="6.46485">
        <ele>2089.08</ele>
        <time>2021-03-24T11:08:37Z</time>
      </trkpt>
      <trkpt lat="45.88931" lon="6.46487">
        <ele>2090.52</ele>
        <time>2021-03-24T11:08:53Z</time>
      </trkpt>
      <trkpt lat="45.88922" lon="6.46486">
        <ele>2091.97</ele>
        <time>2021-03-24T11:09:10Z</time>
      </trkpt>
      <trkpt lat="45.88913" lon="6.46483">
        <ele>2093.89</ele>
        <time>2021-03-24T11:09:26Z</time>
      </trkpt>
      <trkpt lat="45.88907" lon="6.46481">
        <ele>2095.33</ele>
        <time>2021-03-24T11:09:38Z</time>
      </trkpt>
      <trkpt lat="45.88898" lon="6.46478">
        <ele>2097.25</ele>
        <time>2021-03-24T11:09:56Z</time>
      </trkpt>
      <trkpt lat="45.88891" lon="6.46477">
        <ele>2098.7</ele>
        <time>2021-03-24T11:10:10Z</time>
      </trkpt>
      <trkpt lat="45.88884" lon="6.46477">
        <ele>2101.1</ele>
        <time>2021-03-24T11:10:30Z</time>
      </trkpt>
      <trkpt lat="45.88877" lon="6.46478">
        <ele>2103.02</ele>
        <time>2021-03-24T11:10:48Z</time>
      </trkpt>
      <trkpt lat="45.88875" lon="6.46477">
        <ele>2103.02</ele>
        <time>2021-03-24T11:11:09Z</time>
      </trkpt>
      <trkpt lat="45.88873" lon="6.46479">
        <ele>2103.5</ele>
        <time>2021-03-24T11:11:32Z</time>
      </trkpt>
      <trkpt lat="45.88865" lon="6.46483">
        <ele>2106.87</ele>
        <time>2021-03-24T11:11:52Z</time>
      </trkpt>
      <trkpt lat="45.88859" lon="6.46487">
        <ele>2109.27</ele>
        <time>2021-03-24T11:12:11Z</time>
      </trkpt>
      <trkpt lat="45.88853" lon="6.46491">
        <ele>2112.15</ele>
        <time>2021-03-24T11:12:30Z</time>
      </trkpt>
      <trkpt lat="45.88849" lon="6.46495">
        <ele>2114.08</ele>
        <time>2021-03-24T11:12:45Z</time>
      </trkpt>
      <trkpt lat="45.88847" lon="6.46494">
        <ele>2114.08</ele>
        <time>2021-03-24T11:13:09Z</time>
      </trkpt>
      <trkpt lat="45.88847" lon="6.46495">
        <ele>2114.08</ele>
        <time>2021-03-24T11:13:35Z</time>
      </trkpt>
      <trkpt lat="45.88848" lon="6.46496">
        <ele>2114.08</ele>
        <time>2021-03-24T11:13:56Z</time>
      </trkpt>
      <trkpt lat="45.88849" lon="6.46493">
        <ele>2114.08</ele>
        <time>2021-03-24T11:14:20Z</time>
      </trkpt>
      <trkpt lat="45.88848" lon="6.46494">
        <ele>2114.08</ele>
        <time>2021-03-24T11:14:49Z</time>
      </trkpt>
      <trkpt lat="45.88847" lon="6.46493">
        <ele>2114.08</ele>
        <time>2021-03-24T11:15:08Z</time>
      </trkpt>
      <trkpt lat="45.88848" lon="6.46494">
        <ele>2114.08</ele>
        <time>2021-03-24T11:15:21Z</time>
      </trkpt>
      <trkpt lat="45.88848" lon="6.46494">
        <ele>2114.08</ele>
        <time>2021-03-24T11:15:43Z</time>
      </trkpt>
      <trkpt lat="45.88849" lon="6.46498">
        <ele>2115.04</ele>
        <time>2021-03-24T11:15:58Z</time>
      </trkpt>
      <trkpt lat="45.88852" lon="6.46505">
        <ele>2116.96</ele>
        <time>2021-03-24T11:16:14Z</time>
      </trkpt>
      <trkpt lat="45.88854" lon="6.46513">
        <ele>2119.36</ele>
        <time>2021-03-24T11:16:31Z</time>
      </trkpt>
      <trkpt lat="45.88857" lon="6.46523">
        <ele>2121.29</ele>
        <time>2021-03-24T11:16:47Z</time>
      </trkpt>
      <trkpt lat="45.88858" lon="6.46531">
        <ele>2123.21</ele>
        <time>2021-03-24T11:17:03Z</time>
      </trkpt>
      <trkpt lat="45.88861" lon="6.46542">
        <ele>2126.09</ele>
        <time>2021-03-24T11:17:24Z</time>
      </trkpt>
      <trkpt lat="45.88862" lon="6.46553">
        <ele>2128.98</ele>
        <time>2021-03-24T11:17:41Z</time>
      </trkpt>
      <trkpt lat="45.88865" lon="6.46562">
        <ele>2129.94</ele>
        <time>2021-03-24T11:17:55Z</time>
      </trkpt>
      <trkpt lat="45.88867" lon="6.46571">
        <ele>2131.86</ele>
        <time>2021-03-24T11:18:10Z</time>
      </trkpt>
      <trkpt lat="45.8887" lon="6.46581">
        <ele>2133.78</ele>
        <time>2021-03-24T11:18:26Z</time>
      </trkpt>
      <trkpt lat="45.88872" lon="6.46591">
        <ele>2135.71</ele>
        <time>2021-03-24T11:18:44Z</time>
      </trkpt>
      <trkpt lat="45.88874" lon="6.466">
        <ele>2137.15</ele>
        <time>2021-03-24T11:19:01Z</time>
      </trkpt>
      <trkpt lat="45.88876" lon="6.46606">
        <ele>2139.07</ele>
        <time>2021-03-24T11:19:16Z</time>
      </trkpt>
      <trkpt lat="45.88877" lon="6.46615">
        <ele>2141.47</ele>
        <time>2021-03-24T11:19:33Z</time>
      </trkpt>
      <trkpt lat="45.88881" lon="6.46625">
        <ele>2142.92</ele>
        <time>2021-03-24T11:19:50Z</time>
      </trkpt>
      <trkpt lat="45.88882" lon="6.46636">
        <ele>2145.32</ele>
        <time>2021-03-24T11:20:06Z</time>
      </trkpt>
      <trkpt lat="45.88886" lon="6.46645">
        <ele>2147.24</ele>
        <time>2021-03-24T11:20:25Z</time>
      </trkpt>
      <trkpt lat="45.88887" lon="6.46652">
        <ele>2148.68</ele>
        <time>2021-03-24T11:20:40Z</time>
      </trkpt>
      <trkpt lat="45.88889" lon="6.46659">
        <ele>2151.09</ele>
        <time>2021-03-24T11:20:56Z</time>
      </trkpt>
      <trkpt lat="45.88891" lon="6.46666">
        <ele>2152.53</ele>
        <time>2021-03-24T11:21:11Z</time>
      </trkpt>
      <trkpt lat="45.88896" lon="6.46672">
        <ele>2153.97</ele>
        <time>2021-03-24T11:21:25Z</time>
      </trkpt>
      <trkpt lat="45.889" lon="6.46677">
        <ele>2154.93</ele>
        <time>2021-03-24T11:21:39Z</time>
      </trkpt>
      <trkpt lat="45.88903" lon="6.46683">
        <ele>2156.37</ele>
        <time>2021-03-24T11:21:55Z</time>
      </trkpt>
      <trkpt lat="45.88908" lon="6.46688">
        <ele>2157.34</ele>
        <time>2021-03-24T11:22:08Z</time>
      </trkpt>
      <trkpt lat="45.88912" lon="6.46694">
        <ele>2159.74</ele>
        <time>2021-03-24T11:22:25Z</time>
      </trkpt>
      <trkpt lat="45.88917" lon="6.467">
        <ele>2161.18</ele>
        <time>2021-03-24T11:22:39Z</time>
      </trkpt>
      <trkpt lat="45.88917" lon="6.46706">
        <ele>2163.1</ele>
        <time>2021-03-24T11:22:52Z</time>
      </trkpt>
      <trkpt lat="45.88916" lon="6.46711">
        <ele>2165.51</ele>
        <time>2021-03-24T11:23:07Z</time>
      </trkpt>
      <trkpt lat="45.88916" lon="6.46713">
        <ele>2165.51</ele>
        <time>2021-03-24T11:23:26Z</time>
      </trkpt>
      <trkpt lat="45.88915" lon="6.46713">
        <ele>2165.51</ele>
        <time>2021-03-24T11:23:54Z</time>
      </trkpt>
      <trkpt lat="45.88916" lon="6.46711">
        <ele>2165.51</ele>
        <time>2021-03-24T11:24:22Z</time>
      </trkpt>
      <trkpt lat="45.88917" lon="6.46711">
        <ele>2165.51</ele>
        <time>2021-03-24T11:24:46Z</time>
      </trkpt>
      <trkpt lat="45.88916" lon="6.46711">
        <ele>2165.51</ele>
        <time>2021-03-24T11:25:03Z</time>
      </trkpt>
      <trkpt lat="45.88916" lon="6.46709">
        <ele>2165.51</ele>
        <time>2021-03-24T11:25:19Z</time>
      </trkpt>
      <trkpt lat="45.88923" lon="6.46717">
        <ele>2167.91</ele>
        <time>2021-03-24T11:25:39Z</time>
      </trkpt>
      <trkpt lat="45.88929" lon="6.46727">
        <ele>2169.83</ele>
        <time>2021-03-24T11:25:55Z</time>
      </trkpt>
      <trkpt lat="45.88928" lon="6.46738">
        <ele>2172.72</ele>
        <time>2021-03-24T11:26:10Z</time>
      </trkpt>
      <trkpt lat="45.88922" lon="6.46744">
        <ele>2174.64</ele>
        <time>2021-03-24T11:26:26Z</time>
      </trkpt>
      <trkpt lat="45.88926" lon="6.4675">
        <ele>2176.56</ele>
        <time>2021-03-24T11:26:38Z</time>
      </trkpt>
      <trkpt lat="45.88932" lon="6.46758">
        <ele>2178.48</ele>
        <time>2021-03-24T11:26:55Z</time>
      </trkpt>
      <trkpt lat="45.88935" lon="6.46766">
        <ele>2180.89</ele>
        <time>2021-03-24T11:27:14Z</time>
      </trkpt>
      <trkpt lat="45.88938" lon="6.46772">
        <ele>2182.33</ele>
        <time>2021-03-24T11:27:27Z</time>
      </trkpt>
      <trkpt lat="45.88941" lon="6.46778">
        <ele>2184.73</ele>
        <time>2021-03-24T11:27:42Z</time>
      </trkpt>
      <trkpt lat="45.88945" lon="6.46785">
        <ele>2186.18</ele>
        <time>2021-03-24T11:27:56Z</time>
      </trkpt>
      <trkpt lat="45.88943" lon="6.46795">
        <ele>2188.58</ele>
        <time>2021-03-24T11:28:12Z</time>
      </trkpt>
      <trkpt lat="45.88949" lon="6.46806">
        <ele>2191.46</ele>
        <time>2021-03-24T11:28:34Z</time>
      </trkpt>
      <trkpt lat="45.88953" lon="6.46813">
        <ele>2192.9</ele>
        <time>2021-03-24T11:28:47Z</time>
      </trkpt>
      <trkpt lat="45.8895" lon="6.4682">
        <ele>2194.35</ele>
        <time>2021-03-24T11:29:02Z</time>
      </trkpt>
      <trkpt lat="45.88946" lon="6.46828">
        <ele>2196.27</ele>
        <time>2021-03-24T11:29:20Z</time>
      </trkpt>
      <trkpt lat="45.88942" lon="6.46836">
        <ele>2198.67</ele>
        <time>2021-03-24T11:29:36Z</time>
      </trkpt>
      <trkpt lat="45.88934" lon="6.46842">
        <ele>2201.08</ele>
        <time>2021-03-24T11:29:58Z</time>
      </trkpt>
      <trkpt lat="45.8893" lon="6.46845">
        <ele>2202.04</ele>
        <time>2021-03-24T11:30:10Z</time>
      </trkpt>
      <trkpt lat="45.88924" lon="6.46847">
        <ele>2203.96</ele>
        <time>2021-03-24T11:30:25Z</time>
      </trkpt>
      <trkpt lat="45.88921" lon="6.46848">
        <ele>2204.92</ele>
        <time>2021-03-24T11:30:44Z</time>
      </trkpt>
      <trkpt lat="45.88916" lon="6.46851">
        <ele>2206.36</ele>
        <time>2021-03-24T11:30:57Z</time>
      </trkpt>
      <trkpt lat="45.88908" lon="6.46853">
        <ele>2208.77</ele>
        <time>2021-03-24T11:31:16Z</time>
      </trkpt>
      <trkpt lat="45.88902" lon="6.46855">
        <ele>2210.69</ele>
        <time>2021-03-24T11:31:31Z</time>
      </trkpt>
      <trkpt lat="45.88897" lon="6.46857">
        <ele>2211.65</ele>
        <time>2021-03-24T11:31:48Z</time>
      </trkpt>
      <trkpt lat="45.88892" lon="6.46859">
        <ele>2214.05</ele>
        <time>2021-03-24T11:32:03Z</time>
      </trkpt>
      <trkpt lat="45.88886" lon="6.46862">
        <ele>2215.98</ele>
        <time>2021-03-24T11:32:16Z</time>
      </trkpt>
      <trkpt lat="45.88881" lon="6.46863">
        <ele>2217.9</ele>
        <time>2021-03-24T11:32:33Z</time>
      </trkpt>
      <trkpt lat="45.88879" lon="6.46866">
        <ele>2219.34</ele>
        <time>2021-03-24T11:32:48Z</time>
      </trkpt>
      <trkpt lat="45.88884" lon="6.46874">
        <ele>2220.78</ele>
        <time>2021-03-24T11:33:06Z</time>
      </trkpt>
      <trkpt lat="45.88886" lon="6.46876">
        <ele>2221.74</ele>
        <time>2021-03-24T11:33:24Z</time>
      </trkpt>
      <trkpt lat="45.88888" lon="6.46878">
        <ele>2221.74</ele>
        <time>2021-03-24T11:33:56Z</time>
      </trkpt>
      <trkpt lat="45.88889" lon="6.46886">
        <ele>2223.67</ele>
        <time>2021-03-24T11:34:11Z</time>
      </trkpt>
      <trkpt lat="45.88894" lon="6.46896">
        <ele>2226.07</ele>
        <time>2021-03-24T11:34:27Z</time>
      </trkpt>
      <trkpt lat="45.88901" lon="6.46905">
        <ele>2227.99</ele>
        <time>2021-03-24T11:34:42Z</time>
      </trkpt>
      <trkpt lat="45.88907" lon="6.46918">
        <ele>2229.92</ele>
        <time>2021-03-24T11:35:01Z</time>
      </trkpt>
      <trkpt lat="45.88908" lon="6.4692">
        <ele>2230.4</ele>
        <time>2021-03-24T11:35:23Z</time>
      </trkpt>
      <trkpt lat="45.8891" lon="6.46922">
        <ele>2231.36</ele>
        <time>2021-03-24T11:35:42Z</time>
      </trkpt>
      <trkpt lat="45.88901" lon="6.46926">
        <ele>2233.76</ele>
        <time>2021-03-24T11:36:00Z</time>
      </trkpt>
      <trkpt lat="45.88895" lon="6.46928">
        <ele>2236.16</ele>
        <time>2021-03-24T11:36:17Z</time>
      </trkpt>
      <trkpt lat="45.88889" lon="6.4693">
        <ele>2237.61</ele>
        <time>2021-03-24T11:36:35Z</time>
      </trkpt>
      <trkpt lat="45.88882" lon="6.46932">
        <ele>2240.49</ele>
        <time>2021-03-24T11:36:52Z</time>
      </trkpt>
      <trkpt lat="45.88876" lon="6.46933">
        <ele>2242.41</ele>
        <time>2021-03-24T11:37:09Z</time>
      </trkpt>
      <trkpt lat="45.88871" lon="6.46932">
        <ele>2243.85</ele>
        <time>2021-03-24T11:37:25Z</time>
      </trkpt>
      <trkpt lat="45.88868" lon="6.46933">
        <ele>2243.37</ele>
        <time>2021-03-24T11:37:51Z</time>
      </trkpt>
      <trkpt lat="45.88869" lon="6.46937">
        <ele>2245.78</ele>
        <time>2021-03-24T11:38:06Z</time>
      </trkpt>
      <trkpt lat="45.88872" lon="6.46946">
        <ele>2247.7</ele>
        <time>2021-03-24T11:38:21Z</time>
      </trkpt>
      <trkpt lat="45.88874" lon="6.46954">
        <ele>2249.62</ele>
        <time>2021-03-24T11:38:36Z</time>
      </trkpt>
      <trkpt lat="45.88876" lon="6.46957">
        <ele>2250.58</ele>
        <time>2021-03-24T11:38:51Z</time>
      </trkpt>
      <trkpt lat="45.88875" lon="6.46959">
        <ele>2250.58</ele>
        <time>2021-03-24T11:39:15Z</time>
      </trkpt>
      <trkpt lat="45.88875" lon="6.4696">
        <ele>2251.06</ele>
        <time>2021-03-24T11:39:33Z</time>
      </trkpt>
      <trkpt lat="45.88874" lon="6.4696">
        <ele>2251.06</ele>
        <time>2021-03-24T11:39:53Z</time>
      </trkpt>
      <trkpt lat="45.88873" lon="6.4696">
        <ele>2251.06</ele>
        <time>2021-03-24T11:40:11Z</time>
      </trkpt>
      <trkpt lat="45.88873" lon="6.46961">
        <ele>2251.06</ele>
        <time>2021-03-24T11:40:43Z</time>
      </trkpt>
      <trkpt lat="45.88873" lon="6.46961">
        <ele>2251.06</ele>
        <time>2021-03-24T11:41:06Z</time>
      </trkpt>
      <trkpt lat="45.88873" lon="6.46961">
        <ele>2251.06</ele>
        <time>2021-03-24T11:41:28Z</time>
      </trkpt>
      <trkpt lat="45.88874" lon="6.46961">
        <ele>2251.06</ele>
        <time>2021-03-24T11:41:47Z</time>
      </trkpt>
      <trkpt lat="45.88873" lon="6.46962">
        <ele>2251.06</ele>
        <time>2021-03-24T11:42:09Z</time>
      </trkpt>
      <trkpt lat="45.88871" lon="6.46964">
        <ele>2251.06</ele>
        <time>2021-03-24T11:42:38Z</time>
      </trkpt>
      <trkpt lat="45.88872" lon="6.46976">
        <ele>2252.03</ele>
        <time>2021-03-24T11:42:53Z</time>
      </trkpt>
      <trkpt lat="45.88875" lon="6.46972">
        <ele>2252.51</ele>
        <time>2021-03-24T11:43:19Z</time>
      </trkpt>
      <trkpt lat="45.88874" lon="6.46975">
        <ele>2252.51</ele>
        <time>2021-03-24T11:43:45Z</time>
      </trkpt>
      <trkpt lat="45.88873" lon="6.4699">
        <ele>2253.47</ele>
        <time>2021-03-24T11:44:00Z</time>
      </trkpt>
      <trkpt lat="45.88872" lon="6.47002">
        <ele>2255.39</ele>
        <time>2021-03-24T11:44:14Z</time>
      </trkpt>
      <trkpt lat="45.88869" lon="6.47013">
        <ele>2256.83</ele>
        <time>2021-03-24T11:44:30Z</time>
      </trkpt>
      <trkpt lat="45.88868" lon="6.4702">
        <ele>2258.75</ele>
        <time>2021-03-24T11:44:44Z</time>
      </trkpt>
      <trkpt lat="45.88867" lon="6.47031">
        <ele>2260.68</ele>
        <time>2021-03-24T11:45:02Z</time>
      </trkpt>
      <trkpt lat="45.8887" lon="6.47039">
        <ele>2263.08</ele>
        <time>2021-03-24T11:45:18Z</time>
      </trkpt>
      <trkpt lat="45.88867" lon="6.47049">
        <ele>2264.52</ele>
        <time>2021-03-24T11:45:34Z</time>
      </trkpt>
      <trkpt lat="45.88864" lon="6.47058">
        <ele>2265.48</ele>
        <time>2021-03-24T11:45:48Z</time>
      </trkpt>
      <trkpt lat="45.88865" lon="6.47068">
        <ele>2267.41</ele>
        <time>2021-03-24T11:46:04Z</time>
      </trkpt>
      <trkpt lat="45.88866" lon="6.47077">
        <ele>2269.33</ele>
        <time>2021-03-24T11:46:20Z</time>
      </trkpt>
      <trkpt lat="45.88865" lon="6.47083">
        <ele>2271.25</ele>
        <time>2021-03-24T11:46:33Z</time>
      </trkpt>
      <trkpt lat="45.88866" lon="6.47088">
        <ele>2273.17</ele>
        <time>2021-03-24T11:46:48Z</time>
      </trkpt>
      <trkpt lat="45.88864" lon="6.47096">
        <ele>2274.14</ele>
        <time>2021-03-24T11:47:02Z</time>
      </trkpt>
      <trkpt lat="45.88866" lon="6.47105">
        <ele>2277.02</ele>
        <time>2021-03-24T11:47:19Z</time>
      </trkpt>
      <trkpt lat="45.88863" lon="6.47105">
        <ele>2276.54</ele>
        <time>2021-03-24T11:47:37Z</time>
      </trkpt>
      <trkpt lat="45.88863" lon="6.47109">
        <ele>2277.5</ele>
        <time>2021-03-24T11:48:02Z</time>
      </trkpt>
      <trkpt lat="45.88863" lon="6.47117">
        <ele>2279.42</ele>
        <time>2021-03-24T11:48:15Z</time>
      </trkpt>
      <trkpt lat="45.8886" lon="6.47124">
        <ele>2280.87</ele>
        <time>2021-03-24T11:48:31Z</time>
      </trkpt>
      <trkpt lat="45.88859" lon="6.47135">
        <ele>2282.79</ele>
        <time>2021-03-24T11:48:45Z</time>
      </trkpt>
      <trkpt lat="45.88857" lon="6.47141">
        <ele>2283.75</ele>
        <time>2021-03-24T11:48:59Z</time>
      </trkpt>
      <trkpt lat="45.88864" lon="6.47136">
        <ele>2285.67</ele>
        <time>2021-03-24T11:49:15Z</time>
      </trkpt>
      <trkpt lat="45.88874" lon="6.47134">
        <ele>2287.11</ele>
        <time>2021-03-24T11:49:33Z</time>
      </trkpt>
      <trkpt lat="45.88879" lon="6.47131">
        <ele>2289.52</ele>
        <time>2021-03-24T11:49:49Z</time>
      </trkpt>
      <trkpt lat="45.88882" lon="6.47129">
        <ele>2290.48</ele>
        <time>2021-03-24T11:50:04Z</time>
      </trkpt>
      <trkpt lat="45.88885" lon="6.47127">
        <ele>2291.44</ele>
        <time>2021-03-24T11:50:23Z</time>
      </trkpt>
      <trkpt lat="45.88887" lon="6.47125">
        <ele>2292.4</ele>
        <time>2021-03-24T11:50:44Z</time>
      </trkpt>
      <trkpt lat="45.88892" lon="6.4712">
        <ele>2293.84</ele>
        <time>2021-03-24T11:51:02Z</time>
      </trkpt>
      <trkpt lat="45.88898" lon="6.47116">
        <ele>2296.25</ele>
        <time>2021-03-24T11:51:18Z</time>
      </trkpt>
      <trkpt lat="45.88904" lon="6.47109">
        <ele>2298.17</ele>
        <time>2021-03-24T11:51:35Z</time>
      </trkpt>
      <trkpt lat="45.88906" lon="6.47109">
        <ele>2299.13</ele>
        <time>2021-03-24T11:51:48Z</time>
      </trkpt>
      <trkpt lat="45.88907" lon="6.47116">
        <ele>2299.61</ele>
        <time>2021-03-24T11:51:59Z</time>
      </trkpt>
      <trkpt lat="45.88907" lon="6.47122">
        <ele>2301.53</ele>
        <time>2021-03-24T11:52:10Z</time>
      </trkpt>
      <trkpt lat="45.88907" lon="6.47131">
        <ele>2303.46</ele>
        <time>2021-03-24T11:52:27Z</time>
      </trkpt>
      <trkpt lat="45.88908" lon="6.47134">
        <ele>2304.42</ele>
        <time>2021-03-24T11:52:41Z</time>
      </trkpt>
      <trkpt lat="45.88907" lon="6.47132">
        <ele>2304.9</ele>
        <time>2021-03-24T11:52:59Z</time>
      </trkpt>
      <trkpt lat="45.88907" lon="6.47131">
        <ele>2304.9</ele>
        <time>2021-03-24T11:53:23Z</time>
      </trkpt>
      <trkpt lat="45.88913" lon="6.47121">
        <ele>2307.3</ele>
        <time>2021-03-24T11:53:41Z</time>
      </trkpt>
      <trkpt lat="45.8892" lon="6.47114">
        <ele>2310.19</ele>
        <time>2021-03-24T11:54:01Z</time>
      </trkpt>
      <trkpt lat="45.88925" lon="6.47109">
        <ele>2312.11</ele>
        <time>2021-03-24T11:54:16Z</time>
      </trkpt>
      <trkpt lat="45.88928" lon="6.47107">
        <ele>2313.55</ele>
        <time>2021-03-24T11:54:38Z</time>
      </trkpt>
      <trkpt lat="45.8893" lon="6.47107">
        <ele>2314.51</ele>
        <time>2021-03-24T11:55:06Z</time>
      </trkpt>
      <trkpt lat="45.88933" lon="6.47106">
        <ele>2315.95</ele>
        <time>2021-03-24T11:55:23Z</time>
      </trkpt>
      <trkpt lat="45.88933" lon="6.47111">
        <ele>2316.43</ele>
        <time>2021-03-24T11:55:44Z</time>
      </trkpt>
      <trkpt lat="45.88933" lon="6.47114">
        <ele>2317.88</ele>
        <time>2021-03-24T11:56:01Z</time>
      </trkpt>
      <trkpt lat="45.88936" lon="6.47107">
        <ele>2319.8</ele>
        <time>2021-03-24T11:56:15Z</time>
      </trkpt>
      <trkpt lat="45.88943" lon="6.47109">
        <ele>2320.76</ele>
        <time>2021-03-24T11:56:30Z</time>
      </trkpt>
      <trkpt lat="45.88943" lon="6.47111">
        <ele>2321.24</ele>
        <time>2021-03-24T11:56:54Z</time>
      </trkpt>
      <trkpt lat="45.88942" lon="6.4711">
        <ele>2321.24</ele>
        <time>2021-03-24T11:57:19Z</time>
      </trkpt>
      <trkpt lat="45.88942" lon="6.4711">
        <ele>2321.24</ele>
        <time>2021-03-24T11:57:46Z</time>
      </trkpt>
      <trkpt lat="45.88942" lon="6.4711">
        <ele>2321.24</ele>
        <time>2021-03-24T11:58:06Z</time>
      </trkpt>
      <trkpt lat="45.88942" lon="6.47109">
        <ele>2321.24</ele>
        <time>2021-03-24T11:58:28Z</time>
      </trkpt>
      <trkpt lat="45.88942" lon="6.4711">
        <ele>2321.24</ele>
        <time>2021-03-24T11:58:54Z</time>
      </trkpt>
      <trkpt lat="45.88942" lon="6.47109">
        <ele>2321.24</ele>
        <time>2021-03-24T11:59:20Z</time>
      </trkpt>
      <trkpt lat="45.88941" lon="6.47111">
        <ele>2320.28</ele>
        <time>2021-03-24T11:59:46Z</time>
      </trkpt>
      <trkpt lat="45.88942" lon="6.47109">
        <ele>2320.28</ele>
        <time>2021-03-24T12:00:09Z</time>
      </trkpt>
      <trkpt lat="45.88941" lon="6.4711">
        <ele>2320.28</ele>
        <time>2021-03-24T12:00:35Z</time>
      </trkpt>
      <trkpt lat="45.88941" lon="6.47109">
        <ele>2320.76</ele>
        <time>2021-03-24T12:01:07Z</time>
      </trkpt>
      <trkpt lat="45.88941" lon="6.4711">
        <ele>2320.76</ele>
        <time>2021-03-24T12:01:32Z</time>
      </trkpt>
      <trkpt lat="45.88941" lon="6.47108">
        <ele>2320.76</ele>
        <time>2021-03-24T12:01:59Z</time>
      </trkpt>
      <trkpt lat="45.8894" lon="6.47109">
        <ele>2320.76</ele>
        <time>2021-03-24T12:02:22Z</time>
      </trkpt>
      <trkpt lat="45.88939" lon="6.47108">
        <ele>2320.76</ele>
        <time>2021-03-24T12:02:51Z</time>
      </trkpt>
      <trkpt lat="45.8894" lon="6.47109">
        <ele>2320.76</ele>
        <time>2021-03-24T12:03:16Z</time>
      </trkpt>
      <trkpt lat="45.88943" lon="6.47109">
        <ele>2321.24</ele>
        <time>2021-03-24T12:03:49Z</time>
      </trkpt>
      <trkpt lat="45.88942" lon="6.47105">
        <ele>2321.24</ele>
        <time>2021-03-24T12:04:19Z</time>
      </trkpt>
      <trkpt lat="45.88941" lon="6.47106">
        <ele>2321.24</ele>
        <time>2021-03-24T12:04:46Z</time>
      </trkpt>
      <trkpt lat="45.88941" lon="6.47108">
        <ele>2321.24</ele>
        <time>2021-03-24T12:05:11Z</time>
      </trkpt>
      <trkpt lat="45.88941" lon="6.47109">
        <ele>2321.24</ele>
        <time>2021-03-24T12:05:30Z</time>
      </trkpt>
      <trkpt lat="45.88942" lon="6.47108">
        <ele>2321.24</ele>
        <time>2021-03-24T12:05:50Z</time>
      </trkpt>
      <trkpt lat="45.88941" lon="6.47107">
        <ele>2321.24</ele>
        <time>2021-03-24T12:06:15Z</time>
      </trkpt>
      <trkpt lat="45.8894" lon="6.47108">
        <ele>2321.24</ele>
        <time>2021-03-24T12:06:36Z</time>
      </trkpt>
      <trkpt lat="45.8894" lon="6.47109">
        <ele>2321.24</ele>
        <time>2021-03-24T12:07:05Z</time>
      </trkpt>
      <trkpt lat="45.8894" lon="6.47109">
        <ele>2321.24</ele>
        <time>2021-03-24T12:07:31Z</time>
      </trkpt>
      <trkpt lat="45.8894" lon="6.47109">
        <ele>2321.24</ele>
        <time>2021-03-24T12:07:52Z</time>
      </trkpt>
      <trkpt lat="45.8894" lon="6.4711">
        <ele>2321.24</ele>
        <time>2021-03-24T12:08:20Z</time>
      </trkpt>
      <trkpt lat="45.88937" lon="6.47108">
        <ele>2321.72</ele>
        <time>2021-03-24T12:08:53Z</time>
      </trkpt>
      <trkpt lat="45.88939" lon="6.47109">
        <ele>2321.72</ele>
        <time>2021-03-24T12:09:21Z</time>
      </trkpt>
      <trkpt lat="45.8894" lon="6.47109">
        <ele>2321.72</ele>
        <time>2021-03-24T12:09:46Z</time>
      </trkpt>
      <trkpt lat="45.88941" lon="6.47109">
        <ele>2321.72</ele>
        <time>2021-03-24T12:10:19Z</time>
      </trkpt>
      <trkpt lat="45.88941" lon="6.47108">
        <ele>2321.72</ele>
        <time>2021-03-24T12:10:35Z</time>
      </trkpt>
      <trkpt lat="45.88941" lon="6.47108">
        <ele>2321.72</ele>
        <time>2021-03-24T12:10:58Z</time>
      </trkpt>
      <trkpt lat="45.88941" lon="6.47109">
        <ele>2321.72</ele>
        <time>2021-03-24T12:11:18Z</time>
      </trkpt>
      <trkpt lat="45.88941" lon="6.4711">
        <ele>2321.72</ele>
        <time>2021-03-24T12:11:36Z</time>
      </trkpt>
      <trkpt lat="45.8894" lon="6.4711">
        <ele>2321.72</ele>
        <time>2021-03-24T12:12:21Z</time>
      </trkpt>
      <trkpt lat="45.88943" lon="6.4711">
        <ele>2321.72</ele>
        <time>2021-03-24T12:12:55Z</time>
      </trkpt>
      <trkpt lat="45.88941" lon="6.47111">
        <ele>2321.72</ele>
        <time>2021-03-24T12:13:41Z</time>
      </trkpt>
      <trkpt lat="45.8894" lon="6.4711">
        <ele>2321.72</ele>
        <time>2021-03-24T12:14:12Z</time>
      </trkpt>
      <trkpt lat="45.8894" lon="6.47109">
        <ele>2321.72</ele>
        <time>2021-03-24T12:14:46Z</time>
      </trkpt>
      <trkpt lat="45.8894" lon="6.4711">
        <ele>2321.72</ele>
        <time>2021-03-24T12:15:23Z</time>
      </trkpt>
      <trkpt lat="45.8894" lon="6.47111">
        <ele>2321.72</ele>
        <time>2021-03-24T12:15:48Z</time>
      </trkpt>
      <trkpt lat="45.88942" lon="6.4711">
        <ele>2321.72</ele>
        <time>2021-03-24T12:16:15Z</time>
      </trkpt>
      <trkpt lat="45.88942" lon="6.4711">
        <ele>2321.72</ele>
        <time>2021-03-24T12:16:43Z</time>
      </trkpt>
      <trkpt lat="45.88942" lon="6.4711">
        <ele>2321.72</ele>
        <time>2021-03-24T12:17:14Z</time>
      </trkpt>
      <trkpt lat="45.88942" lon="6.47109">
        <ele>2321.72</ele>
        <time>2021-03-24T12:17:50Z</time>
      </trkpt>
      <trkpt lat="45.88942" lon="6.47109">
        <ele>2321.72</ele>
        <time>2021-03-24T12:18:29Z</time>
      </trkpt>
      <trkpt lat="45.88941" lon="6.47109">
        <ele>2321.72</ele>
        <time>2021-03-24T12:18:59Z</time>
      </trkpt>
      <trkpt lat="45.88942" lon="6.47109">
        <ele>2321.72</ele>
        <time>2021-03-24T12:19:16Z</time>
      </trkpt>
      <trkpt lat="45.88943" lon="6.47109">
        <ele>2321.72</ele>
        <time>2021-03-24T12:19:38Z</time>
      </trkpt>
      <trkpt lat="45.88943" lon="6.47109">
        <ele>2321.72</ele>
        <time>2021-03-24T12:20:00Z</time>
      </trkpt>
      <trkpt lat="45.88943" lon="6.4711">
        <ele>2321.72</ele>
        <time>2021-03-24T12:20:16Z</time>
      </trkpt>
      <trkpt lat="45.88943" lon="6.47108">
        <ele>2321.72</ele>
        <time>2021-03-24T12:20:41Z</time>
      </trkpt>
      <trkpt lat="45.88942" lon="6.47109">
        <ele>2322.2</ele>
        <time>2021-03-24T12:21:08Z</time>
      </trkpt>
      <trkpt lat="45.88942" lon="6.4711">
        <ele>2322.2</ele>
        <time>2021-03-24T12:21:28Z</time>
      </trkpt>
      <trkpt lat="45.88943" lon="6.47109">
        <ele>2322.2</ele>
        <time>2021-03-24T12:21:51Z</time>
      </trkpt>
      <trkpt lat="45.88943" lon="6.4711">
        <ele>2322.2</ele>
        <time>2021-03-24T12:22:17Z</time>
      </trkpt>
      <trkpt lat="45.88943" lon="6.47111">
        <ele>2322.2</ele>
        <time>2021-03-24T12:22:44Z</time>
      </trkpt>
      <trkpt lat="45.88944" lon="6.47112">
        <ele>2322.2</ele>
        <time>2021-03-24T12:23:02Z</time>
      </trkpt>
      <trkpt lat="45.88942" lon="6.47109">
        <ele>2321.72</ele>
        <time>2021-03-24T12:23:23Z</time>
      </trkpt>
      <trkpt lat="45.88943" lon="6.4711">
        <ele>2321.72</ele>
        <time>2021-03-24T12:23:49Z</time>
      </trkpt>
      <trkpt lat="45.88943" lon="6.47109">
        <ele>2321.72</ele>
        <time>2021-03-24T12:24:12Z</time>
      </trkpt>
      <trkpt lat="45.88944" lon="6.47111">
        <ele>2321.72</ele>
        <time>2021-03-24T12:24:37Z</time>
      </trkpt>
      <trkpt lat="45.88943" lon="6.4711">
        <ele>2322.2</ele>
        <time>2021-03-24T12:25:01Z</time>
      </trkpt>
      <trkpt lat="45.88942" lon="6.47109">
        <ele>2322.2</ele>
        <time>2021-03-24T12:25:42Z</time>
      </trkpt>
      <trkpt lat="45.88943" lon="6.4711">
        <ele>2322.2</ele>
        <time>2021-03-24T12:26:10Z</time>
      </trkpt>
      <trkpt lat="45.88943" lon="6.47109">
        <ele>2322.2</ele>
        <time>2021-03-24T12:26:40Z</time>
      </trkpt>
      <trkpt lat="45.88943" lon="6.47109">
        <ele>2322.2</ele>
        <time>2021-03-24T12:27:07Z</time>
      </trkpt>
      <trkpt lat="45.88942" lon="6.47109">
        <ele>2322.2</ele>
        <time>2021-03-24T12:27:22Z</time>
      </trkpt>
      <trkpt lat="45.88943" lon="6.47111">
        <ele>2323.64</ele>
        <time>2021-03-24T12:27:43Z</time>
      </trkpt>
      <trkpt lat="45.88943" lon="6.47111">
        <ele>2323.64</ele>
        <time>2021-03-24T12:28:03Z</time>
      </trkpt>
      <trkpt lat="45.88942" lon="6.4711">
        <ele>2323.64</ele>
        <time>2021-03-24T12:28:18Z</time>
      </trkpt>
      <trkpt lat="45.88941" lon="6.4711">
        <ele>2323.64</ele>
        <time>2021-03-24T12:28:36Z</time>
      </trkpt>
      <trkpt lat="45.88941" lon="6.4711">
        <ele>2323.64</ele>
        <time>2021-03-24T12:28:55Z</time>
      </trkpt>
      <trkpt lat="45.8894" lon="6.47109">
        <ele>2322.2</ele>
        <time>2021-03-24T12:29:12Z</time>
      </trkpt>
      <trkpt lat="45.88941" lon="6.47109">
        <ele>2322.2</ele>
        <time>2021-03-24T12:29:31Z</time>
      </trkpt>
      <trkpt lat="45.88941" lon="6.47109">
        <ele>2322.2</ele>
        <time>2021-03-24T12:29:52Z</time>
      </trkpt>
      <trkpt lat="45.88942" lon="6.47109">
        <ele>2322.2</ele>
        <time>2021-03-24T12:30:05Z</time>
      </trkpt>
      <trkpt lat="45.88941" lon="6.47109">
        <ele>2322.2</ele>
        <time>2021-03-24T12:30:18Z</time>
      </trkpt>
      <trkpt lat="45.88939" lon="6.47109">
        <ele>2322.2</ele>
        <time>2021-03-24T12:30:40Z</time>
      </trkpt>
      <trkpt lat="45.8894" lon="6.4711">
        <ele>2322.2</ele>
        <time>2021-03-24T12:30:50Z</time>
      </trkpt>
      <trkpt lat="45.8894" lon="6.4711">
        <ele>2322.2</ele>
        <time>2021-03-24T12:31:06Z</time>
      </trkpt>
      <trkpt lat="45.88941" lon="6.4711">
        <ele>2322.2</ele>
        <time>2021-03-24T12:31:21Z</time>
      </trkpt>
      <trkpt lat="45.88941" lon="6.47108">
        <ele>2322.2</ele>
        <time>2021-03-24T12:31:48Z</time>
      </trkpt>
      <trkpt lat="45.88943" lon="6.47107">
        <ele>2322.2</ele>
        <time>2021-03-24T12:32:01Z</time>
      </trkpt>
      <trkpt lat="45.88949" lon="6.47103">
        <ele>2320.76</ele>
        <time>2021-03-24T12:32:06Z</time>
      </trkpt>
      <trkpt lat="45.88947" lon="6.47098">
        <ele>2318.36</ele>
        <time>2021-03-24T12:32:09Z</time>
      </trkpt>
      <trkpt lat="45.88946" lon="6.47097">
        <ele>2318.36</ele>
        <time>2021-03-24T12:32:10Z</time>
      </trkpt>
      <trkpt lat="45.88952" lon="6.47089">
        <ele>2315.47</ele>
        <time>2021-03-24T12:32:13Z</time>
      </trkpt>
      <trkpt lat="45.88953" lon="6.47077">
        <ele>2310.67</ele>
        <time>2021-03-24T12:32:16Z</time>
      </trkpt>
      <trkpt lat="45.88952" lon="6.47071">
        <ele>2306.82</ele>
        <time>2021-03-24T12:32:19Z</time>
      </trkpt>
      <trkpt lat="45.88956" lon="6.47062">
        <ele>2302.49</ele>
        <time>2021-03-24T12:32:22Z</time>
      </trkpt>
      <trkpt lat="45.88957" lon="6.47055">
        <ele>2299.13</ele>
        <time>2021-03-24T12:32:25Z</time>
      </trkpt>
      <trkpt lat="45.88954" lon="6.47054">
        <ele>2299.61</ele>
        <time>2021-03-24T12:32:26Z</time>
      </trkpt>
      <trkpt lat="45.88952" lon="6.47058">
        <ele>2299.61</ele>
        <time>2021-03-24T12:32:34Z</time>
      </trkpt>
      <trkpt lat="45.88953" lon="6.47059">
        <ele>2299.13</ele>
        <time>2021-03-24T12:33:01Z</time>
      </trkpt>
      <trkpt lat="45.88954" lon="6.4706">
        <ele>2299.13</ele>
        <time>2021-03-24T12:33:19Z</time>
      </trkpt>
      <trkpt lat="45.88956" lon="6.47055">
        <ele>2297.21</ele>
        <time>2021-03-24T12:33:22Z</time>
      </trkpt>
      <trkpt lat="45.88956" lon="6.47054">
        <ele>2297.21</ele>
        <time>2021-03-24T12:33:24Z</time>
      </trkpt>
      <trkpt lat="45.88952" lon="6.4705">
        <ele>2294.32</ele>
        <time>2021-03-24T12:33:27Z</time>
      </trkpt>
      <trkpt lat="45.8895" lon="6.4705">
        <ele>2294.32</ele>
        <time>2021-03-24T12:33:34Z</time>
      </trkpt>
      <trkpt lat="45.88943" lon="6.4705">
        <ele>2292.4</ele>
        <time>2021-03-24T12:33:38Z</time>
      </trkpt>
      <trkpt lat="45.88923" lon="6.47051">
        <ele>2289.04</ele>
        <time>2021-03-24T12:33:48Z</time>
      </trkpt>
      <trkpt lat="45.88916" lon="6.47051">
        <ele>2288.56</ele>
        <time>2021-03-24T12:33:55Z</time>
      </trkpt>
      <trkpt lat="45.8892" lon="6.47044">
        <ele>2286.15</ele>
        <time>2021-03-24T12:33:59Z</time>
      </trkpt>
      <trkpt lat="45.88922" lon="6.47035">
        <ele>2282.79</ele>
        <time>2021-03-24T12:34:03Z</time>
      </trkpt>
      <trkpt lat="45.88918" lon="6.47034">
        <ele>2281.83</ele>
        <time>2021-03-24T12:34:05Z</time>
      </trkpt>
      <trkpt lat="45.88916" lon="6.47031">
        <ele>2278.94</ele>
        <time>2021-03-24T12:34:10Z</time>
      </trkpt>
      <trkpt lat="45.88918" lon="6.47029">
        <ele>2278.46</ele>
        <time>2021-03-24T12:34:13Z</time>
      </trkpt>
      <trkpt lat="45.88914" lon="6.47023">
        <ele>2274.62</ele>
        <time>2021-03-24T12:34:17Z</time>
      </trkpt>
      <trkpt lat="45.88909" lon="6.47022">
        <ele>2274.62</ele>
        <time>2021-03-24T12:34:20Z</time>
      </trkpt>
      <trkpt lat="45.88911" lon="6.47011">
        <ele>2269.81</ele>
        <time>2021-03-24T12:34:24Z</time>
      </trkpt>
      <trkpt lat="45.88908" lon="6.47007">
        <ele>2268.85</ele>
        <time>2021-03-24T12:34:26Z</time>
      </trkpt>
      <trkpt lat="45.88909" lon="6.46998">
        <ele>2265.96</ele>
        <time>2021-03-24T12:34:29Z</time>
      </trkpt>
      <trkpt lat="45.88903" lon="6.46993">
        <ele>2262.6</ele>
        <time>2021-03-24T12:34:32Z</time>
      </trkpt>
      <trkpt lat="45.88904" lon="6.46988">
        <ele>2260.2</ele>
        <time>2021-03-24T12:34:38Z</time>
      </trkpt>
      <trkpt lat="45.88904" lon="6.46986">
        <ele>2260.2</ele>
        <time>2021-03-24T12:34:42Z</time>
      </trkpt>
      <trkpt lat="45.88897" lon="6.46982">
        <ele>2256.83</ele>
        <time>2021-03-24T12:34:45Z</time>
      </trkpt>
      <trkpt lat="45.88895" lon="6.46981">
        <ele>2256.83</ele>
        <time>2021-03-24T12:34:46Z</time>
      </trkpt>
      <trkpt lat="45.88886" lon="6.46981">
        <ele>2254.91</ele>
        <time>2021-03-24T12:34:49Z</time>
      </trkpt>
      <trkpt lat="45.88871" lon="6.46977">
        <ele>2253.95</ele>
        <time>2021-03-24T12:34:59Z</time>
      </trkpt>
      <trkpt lat="45.88871" lon="6.46975">
        <ele>2253.47</ele>
        <time>2021-03-24T12:35:10Z</time>
      </trkpt>
      <trkpt lat="45.88874" lon="6.46968">
        <ele>2253.47</ele>
        <time>2021-03-24T12:35:19Z</time>
      </trkpt>
      <trkpt lat="45.88874" lon="6.46968">
        <ele>2253.47</ele>
        <time>2021-03-24T12:35:31Z</time>
      </trkpt>
      <trkpt lat="45.88881" lon="6.46951">
        <ele>2249.62</ele>
        <time>2021-03-24T12:35:37Z</time>
      </trkpt>
      <trkpt lat="45.88884" lon="6.46942">
        <ele>2246.26</ele>
        <time>2021-03-24T12:35:40Z</time>
      </trkpt>
      <trkpt lat="45.88889" lon="6.46942">
        <ele>2244.82</ele>
        <time>2021-03-24T12:35:42Z</time>
      </trkpt>
      <trkpt lat="45.8889" lon="6.46934">
        <ele>2240.97</ele>
        <time>2021-03-24T12:35:44Z</time>
      </trkpt>
      <trkpt lat="45.88888" lon="6.46931">
        <ele>2240.01</ele>
        <time>2021-03-24T12:35:46Z</time>
      </trkpt>
      <trkpt lat="45.8889" lon="6.46929">
        <ele>2240.49</ele>
        <time>2021-03-24T12:36:04Z</time>
      </trkpt>
      <trkpt lat="45.8889" lon="6.46929">
        <ele>2240.49</ele>
        <time>2021-03-24T12:36:28Z</time>
      </trkpt>
      <trkpt lat="45.88888" lon="6.46929">
        <ele>2240.49</ele>
        <time>2021-03-24T12:36:51Z</time>
      </trkpt>
      <trkpt lat="45.88888" lon="6.46931">
        <ele>2240.01</ele>
        <time>2021-03-24T12:37:18Z</time>
      </trkpt>
      <trkpt lat="45.88888" lon="6.46931">
        <ele>2240.01</ele>
        <time>2021-03-24T12:37:42Z</time>
      </trkpt>
      <trkpt lat="45.88888" lon="6.46932">
        <ele>2240.01</ele>
        <time>2021-03-24T12:38:13Z</time>
      </trkpt>
      <trkpt lat="45.88888" lon="6.46933">
        <ele>2240.01</ele>
        <time>2021-03-24T12:38:45Z</time>
      </trkpt>
      <trkpt lat="45.88888" lon="6.46932">
        <ele>2240.01</ele>
        <time>2021-03-24T12:39:07Z</time>
      </trkpt>
      <trkpt lat="45.88888" lon="6.46934">
        <ele>2239.53</ele>
        <time>2021-03-24T12:39:20Z</time>
      </trkpt>
      <trkpt lat="45.88895" lon="6.4692">
        <ele>2235.68</ele>
        <time>2021-03-24T12:39:25Z</time>
      </trkpt>
      <trkpt lat="45.88894" lon="6.46913">
        <ele>2232.32</ele>
        <time>2021-03-24T12:39:27Z</time>
      </trkpt>
      <trkpt lat="45.88899" lon="6.46905">
        <ele>2228.47</ele>
        <time>2021-03-24T12:39:31Z</time>
      </trkpt>
      <trkpt lat="45.88895" lon="6.46894">
        <ele>2226.07</ele>
        <time>2021-03-24T12:39:34Z</time>
      </trkpt>
      <trkpt lat="45.889" lon="6.46886">
        <ele>2221.74</ele>
        <time>2021-03-24T12:39:37Z</time>
      </trkpt>
      <trkpt lat="45.88905" lon="6.46876">
        <ele>2216.94</ele>
        <time>2021-03-24T12:39:41Z</time>
      </trkpt>
      <trkpt lat="45.88902" lon="6.46871">
        <ele>2215.98</ele>
        <time>2021-03-24T12:39:43Z</time>
      </trkpt>
      <trkpt lat="45.88897" lon="6.46864">
        <ele>2215.01</ele>
        <time>2021-03-24T12:39:46Z</time>
      </trkpt>
      <trkpt lat="45.88903" lon="6.46854">
        <ele>2211.65</ele>
        <time>2021-03-24T12:39:49Z</time>
      </trkpt>
      <trkpt lat="45.88909" lon="6.46856">
        <ele>2210.21</ele>
        <time>2021-03-24T12:39:51Z</time>
      </trkpt>
      <trkpt lat="45.88915" lon="6.46848">
        <ele>2207.32</ele>
        <time>2021-03-24T12:39:55Z</time>
      </trkpt>
      <trkpt lat="45.88912" lon="6.46842">
        <ele>2206.36</ele>
        <time>2021-03-24T12:39:57Z</time>
      </trkpt>
      <trkpt lat="45.88918" lon="6.46837">
        <ele>2203</ele>
        <time>2021-03-24T12:39:59Z</time>
      </trkpt>
      <trkpt lat="45.8892" lon="6.46836">
        <ele>2203</ele>
        <time>2021-03-24T12:40:00Z</time>
      </trkpt>
      <trkpt lat="45.88921" lon="6.46825">
        <ele>2199.63</ele>
        <time>2021-03-24T12:40:03Z</time>
      </trkpt>
      <trkpt lat="45.88927" lon="6.46815">
        <ele>2196.27</ele>
        <time>2021-03-24T12:40:06Z</time>
      </trkpt>
      <trkpt lat="45.88928" lon="6.46805">
        <ele>2192.42</ele>
        <time>2021-03-24T12:40:08Z</time>
      </trkpt>
      <trkpt lat="45.88926" lon="6.46803">
        <ele>2191.94</ele>
        <time>2021-03-24T12:40:09Z</time>
      </trkpt>
      <trkpt lat="45.88926" lon="6.46803">
        <ele>2192.42</ele>
        <time>2021-03-24T12:40:19Z</time>
      </trkpt>
      <trkpt lat="45.88927" lon="6.46801">
        <ele>2191.94</ele>
        <time>2021-03-24T12:40:28Z</time>
      </trkpt>
      <trkpt lat="45.88928" lon="6.46798">
        <ele>2190.5</ele>
        <time>2021-03-24T12:40:29Z</time>
      </trkpt>
      <trkpt lat="45.88931" lon="6.46795">
        <ele>2190.02</ele>
        <time>2021-03-24T12:40:30Z</time>
      </trkpt>
      <trkpt lat="45.88935" lon="6.46793">
        <ele>2189.54</ele>
        <time>2021-03-24T12:40:32Z</time>
      </trkpt>
      <trkpt lat="45.88935" lon="6.46793">
        <ele>2189.06</ele>
        <time>2021-03-24T12:40:49Z</time>
      </trkpt>
      <trkpt lat="45.88937" lon="6.46787">
        <ele>2187.62</ele>
        <time>2021-03-24T12:41:13Z</time>
      </trkpt>
      <trkpt lat="45.88937" lon="6.46782">
        <ele>2186.66</ele>
        <time>2021-03-24T12:41:14Z</time>
      </trkpt>
      <trkpt lat="45.88938" lon="6.46778">
        <ele>2185.69</ele>
        <time>2021-03-24T12:41:15Z</time>
      </trkpt>
      <trkpt lat="45.88938" lon="6.46773">
        <ele>2184.25</ele>
        <time>2021-03-24T12:41:16Z</time>
      </trkpt>
      <trkpt lat="45.88939" lon="6.46768">
        <ele>2182.33</ele>
        <time>2021-03-24T12:41:17Z</time>
      </trkpt>
      <trkpt lat="45.88941" lon="6.46764">
        <ele>2181.37</ele>
        <time>2021-03-24T12:41:18Z</time>
      </trkpt>
      <trkpt lat="45.88943" lon="6.4676">
        <ele>2179.93</ele>
        <time>2021-03-24T12:41:19Z</time>
      </trkpt>
      <trkpt lat="45.88943" lon="6.46756">
        <ele>2178.97</ele>
        <time>2021-03-24T12:41:20Z</time>
      </trkpt>
      <trkpt lat="45.88942" lon="6.46751">
        <ele>2178</ele>
        <time>2021-03-24T12:41:21Z</time>
      </trkpt>
      <trkpt lat="45.88943" lon="6.46745">
        <ele>2175.6</ele>
        <time>2021-03-24T12:41:22Z</time>
      </trkpt>
      <trkpt lat="45.88942" lon="6.4674">
        <ele>2174.16</ele>
        <time>2021-03-24T12:41:23Z</time>
      </trkpt>
      <trkpt lat="45.88941" lon="6.46735">
        <ele>2173.2</ele>
        <time>2021-03-24T12:41:24Z</time>
      </trkpt>
      <trkpt lat="45.88943" lon="6.4673">
        <ele>2171.27</ele>
        <time>2021-03-24T12:41:25Z</time>
      </trkpt>
      <trkpt lat="45.88944" lon="6.46725">
        <ele>2168.87</ele>
        <time>2021-03-24T12:41:26Z</time>
      </trkpt>
      <trkpt lat="45.88942" lon="6.46721">
        <ele>2167.43</ele>
        <time>2021-03-24T12:41:27Z</time>
      </trkpt>
      <trkpt lat="45.88939" lon="6.46718">
        <ele>2167.43</ele>
        <time>2021-03-24T12:41:28Z</time>
      </trkpt>
      <trkpt lat="45.88936" lon="6.46715">
        <ele>2166.47</ele>
        <time>2021-03-24T12:41:29Z</time>
      </trkpt>
      <trkpt lat="45.88934" lon="6.4671">
        <ele>2165.99</ele>
        <time>2021-03-24T12:41:30Z</time>
      </trkpt>
      <trkpt lat="45.88932" lon="6.46705">
        <ele>2164.55</ele>
        <time>2021-03-24T12:41:31Z</time>
      </trkpt>
      <trkpt lat="45.8893" lon="6.46702">
        <ele>2163.58</ele>
        <time>2021-03-24T12:41:32Z</time>
      </trkpt>
      <trkpt lat="45.88929" lon="6.46698">
        <ele>2163.1</ele>
        <time>2021-03-24T12:41:33Z</time>
      </trkpt>
      <trkpt lat="45.88931" lon="6.46694">
        <ele>2161.66</ele>
        <time>2021-03-24T12:41:34Z</time>
      </trkpt>
      <trkpt lat="45.88934" lon="6.46693">
        <ele>2161.18</ele>
        <time>2021-03-24T12:41:35Z</time>
      </trkpt>
      <trkpt lat="45.88944" lon="6.46695">
        <ele>2158.78</ele>
        <time>2021-03-24T12:41:38Z</time>
      </trkpt>
      <trkpt lat="45.88954" lon="6.46699">
        <ele>2158.3</ele>
        <time>2021-03-24T12:41:42Z</time>
      </trkpt>
      <trkpt lat="45.88958" lon="6.46685">
        <ele>2153.97</ele>
        <time>2021-03-24T12:41:46Z</time>
      </trkpt>
      <trkpt lat="45.88961" lon="6.46684">
        <ele>2152.53</ele>
        <time>2021-03-24T12:41:47Z</time>
      </trkpt>
      <trkpt lat="45.88967" lon="6.46686">
        <ele>2151.09</ele>
        <time>2021-03-24T12:41:49Z</time>
      </trkpt>
      <trkpt lat="45.88973" lon="6.46676">
        <ele>2147.72</ele>
        <time>2021-03-24T12:41:53Z</time>
      </trkpt>
      <trkpt lat="45.88981" lon="6.46675">
        <ele>2143.88</ele>
        <time>2021-03-24T12:41:54Z</time>
      </trkpt>
      <trkpt lat="45.88986" lon="6.46675">
        <ele>2142.44</ele>
        <time>2021-03-24T12:41:58Z</time>
      </trkpt>
      <trkpt lat="45.88984" lon="6.46669">
        <ele>2139.55</ele>
        <time>2021-03-24T12:42:05Z</time>
      </trkpt>
      <trkpt lat="45.88984" lon="6.4667">
        <ele>2140.51</ele>
        <time>2021-03-24T12:42:19Z</time>
      </trkpt>
      <trkpt lat="45.88992" lon="6.46666">
        <ele>2137.63</ele>
        <time>2021-03-24T12:42:23Z</time>
      </trkpt>
      <trkpt lat="45.88998" lon="6.46665">
        <ele>2136.19</ele>
        <time>2021-03-24T12:42:26Z</time>
      </trkpt>
      <trkpt lat="45.88994" lon="6.46655">
        <ele>2133.78</ele>
        <time>2021-03-24T12:42:28Z</time>
      </trkpt>
      <trkpt lat="45.89" lon="6.4665">
        <ele>2130.9</ele>
        <time>2021-03-24T12:42:32Z</time>
      </trkpt>
      <trkpt lat="45.89001" lon="6.46639">
        <ele>2127.53</ele>
        <time>2021-03-24T12:42:36Z</time>
      </trkpt>
      <trkpt lat="45.89" lon="6.46631">
        <ele>2123.69</ele>
        <time>2021-03-24T12:42:39Z</time>
      </trkpt>
      <trkpt lat="45.88998" lon="6.4663">
        <ele>2123.69</ele>
        <time>2021-03-24T12:42:40Z</time>
      </trkpt>
      <trkpt lat="45.89" lon="6.46619">
        <ele>2119.84</ele>
        <time>2021-03-24T12:42:45Z</time>
      </trkpt>
      <trkpt lat="45.89001" lon="6.46606">
        <ele>2115.04</ele>
        <time>2021-03-24T12:42:48Z</time>
      </trkpt>
      <trkpt lat="45.88996" lon="6.46599">
        <ele>2114.08</ele>
        <time>2021-03-24T12:42:50Z</time>
      </trkpt>
      <trkpt lat="45.88997" lon="6.46592">
        <ele>2110.71</ele>
        <time>2021-03-24T12:42:53Z</time>
      </trkpt>
      <trkpt lat="45.88998" lon="6.46583">
        <ele>2107.83</ele>
        <time>2021-03-24T12:42:55Z</time>
      </trkpt>
      <trkpt lat="45.88995" lon="6.46581">
        <ele>2107.83</ele>
        <time>2021-03-24T12:42:57Z</time>
      </trkpt>
      <trkpt lat="45.88998" lon="6.46568">
        <ele>2103.02</ele>
        <time>2021-03-24T12:43:00Z</time>
      </trkpt>
      <trkpt lat="45.88995" lon="6.46563">
        <ele>2102.06</ele>
        <time>2021-03-24T12:43:02Z</time>
      </trkpt>
      <trkpt lat="45.89002" lon="6.46558">
        <ele>2098.7</ele>
        <time>2021-03-24T12:43:05Z</time>
      </trkpt>
      <trkpt lat="45.89004" lon="6.46557">
        <ele>2098.21</ele>
        <time>2021-03-24T12:43:06Z</time>
      </trkpt>
      <trkpt lat="45.89005" lon="6.46547">
        <ele>2094.85</ele>
        <time>2021-03-24T12:43:10Z</time>
      </trkpt>
      <trkpt lat="45.89001" lon="6.46546">
        <ele>2093.89</ele>
        <time>2021-03-24T12:43:11Z</time>
      </trkpt>
      <trkpt lat="45.88995" lon="6.46541">
        <ele>2092.93</ele>
        <time>2021-03-24T12:43:14Z</time>
      </trkpt>
      <trkpt lat="45.89002" lon="6.46529">
        <ele>2088.6</ele>
        <time>2021-03-24T12:43:19Z</time>
      </trkpt>
      <trkpt lat="45.89" lon="6.4652">
        <ele>2085.72</ele>
        <time>2021-03-24T12:43:22Z</time>
      </trkpt>
      <trkpt lat="45.89005" lon="6.46511">
        <ele>2081.39</ele>
        <time>2021-03-24T12:43:26Z</time>
      </trkpt>
      <trkpt lat="45.89003" lon="6.46499">
        <ele>2077.55</ele>
        <time>2021-03-24T12:43:30Z</time>
      </trkpt>
      <trkpt lat="45.89006" lon="6.46498">
        <ele>2076.59</ele>
        <time>2021-03-24T12:43:32Z</time>
      </trkpt>
      <trkpt lat="45.89006" lon="6.46496">
        <ele>2075.62</ele>
        <time>2021-03-24T12:43:42Z</time>
      </trkpt>
      <trkpt lat="45.89018" lon="6.4649">
        <ele>2073.7</ele>
        <time>2021-03-24T12:43:47Z</time>
      </trkpt>
      <trkpt lat="45.89013" lon="6.46479">
        <ele>2070.34</ele>
        <time>2021-03-24T12:43:50Z</time>
      </trkpt>
      <trkpt lat="45.89014" lon="6.46469">
        <ele>2066.97</ele>
        <time>2021-03-24T12:43:53Z</time>
      </trkpt>
      <trkpt lat="45.8901" lon="6.46459">
        <ele>2063.61</ele>
        <time>2021-03-24T12:43:57Z</time>
      </trkpt>
      <trkpt lat="45.89014" lon="6.46455">
        <ele>2059.76</ele>
        <time>2021-03-24T12:44:00Z</time>
      </trkpt>
      <trkpt lat="45.89014" lon="6.46453">
        <ele>2060.24</ele>
        <time>2021-03-24T12:44:15Z</time>
      </trkpt>
      <trkpt lat="45.89014" lon="6.46452">
        <ele>2060.24</ele>
        <time>2021-03-24T12:44:24Z</time>
      </trkpt>
      <trkpt lat="45.89014" lon="6.46449">
        <ele>2059.76</ele>
        <time>2021-03-24T12:44:37Z</time>
      </trkpt>
      <trkpt lat="45.89014" lon="6.4645">
        <ele>2059.76</ele>
        <time>2021-03-24T12:45:00Z</time>
      </trkpt>
      <trkpt lat="45.89015" lon="6.46448">
        <ele>2059.76</ele>
        <time>2021-03-24T12:45:25Z</time>
      </trkpt>
      <trkpt lat="45.89015" lon="6.46448">
        <ele>2059.76</ele>
        <time>2021-03-24T12:45:54Z</time>
      </trkpt>
      <trkpt lat="45.89014" lon="6.46448">
        <ele>2059.76</ele>
        <time>2021-03-24T12:46:22Z</time>
      </trkpt>
      <trkpt lat="45.89013" lon="6.46445">
        <ele>2059.28</ele>
        <time>2021-03-24T12:46:24Z</time>
      </trkpt>
      <trkpt lat="45.89013" lon="6.46435">
        <ele>2054.96</ele>
        <time>2021-03-24T12:46:29Z</time>
      </trkpt>
      <trkpt lat="45.89018" lon="6.46424">
        <ele>2051.11</ele>
        <time>2021-03-24T12:46:33Z</time>
      </trkpt>
      <trkpt lat="45.89016" lon="6.46414">
        <ele>2047.75</ele>
        <time>2021-03-24T12:46:35Z</time>
      </trkpt>
      <trkpt lat="45.89018" lon="6.46403">
        <ele>2043.9</ele>
        <time>2021-03-24T12:46:40Z</time>
      </trkpt>
      <trkpt lat="45.89017" lon="6.46392">
        <ele>2040.05</ele>
        <time>2021-03-24T12:46:44Z</time>
      </trkpt>
      <trkpt lat="45.89022" lon="6.46391">
        <ele>2038.13</ele>
        <time>2021-03-24T12:46:46Z</time>
      </trkpt>
      <trkpt lat="45.89031" lon="6.46393">
        <ele>2036.69</ele>
        <time>2021-03-24T12:46:49Z</time>
      </trkpt>
      <trkpt lat="45.89043" lon="6.46387">
        <ele>2034.77</ele>
        <time>2021-03-24T12:46:54Z</time>
      </trkpt>
      <trkpt lat="45.8905" lon="6.46374">
        <ele>2032.36</ele>
        <time>2021-03-24T12:46:57Z</time>
      </trkpt>
      <trkpt lat="45.89048" lon="6.46357">
        <ele>2027.56</ele>
        <time>2021-03-24T12:47:00Z</time>
      </trkpt>
      <trkpt lat="45.8904" lon="6.46339">
        <ele>2023.71</ele>
        <time>2021-03-24T12:47:04Z</time>
      </trkpt>
      <trkpt lat="45.89034" lon="6.46334">
        <ele>2022.27</ele>
        <time>2021-03-24T12:47:05Z</time>
      </trkpt>
      <trkpt lat="45.8903" lon="6.46331">
        <ele>2022.75</ele>
        <time>2021-03-24T12:47:06Z</time>
      </trkpt>
      <trkpt lat="45.89026" lon="6.46328">
        <ele>2021.79</ele>
        <time>2021-03-24T12:47:07Z</time>
      </trkpt>
      <trkpt lat="45.89023" lon="6.46325">
        <ele>2021.31</ele>
        <time>2021-03-24T12:47:08Z</time>
      </trkpt>
      <trkpt lat="45.89019" lon="6.46322">
        <ele>2020.83</ele>
        <time>2021-03-24T12:47:09Z</time>
      </trkpt>
      <trkpt lat="45.89015" lon="6.4632">
        <ele>2020.35</ele>
        <time>2021-03-24T12:47:10Z</time>
      </trkpt>
      <trkpt lat="45.89012" lon="6.46319">
        <ele>2020.35</ele>
        <time>2021-03-24T12:47:11Z</time>
      </trkpt>
      <trkpt lat="45.89009" lon="6.46318">
        <ele>2020.35</ele>
        <time>2021-03-24T12:47:12Z</time>
      </trkpt>
      <trkpt lat="45.89007" lon="6.46317">
        <ele>2019.87</ele>
        <time>2021-03-24T12:47:13Z</time>
      </trkpt>
      <trkpt lat="45.89006" lon="6.46314">
        <ele>2019.87</ele>
        <time>2021-03-24T12:47:14Z</time>
      </trkpt>
      <trkpt lat="45.89012" lon="6.46308">
        <ele>2017.46</ele>
        <time>2021-03-24T12:47:17Z</time>
      </trkpt>
      <trkpt lat="45.89014" lon="6.46308">
        <ele>2016.98</ele>
        <time>2021-03-24T12:47:18Z</time>
      </trkpt>
      <trkpt lat="45.89018" lon="6.46305">
        <ele>2016.5</ele>
        <time>2021-03-24T12:47:20Z</time>
      </trkpt>
      <trkpt lat="45.89017" lon="6.46301">
        <ele>2015.06</ele>
        <time>2021-03-24T12:47:21Z</time>
      </trkpt>
      <trkpt lat="45.89015" lon="6.46299">
        <ele>2014.1</ele>
        <time>2021-03-24T12:47:22Z</time>
      </trkpt>
      <trkpt lat="45.89012" lon="6.46297">
        <ele>2014.1</ele>
        <time>2021-03-24T12:47:23Z</time>
      </trkpt>
      <trkpt lat="45.88987" lon="6.46281">
        <ele>2011.22</ele>
        <time>2021-03-24T12:47:32Z</time>
      </trkpt>
      <trkpt lat="45.88982" lon="6.46274">
        <ele>2009.77</ele>
        <time>2021-03-24T12:47:34Z</time>
      </trkpt>
      <trkpt lat="45.88991" lon="6.46264">
        <ele>2006.41</ele>
        <time>2021-03-24T12:47:37Z</time>
      </trkpt>
      <trkpt lat="45.88994" lon="6.46264">
        <ele>2005.93</ele>
        <time>2021-03-24T12:47:38Z</time>
      </trkpt>
      <trkpt lat="45.88996" lon="6.46265">
        <ele>2005.93</ele>
        <time>2021-03-24T12:47:39Z</time>
      </trkpt>
      <trkpt lat="45.88997" lon="6.46265">
        <ele>2005.45</ele>
        <time>2021-03-24T12:47:40Z</time>
      </trkpt>
      <trkpt lat="45.88999" lon="6.46265">
        <ele>2005.45</ele>
        <time>2021-03-24T12:47:41Z</time>
      </trkpt>
      <trkpt lat="45.89" lon="6.46265">
        <ele>2005.45</ele>
        <time>2021-03-24T12:47:42Z</time>
      </trkpt>
      <trkpt lat="45.89015" lon="6.46264">
        <ele>2003.52</ele>
        <time>2021-03-24T12:47:48Z</time>
      </trkpt>
      <trkpt lat="45.89011" lon="6.46256">
        <ele>2000.64</ele>
        <time>2021-03-24T12:47:52Z</time>
      </trkpt>
      <trkpt lat="45.89001" lon="6.46249">
        <ele>2000.16</ele>
        <time>2021-03-24T12:47:56Z</time>
      </trkpt>
      <trkpt lat="45.89005" lon="6.4624">
        <ele>1996.8</ele>
        <time>2021-03-24T12:48:00Z</time>
      </trkpt>
      <trkpt lat="45.89033" lon="6.46239">
        <ele>1992.47</ele>
        <time>2021-03-24T12:48:11Z</time>
      </trkpt>
      <trkpt lat="45.89035" lon="6.46239">
        <ele>1992.47</ele>
        <time>2021-03-24T12:48:12Z</time>
      </trkpt>
      <trkpt lat="45.89032" lon="6.46223">
        <ele>1989.1</ele>
        <time>2021-03-24T12:48:17Z</time>
      </trkpt>
      <trkpt lat="45.89039" lon="6.46217">
        <ele>1985.26</ele>
        <time>2021-03-24T12:48:20Z</time>
      </trkpt>
      <trkpt lat="45.89034" lon="6.46206">
        <ele>1981.9</ele>
        <time>2021-03-24T12:48:23Z</time>
      </trkpt>
      <trkpt lat="45.89032" lon="6.46191">
        <ele>1977.57</ele>
        <time>2021-03-24T12:48:28Z</time>
      </trkpt>
      <trkpt lat="45.89027" lon="6.46188">
        <ele>1976.61</ele>
        <time>2021-03-24T12:48:30Z</time>
      </trkpt>
      <trkpt lat="45.89028" lon="6.46181">
        <ele>1973.24</ele>
        <time>2021-03-24T12:48:32Z</time>
      </trkpt>
      <trkpt lat="45.8903" lon="6.46181">
        <ele>1972.76</ele>
        <time>2021-03-24T12:48:34Z</time>
      </trkpt>
      <trkpt lat="45.89031" lon="6.46168">
        <ele>1969.4</ele>
        <time>2021-03-24T12:48:38Z</time>
      </trkpt>
      <trkpt lat="45.89029" lon="6.46166">
        <ele>1969.4</ele>
        <time>2021-03-24T12:48:39Z</time>
      </trkpt>
      <trkpt lat="45.89019" lon="6.46151">
        <ele>1965.07</ele>
        <time>2021-03-24T12:48:46Z</time>
      </trkpt>
      <trkpt lat="45.89021" lon="6.4615">
        <ele>1964.59</ele>
        <time>2021-03-24T12:48:47Z</time>
      </trkpt>
      <trkpt lat="45.89032" lon="6.46148">
        <ele>1962.67</ele>
        <time>2021-03-24T12:48:51Z</time>
      </trkpt>
      <trkpt lat="45.89027" lon="6.46133">
        <ele>1959.3</ele>
        <time>2021-03-24T12:48:55Z</time>
      </trkpt>
      <trkpt lat="45.89034" lon="6.46129">
        <ele>1955.46</ele>
        <time>2021-03-24T12:48:58Z</time>
      </trkpt>
      <trkpt lat="45.89036" lon="6.46128">
        <ele>1955.46</ele>
        <time>2021-03-24T12:48:59Z</time>
      </trkpt>
      <trkpt lat="45.89034" lon="6.46121">
        <ele>1952.57</ele>
        <time>2021-03-24T12:49:01Z</time>
      </trkpt>
      <trkpt lat="45.89029" lon="6.46117">
        <ele>1951.61</ele>
        <time>2021-03-24T12:49:03Z</time>
      </trkpt>
      <trkpt lat="45.89017" lon="6.4611">
        <ele>1949.69</ele>
        <time>2021-03-24T12:49:07Z</time>
      </trkpt>
      <trkpt lat="45.89025" lon="6.461">
        <ele>1945.36</ele>
        <time>2021-03-24T12:49:11Z</time>
      </trkpt>
      <trkpt lat="45.89027" lon="6.46099">
        <ele>1945.36</ele>
        <time>2021-03-24T12:49:12Z</time>
      </trkpt>
      <trkpt lat="45.89024" lon="6.46087">
        <ele>1941.52</ele>
        <time>2021-03-24T12:49:15Z</time>
      </trkpt>
      <trkpt lat="45.89022" lon="6.46086">
        <ele>1941.52</ele>
        <time>2021-03-24T12:49:16Z</time>
      </trkpt>
      <trkpt lat="45.89021" lon="6.46071">
        <ele>1937.19</ele>
        <time>2021-03-24T12:49:20Z</time>
      </trkpt>
      <trkpt lat="45.8902" lon="6.46061">
        <ele>1932.87</ele>
        <time>2021-03-24T12:49:23Z</time>
      </trkpt>
      <trkpt lat="45.89029" lon="6.46058">
        <ele>1931.43</ele>
        <time>2021-03-24T12:49:26Z</time>
      </trkpt>
      <trkpt lat="45.89024" lon="6.46043">
        <ele>1928.06</ele>
        <time>2021-03-24T12:49:30Z</time>
      </trkpt>
      <trkpt lat="45.89032" lon="6.46035">
        <ele>1924.22</ele>
        <time>2021-03-24T12:49:33Z</time>
      </trkpt>
      <trkpt lat="45.89035" lon="6.46035">
        <ele>1924.22</ele>
        <time>2021-03-24T12:49:34Z</time>
      </trkpt>
      <trkpt lat="45.89036" lon="6.46033">
        <ele>1924.7</ele>
        <time>2021-03-24T12:49:45Z</time>
      </trkpt>
      <trkpt lat="45.89037" lon="6.46031">
        <ele>1924.7</ele>
        <time>2021-03-24T12:50:10Z</time>
      </trkpt>
      <trkpt lat="45.89039" lon="6.46031">
        <ele>1924.22</ele>
        <time>2021-03-24T12:50:30Z</time>
      </trkpt>
      <trkpt lat="45.89038" lon="6.46029">
        <ele>1924.22</ele>
        <time>2021-03-24T12:50:52Z</time>
      </trkpt>
      <trkpt lat="45.89038" lon="6.46029">
        <ele>1924.22</ele>
        <time>2021-03-24T12:51:13Z</time>
      </trkpt>
      <trkpt lat="45.89038" lon="6.4603">
        <ele>1923.74</ele>
        <time>2021-03-24T12:51:40Z</time>
      </trkpt>
      <trkpt lat="45.89038" lon="6.46031">
        <ele>1923.74</ele>
        <time>2021-03-24T12:52:03Z</time>
      </trkpt>
      <trkpt lat="45.89038" lon="6.4603">
        <ele>1923.74</ele>
        <time>2021-03-24T12:52:31Z</time>
      </trkpt>
      <trkpt lat="45.89038" lon="6.46028">
        <ele>1923.25</ele>
        <time>2021-03-24T12:52:46Z</time>
      </trkpt>
      <trkpt lat="45.89041" lon="6.46002">
        <ele>1919.41</ele>
        <time>2021-03-24T12:52:51Z</time>
      </trkpt>
      <trkpt lat="45.89041" lon="6.45993">
        <ele>1917.01</ele>
        <time>2021-03-24T12:52:52Z</time>
      </trkpt>
      <trkpt lat="45.89043" lon="6.45986">
        <ele>1915.08</ele>
        <time>2021-03-24T12:52:53Z</time>
      </trkpt>
      <trkpt lat="45.89045" lon="6.45978">
        <ele>1913.16</ele>
        <time>2021-03-24T12:52:54Z</time>
      </trkpt>
      <trkpt lat="45.89046" lon="6.4597">
        <ele>1912.68</ele>
        <time>2021-03-24T12:52:55Z</time>
      </trkpt>
      <trkpt lat="45.89049" lon="6.45962">
        <ele>1911.72</ele>
        <time>2021-03-24T12:52:56Z</time>
      </trkpt>
      <trkpt lat="45.89052" lon="6.45956">
        <ele>1910.28</ele>
        <time>2021-03-24T12:52:57Z</time>
      </trkpt>
      <trkpt lat="45.89053" lon="6.45947">
        <ele>1910.28</ele>
        <time>2021-03-24T12:52:58Z</time>
      </trkpt>
      <trkpt lat="45.89055" lon="6.4594">
        <ele>1908.83</ele>
        <time>2021-03-24T12:52:59Z</time>
      </trkpt>
      <trkpt lat="45.89057" lon="6.45932">
        <ele>1907.39</ele>
        <time>2021-03-24T12:53:00Z</time>
      </trkpt>
      <trkpt lat="45.89056" lon="6.45924">
        <ele>1906.43</ele>
        <time>2021-03-24T12:53:01Z</time>
      </trkpt>
      <trkpt lat="45.89055" lon="6.45915">
        <ele>1905.47</ele>
        <time>2021-03-24T12:53:02Z</time>
      </trkpt>
      <trkpt lat="45.89055" lon="6.45907">
        <ele>1904.51</ele>
        <time>2021-03-24T12:53:03Z</time>
      </trkpt>
      <trkpt lat="45.89058" lon="6.459">
        <ele>1903.55</ele>
        <time>2021-03-24T12:53:04Z</time>
      </trkpt>
      <trkpt lat="45.89061" lon="6.45895">
        <ele>1903.55</ele>
        <time>2021-03-24T12:53:05Z</time>
      </trkpt>
      <trkpt lat="45.89063" lon="6.45888">
        <ele>1903.07</ele>
        <time>2021-03-24T12:53:06Z</time>
      </trkpt>
      <trkpt lat="45.89063" lon="6.45882">
        <ele>1902.59</ele>
        <time>2021-03-24T12:53:07Z</time>
      </trkpt>
      <trkpt lat="45.89062" lon="6.45877">
        <ele>1901.63</ele>
        <time>2021-03-24T12:53:08Z</time>
      </trkpt>
      <trkpt lat="45.89051" lon="6.45885">
        <ele>1897.78</ele>
        <time>2021-03-24T12:53:11Z</time>
      </trkpt>
      <trkpt lat="45.89048" lon="6.45889">
        <ele>1897.78</ele>
        <time>2021-03-24T12:53:12Z</time>
      </trkpt>
      <trkpt lat="45.8904" lon="6.45883">
        <ele>1894.42</ele>
        <time>2021-03-24T12:53:15Z</time>
      </trkpt>
      <trkpt lat="45.89041" lon="6.45863">
        <ele>1890.57</ele>
        <time>2021-03-24T12:53:17Z</time>
      </trkpt>
      <trkpt lat="45.89042" lon="6.45843">
        <ele>1888.65</ele>
        <time>2021-03-24T12:53:19Z</time>
      </trkpt>
      <trkpt lat="45.89051" lon="6.4579">
        <ele>1886.24</ele>
        <time>2021-03-24T12:53:28Z</time>
      </trkpt>
      <trkpt lat="45.8905" lon="6.45784">
        <ele>1885.28</ele>
        <time>2021-03-24T12:53:29Z</time>
      </trkpt>
      <trkpt lat="45.89048" lon="6.45779">
        <ele>1884.32</ele>
        <time>2021-03-24T12:53:30Z</time>
      </trkpt>
      <trkpt lat="45.89048" lon="6.45772">
        <ele>1882.88</ele>
        <time>2021-03-24T12:53:31Z</time>
      </trkpt>
      <trkpt lat="45.89047" lon="6.45767">
        <ele>1881.92</ele>
        <time>2021-03-24T12:53:32Z</time>
      </trkpt>
      <trkpt lat="45.89043" lon="6.45751">
        <ele>1878.55</ele>
        <time>2021-03-24T12:53:35Z</time>
      </trkpt>
      <trkpt lat="45.89041" lon="6.45739">
        <ele>1875.67</ele>
        <time>2021-03-24T12:53:37Z</time>
      </trkpt>
      <trkpt lat="45.89039" lon="6.45725">
        <ele>1871.34</ele>
        <time>2021-03-24T12:53:40Z</time>
      </trkpt>
      <trkpt lat="45.89038" lon="6.45708">
        <ele>1868.46</ele>
        <time>2021-03-24T12:53:45Z</time>
      </trkpt>
      <trkpt lat="45.89036" lon="6.45687">
        <ele>1865.09</ele>
        <time>2021-03-24T12:53:51Z</time>
      </trkpt>
      <trkpt lat="45.89035" lon="6.45669">
        <ele>1861.73</ele>
        <time>2021-03-24T12:53:54Z</time>
      </trkpt>
      <trkpt lat="45.89031" lon="6.45648">
        <ele>1857.4</ele>
        <time>2021-03-24T12:53:57Z</time>
      </trkpt>
      <trkpt lat="45.89022" lon="6.45638">
        <ele>1854.52</ele>
        <time>2021-03-24T12:54:00Z</time>
      </trkpt>
      <trkpt lat="45.89018" lon="6.45622">
        <ele>1850.68</ele>
        <time>2021-03-24T12:54:03Z</time>
      </trkpt>
      <trkpt lat="45.89022" lon="6.45619">
        <ele>1850.68</ele>
        <time>2021-03-24T12:54:09Z</time>
      </trkpt>
      <trkpt lat="45.89024" lon="6.4562">
        <ele>1850.68</ele>
        <time>2021-03-24T12:54:31Z</time>
      </trkpt>
      <trkpt lat="45.89029" lon="6.4561">
        <ele>1849.23</ele>
        <time>2021-03-24T12:54:39Z</time>
      </trkpt>
      <trkpt lat="45.89024" lon="6.45578">
        <ele>1844.43</ele>
        <time>2021-03-24T12:54:43Z</time>
      </trkpt>
      <trkpt lat="45.89022" lon="6.45546">
        <ele>1839.62</ele>
        <time>2021-03-24T12:54:48Z</time>
      </trkpt>
      <trkpt lat="45.89021" lon="6.45539">
        <ele>1838.66</ele>
        <time>2021-03-24T12:54:49Z</time>
      </trkpt>
      <trkpt lat="45.89009" lon="6.45499">
        <ele>1833.37</ele>
        <time>2021-03-24T12:54:56Z</time>
      </trkpt>
      <trkpt lat="45.89009" lon="6.45493">
        <ele>1832.41</ele>
        <time>2021-03-24T12:54:57Z</time>
      </trkpt>
      <trkpt lat="45.89" lon="6.45468">
        <ele>1829.05</ele>
        <time>2021-03-24T12:55:01Z</time>
      </trkpt>
      <trkpt lat="45.88995" lon="6.45451">
        <ele>1825.2</ele>
        <time>2021-03-24T12:55:04Z</time>
      </trkpt>
      <trkpt lat="45.88989" lon="6.45435">
        <ele>1821.84</ele>
        <time>2021-03-24T12:55:07Z</time>
      </trkpt>
      <trkpt lat="45.88985" lon="6.45418">
        <ele>1818.47</ele>
        <time>2021-03-24T12:55:10Z</time>
      </trkpt>
      <trkpt lat="45.88978" lon="6.45398">
        <ele>1814.63</ele>
        <time>2021-03-24T12:55:13Z</time>
      </trkpt>
      <trkpt lat="45.88973" lon="6.45385">
        <ele>1810.78</ele>
        <time>2021-03-24T12:55:15Z</time>
      </trkpt>
      <trkpt lat="45.88962" lon="6.45361">
        <ele>1805.97</ele>
        <time>2021-03-24T12:55:19Z</time>
      </trkpt>
      <trkpt lat="45.88956" lon="6.45339">
        <ele>1802.13</ele>
        <time>2021-03-24T12:55:22Z</time>
      </trkpt>
      <trkpt lat="45.88952" lon="6.45325">
        <ele>1798.76</ele>
        <time>2021-03-24T12:55:25Z</time>
      </trkpt>
      <trkpt lat="45.88951" lon="6.45325">
        <ele>1798.76</ele>
        <time>2021-03-24T12:55:26Z</time>
      </trkpt>
      <trkpt lat="45.8895" lon="6.45327">
        <ele>1799.24</ele>
        <time>2021-03-24T12:55:41Z</time>
      </trkpt>
      <trkpt lat="45.8895" lon="6.45329">
        <ele>1798.76</ele>
        <time>2021-03-24T12:56:03Z</time>
      </trkpt>
      <trkpt lat="45.88952" lon="6.45327">
        <ele>1798.76</ele>
        <time>2021-03-24T12:56:32Z</time>
      </trkpt>
      <trkpt lat="45.88953" lon="6.45325">
        <ele>1798.76</ele>
        <time>2021-03-24T12:56:52Z</time>
      </trkpt>
      <trkpt lat="45.88955" lon="6.45323">
        <ele>1798.76</ele>
        <time>2021-03-24T12:57:17Z</time>
      </trkpt>
      <trkpt lat="45.88954" lon="6.45323">
        <ele>1798.76</ele>
        <time>2021-03-24T12:57:36Z</time>
      </trkpt>
      <trkpt lat="45.88951" lon="6.45299">
        <ele>1795.4</ele>
        <time>2021-03-24T12:57:40Z</time>
      </trkpt>
      <trkpt lat="45.88949" lon="6.45289">
        <ele>1791.55</ele>
        <time>2021-03-24T12:57:41Z</time>
      </trkpt>
      <trkpt lat="45.88944" lon="6.45271">
        <ele>1788.19</ele>
        <time>2021-03-24T12:57:43Z</time>
      </trkpt>
      <trkpt lat="45.88937" lon="6.45253">
        <ele>1784.34</ele>
        <time>2021-03-24T12:57:45Z</time>
      </trkpt>
      <trkpt lat="45.8893" lon="6.45229">
        <ele>1780.98</ele>
        <time>2021-03-24T12:57:48Z</time>
      </trkpt>
      <trkpt lat="45.8892" lon="6.452">
        <ele>1775.21</ele>
        <time>2021-03-24T12:57:52Z</time>
      </trkpt>
      <trkpt lat="45.88913" lon="6.45175">
        <ele>1772.33</ele>
        <time>2021-03-24T12:57:55Z</time>
      </trkpt>
      <trkpt lat="45.88905" lon="6.4514">
        <ele>1768</ele>
        <time>2021-03-24T12:57:59Z</time>
      </trkpt>
      <trkpt lat="45.88901" lon="6.45123">
        <ele>1765.6</ele>
        <time>2021-03-24T12:58:01Z</time>
      </trkpt>
      <trkpt lat="45.88897" lon="6.45107">
        <ele>1763.2</ele>
        <time>2021-03-24T12:58:03Z</time>
      </trkpt>
      <trkpt lat="45.88894" lon="6.4509">
        <ele>1761.27</ele>
        <time>2021-03-24T12:58:05Z</time>
      </trkpt>
      <trkpt lat="45.88893" lon="6.45076">
        <ele>1760.31</ele>
        <time>2021-03-24T12:58:07Z</time>
      </trkpt>
      <trkpt lat="45.88886" lon="6.45028">
        <ele>1752.14</ele>
        <time>2021-03-24T12:58:12Z</time>
      </trkpt>
      <trkpt lat="45.88884" lon="6.45009">
        <ele>1750.7</ele>
        <time>2021-03-24T12:58:14Z</time>
      </trkpt>
      <trkpt lat="45.88883" lon="6.44999">
        <ele>1748.29</ele>
        <time>2021-03-24T12:58:15Z</time>
      </trkpt>
      <trkpt lat="45.88883" lon="6.44988">
        <ele>1747.81</ele>
        <time>2021-03-24T12:58:16Z</time>
      </trkpt>
      <trkpt lat="45.88884" lon="6.44976">
        <ele>1745.41</ele>
        <time>2021-03-24T12:58:17Z</time>
      </trkpt>
      <trkpt lat="45.88886" lon="6.44966">
        <ele>1745.41</ele>
        <time>2021-03-24T12:58:18Z</time>
      </trkpt>
      <trkpt lat="45.88888" lon="6.44955">
        <ele>1743.49</ele>
        <time>2021-03-24T12:58:19Z</time>
      </trkpt>
      <trkpt lat="45.88889" lon="6.44946">
        <ele>1743.01</ele>
        <time>2021-03-24T12:58:20Z</time>
      </trkpt>
      <trkpt lat="45.88892" lon="6.44936">
        <ele>1741.57</ele>
        <time>2021-03-24T12:58:21Z</time>
      </trkpt>
      <trkpt lat="45.88894" lon="6.44927">
        <ele>1741.08</ele>
        <time>2021-03-24T12:58:22Z</time>
      </trkpt>
      <trkpt lat="45.88895" lon="6.44917">
        <ele>1741.08</ele>
        <time>2021-03-24T12:58:23Z</time>
      </trkpt>
      <trkpt lat="45.88898" lon="6.44908">
        <ele>1741.08</ele>
        <time>2021-03-24T12:58:24Z</time>
      </trkpt>
      <trkpt lat="45.88901" lon="6.44899">
        <ele>1738.68</ele>
        <time>2021-03-24T12:58:25Z</time>
      </trkpt>
      <trkpt lat="45.88906" lon="6.44881">
        <ele>1737.24</ele>
        <time>2021-03-24T12:58:27Z</time>
      </trkpt>
      <trkpt lat="45.88909" lon="6.44871">
        <ele>1734.84</ele>
        <time>2021-03-24T12:58:28Z</time>
      </trkpt>
      <trkpt lat="45.88913" lon="6.44854">
        <ele>1734.36</ele>
        <time>2021-03-24T12:58:30Z</time>
      </trkpt>
      <trkpt lat="45.88916" lon="6.44846">
        <ele>1731.95</ele>
        <time>2021-03-24T12:58:31Z</time>
      </trkpt>
      <trkpt lat="45.88917" lon="6.44839">
        <ele>1731.47</ele>
        <time>2021-03-24T12:58:32Z</time>
      </trkpt>
      <trkpt lat="45.88919" lon="6.44834">
        <ele>1731.47</ele>
        <time>2021-03-24T12:58:33Z</time>
      </trkpt>
      <trkpt lat="45.88922" lon="6.4483">
        <ele>1730.99</ele>
        <time>2021-03-24T12:58:34Z</time>
      </trkpt>
      <trkpt lat="45.88923" lon="6.44825">
        <ele>1730.03</ele>
        <time>2021-03-24T12:58:35Z</time>
      </trkpt>
      <trkpt lat="45.88922" lon="6.44823">
        <ele>1730.03</ele>
        <time>2021-03-24T12:58:36Z</time>
      </trkpt>
      <trkpt lat="45.8892" lon="6.44825">
        <ele>1730.51</ele>
        <time>2021-03-24T12:58:50Z</time>
      </trkpt>
      <trkpt lat="45.88921" lon="6.44825">
        <ele>1730.51</ele>
        <time>2021-03-24T12:59:10Z</time>
      </trkpt>
      <trkpt lat="45.88923" lon="6.44825">
        <ele>1730.51</ele>
        <time>2021-03-24T12:59:26Z</time>
      </trkpt>
      <trkpt lat="45.88934" lon="6.44803">
        <ele>1726.67</ele>
        <time>2021-03-24T12:59:33Z</time>
      </trkpt>
      <trkpt lat="45.88939" lon="6.44788">
        <ele>1724.74</ele>
        <time>2021-03-24T12:59:35Z</time>
      </trkpt>
      <trkpt lat="45.88941" lon="6.44779">
        <ele>1724.74</ele>
        <time>2021-03-24T12:59:36Z</time>
      </trkpt>
      <trkpt lat="45.88942" lon="6.44769">
        <ele>1723.78</ele>
        <time>2021-03-24T12:59:37Z</time>
      </trkpt>
      <trkpt lat="45.88943" lon="6.4476">
        <ele>1722.82</ele>
        <time>2021-03-24T12:59:38Z</time>
      </trkpt>
      <trkpt lat="45.88942" lon="6.4475">
        <ele>1721.86</ele>
        <time>2021-03-24T12:59:39Z</time>
      </trkpt>
      <trkpt lat="45.88941" lon="6.4474">
        <ele>1720.42</ele>
        <time>2021-03-24T12:59:40Z</time>
      </trkpt>
      <trkpt lat="45.88939" lon="6.4473">
        <ele>1718.97</ele>
        <time>2021-03-24T12:59:41Z</time>
      </trkpt>
      <trkpt lat="45.88939" lon="6.44721">
        <ele>1718.49</ele>
        <time>2021-03-24T12:59:42Z</time>
      </trkpt>
      <trkpt lat="45.88939" lon="6.4471">
        <ele>1716.09</ele>
        <time>2021-03-24T12:59:43Z</time>
      </trkpt>
      <trkpt lat="45.8894" lon="6.447">
        <ele>1715.61</ele>
        <time>2021-03-24T12:59:44Z</time>
      </trkpt>
      <trkpt lat="45.88942" lon="6.44692">
        <ele>1714.17</ele>
        <time>2021-03-24T12:59:45Z</time>
      </trkpt>
      <trkpt lat="45.88946" lon="6.44683">
        <ele>1712.25</ele>
        <time>2021-03-24T12:59:46Z</time>
      </trkpt>
      <trkpt lat="45.8895" lon="6.44676">
        <ele>1712.25</ele>
        <time>2021-03-24T12:59:47Z</time>
      </trkpt>
      <trkpt lat="45.88954" lon="6.44668">
        <ele>1710.32</ele>
        <time>2021-03-24T12:59:48Z</time>
      </trkpt>
      <trkpt lat="45.88958" lon="6.44662">
        <ele>1710.32</ele>
        <time>2021-03-24T12:59:49Z</time>
      </trkpt>
      <trkpt lat="45.88964" lon="6.44655">
        <ele>1708.4</ele>
        <time>2021-03-24T12:59:50Z</time>
      </trkpt>
      <trkpt lat="45.88969" lon="6.44649">
        <ele>1706</ele>
        <time>2021-03-24T12:59:51Z</time>
      </trkpt>
      <trkpt lat="45.88974" lon="6.44644">
        <ele>1706.48</ele>
        <time>2021-03-24T12:59:52Z</time>
      </trkpt>
      <trkpt lat="45.88981" lon="6.44639">
        <ele>1703.59</ele>
        <time>2021-03-24T12:59:53Z</time>
      </trkpt>
      <trkpt lat="45.88986" lon="6.44636">
        <ele>1704.55</ele>
        <time>2021-03-24T12:59:54Z</time>
      </trkpt>
      <trkpt lat="45.8899" lon="6.44633">
        <ele>1702.15</ele>
        <time>2021-03-24T12:59:55Z</time>
      </trkpt>
      <trkpt lat="45.88995" lon="6.44628">
        <ele>1701.67</ele>
        <time>2021-03-24T12:59:56Z</time>
      </trkpt>
      <trkpt lat="45.88998" lon="6.44626">
        <ele>1701.67</ele>
        <time>2021-03-24T12:59:57Z</time>
      </trkpt>
      <trkpt lat="45.89003" lon="6.44625">
        <ele>1699.75</ele>
        <time>2021-03-24T12:59:58Z</time>
      </trkpt>
      <trkpt lat="45.89007" lon="6.44623">
        <ele>1699.75</ele>
        <time>2021-03-24T12:59:59Z</time>
      </trkpt>
      <trkpt lat="45.89011" lon="6.44622">
        <ele>1699.75</ele>
        <time>2021-03-24T13:00:00Z</time>
      </trkpt>
      <trkpt lat="45.89016" lon="6.44623">
        <ele>1697.83</ele>
        <time>2021-03-24T13:00:01Z</time>
      </trkpt>
      <trkpt lat="45.89021" lon="6.44624">
        <ele>1697.34</ele>
        <time>2021-03-24T13:00:02Z</time>
      </trkpt>
      <trkpt lat="45.89027" lon="6.44624">
        <ele>1696.86</ele>
        <time>2021-03-24T13:00:03Z</time>
      </trkpt>
      <trkpt lat="45.89032" lon="6.44624">
        <ele>1694.94</ele>
        <time>2021-03-24T13:00:04Z</time>
      </trkpt>
      <trkpt lat="45.89039" lon="6.44624">
        <ele>1694.94</ele>
        <time>2021-03-24T13:00:05Z</time>
      </trkpt>
      <trkpt lat="45.89044" lon="6.44625">
        <ele>1693.02</ele>
        <time>2021-03-24T13:00:06Z</time>
      </trkpt>
      <trkpt lat="45.8905" lon="6.44625">
        <ele>1693.02</ele>
        <time>2021-03-24T13:00:07Z</time>
      </trkpt>
      <trkpt lat="45.89055" lon="6.44628">
        <ele>1693.02</ele>
        <time>2021-03-24T13:00:08Z</time>
      </trkpt>
      <trkpt lat="45.8906" lon="6.4463">
        <ele>1691.58</ele>
        <time>2021-03-24T13:00:09Z</time>
      </trkpt>
      <trkpt lat="45.89066" lon="6.44632">
        <ele>1691.58</ele>
        <time>2021-03-24T13:00:10Z</time>
      </trkpt>
      <trkpt lat="45.89071" lon="6.44636">
        <ele>1690.62</ele>
        <time>2021-03-24T13:00:11Z</time>
      </trkpt>
      <trkpt lat="45.89076" lon="6.44639">
        <ele>1689.17</ele>
        <time>2021-03-24T13:00:12Z</time>
      </trkpt>
      <trkpt lat="45.89081" lon="6.44642">
        <ele>1688.69</ele>
        <time>2021-03-24T13:00:13Z</time>
      </trkpt>
      <trkpt lat="45.89085" lon="6.44646">
        <ele>1688.69</ele>
        <time>2021-03-24T13:00:14Z</time>
      </trkpt>
      <trkpt lat="45.89089" lon="6.4465">
        <ele>1687.25</ele>
        <time>2021-03-24T13:00:15Z</time>
      </trkpt>
      <trkpt lat="45.89095" lon="6.44652">
        <ele>1686.77</ele>
        <time>2021-03-24T13:00:16Z</time>
      </trkpt>
      <trkpt lat="45.891" lon="6.44655">
        <ele>1686.77</ele>
        <time>2021-03-24T13:00:17Z</time>
      </trkpt>
      <trkpt lat="45.89105" lon="6.44659">
        <ele>1685.33</ele>
        <time>2021-03-24T13:00:18Z</time>
      </trkpt>
      <trkpt lat="45.8911" lon="6.44662">
        <ele>1683.89</ele>
        <time>2021-03-24T13:00:19Z</time>
      </trkpt>
      <trkpt lat="45.89115" lon="6.44667">
        <ele>1683.41</ele>
        <time>2021-03-24T13:00:20Z</time>
      </trkpt>
      <trkpt lat="45.89119" lon="6.44671">
        <ele>1682.93</ele>
        <time>2021-03-24T13:00:21Z</time>
      </trkpt>
      <trkpt lat="45.8913" lon="6.44678">
        <ele>1681.48</ele>
        <time>2021-03-24T13:00:23Z</time>
      </trkpt>
      <trkpt lat="45.89135" lon="6.4468">
        <ele>1680.52</ele>
        <time>2021-03-24T13:00:24Z</time>
      </trkpt>
      <trkpt lat="45.89142" lon="6.44682">
        <ele>1680.52</ele>
        <time>2021-03-24T13:00:25Z</time>
      </trkpt>
      <trkpt lat="45.89146" lon="6.44686">
        <ele>1679.08</ele>
        <time>2021-03-24T13:00:26Z</time>
      </trkpt>
      <trkpt lat="45.89152" lon="6.4469">
        <ele>1678.6</ele>
        <time>2021-03-24T13:00:27Z</time>
      </trkpt>
      <trkpt lat="45.89158" lon="6.44692">
        <ele>1678.6</ele>
        <time>2021-03-24T13:00:28Z</time>
      </trkpt>
      <trkpt lat="45.89163" lon="6.44696">
        <ele>1677.16</ele>
        <time>2021-03-24T13:00:29Z</time>
      </trkpt>
      <trkpt lat="45.89168" lon="6.44699">
        <ele>1675.72</ele>
        <time>2021-03-24T13:00:30Z</time>
      </trkpt>
      <trkpt lat="45.89173" lon="6.44702">
        <ele>1675.72</ele>
        <time>2021-03-24T13:00:31Z</time>
      </trkpt>
      <trkpt lat="45.89177" lon="6.44707">
        <ele>1674.75</ele>
        <time>2021-03-24T13:00:32Z</time>
      </trkpt>
      <trkpt lat="45.89182" lon="6.4471">
        <ele>1672.83</ele>
        <time>2021-03-24T13:00:33Z</time>
      </trkpt>
      <trkpt lat="45.89187" lon="6.44713">
        <ele>1672.83</ele>
        <time>2021-03-24T13:00:34Z</time>
      </trkpt>
      <trkpt lat="45.89192" lon="6.44716">
        <ele>1671.87</ele>
        <time>2021-03-24T13:00:35Z</time>
      </trkpt>
      <trkpt lat="45.89198" lon="6.44718">
        <ele>1671.39</ele>
        <time>2021-03-24T13:00:36Z</time>
      </trkpt>
      <trkpt lat="45.89203" lon="6.44721">
        <ele>1670.91</ele>
        <time>2021-03-24T13:00:37Z</time>
      </trkpt>
      <trkpt lat="45.89209" lon="6.44723">
        <ele>1668.99</ele>
        <time>2021-03-24T13:00:38Z</time>
      </trkpt>
      <trkpt lat="45.89215" lon="6.44727">
        <ele>1668.99</ele>
        <time>2021-03-24T13:00:39Z</time>
      </trkpt>
      <trkpt lat="45.8922" lon="6.4473">
        <ele>1667.06</ele>
        <time>2021-03-24T13:00:40Z</time>
      </trkpt>
      <trkpt lat="45.89226" lon="6.44732">
        <ele>1666.1</ele>
        <time>2021-03-24T13:00:41Z</time>
      </trkpt>
      <trkpt lat="45.89232" lon="6.44735">
        <ele>1666.1</ele>
        <time>2021-03-24T13:00:42Z</time>
      </trkpt>
      <trkpt lat="45.89238" lon="6.44738">
        <ele>1663.7</ele>
        <time>2021-03-24T13:00:43Z</time>
      </trkpt>
      <trkpt lat="45.89244" lon="6.44741">
        <ele>1663.7</ele>
        <time>2021-03-24T13:00:44Z</time>
      </trkpt>
      <trkpt lat="45.89249" lon="6.44744">
        <ele>1662.26</ele>
        <time>2021-03-24T13:00:45Z</time>
      </trkpt>
      <trkpt lat="45.89255" lon="6.44747">
        <ele>1660.81</ele>
        <time>2021-03-24T13:00:46Z</time>
      </trkpt>
      <trkpt lat="45.8926" lon="6.44747">
        <ele>1660.33</ele>
        <time>2021-03-24T13:00:47Z</time>
      </trkpt>
      <trkpt lat="45.89264" lon="6.44746">
        <ele>1659.85</ele>
        <time>2021-03-24T13:00:48Z</time>
      </trkpt>
      <trkpt lat="45.8927" lon="6.44746">
        <ele>1658.41</ele>
        <time>2021-03-24T13:00:49Z</time>
      </trkpt>
      <trkpt lat="45.89273" lon="6.44744">
        <ele>1656.49</ele>
        <time>2021-03-24T13:00:50Z</time>
      </trkpt>
      <trkpt lat="45.89274" lon="6.44738">
        <ele>1655.05</ele>
        <time>2021-03-24T13:00:51Z</time>
      </trkpt>
      <trkpt lat="45.89275" lon="6.44731">
        <ele>1655.05</ele>
        <time>2021-03-24T13:00:52Z</time>
      </trkpt>
      <trkpt lat="45.89278" lon="6.44725">
        <ele>1652.16</ele>
        <time>2021-03-24T13:00:53Z</time>
      </trkpt>
      <trkpt lat="45.89282" lon="6.44722">
        <ele>1650.72</ele>
        <time>2021-03-24T13:00:54Z</time>
      </trkpt>
      <trkpt lat="45.89284" lon="6.44717">
        <ele>1649.28</ele>
        <time>2021-03-24T13:00:55Z</time>
      </trkpt>
      <trkpt lat="45.89285" lon="6.44712">
        <ele>1648.32</ele>
        <time>2021-03-24T13:00:56Z</time>
      </trkpt>
      <trkpt lat="45.89284" lon="6.44705">
        <ele>1645.91</ele>
        <time>2021-03-24T13:00:57Z</time>
      </trkpt>
      <trkpt lat="45.89281" lon="6.44701">
        <ele>1643.99</ele>
        <time>2021-03-24T13:00:58Z</time>
      </trkpt>
      <trkpt lat="45.89279" lon="6.44697">
        <ele>1643.99</ele>
        <time>2021-03-24T13:00:59Z</time>
      </trkpt>
      <trkpt lat="45.89278" lon="6.44692">
        <ele>1643.03</ele>
        <time>2021-03-24T13:01:00Z</time>
      </trkpt>
      <trkpt lat="45.8928" lon="6.4469">
        <ele>1642.07</ele>
        <time>2021-03-24T13:01:01Z</time>
      </trkpt>
      <trkpt lat="45.89283" lon="6.44688">
        <ele>1640.63</ele>
        <time>2021-03-24T13:01:02Z</time>
      </trkpt>
      <trkpt lat="45.89285" lon="6.44684">
        <ele>1639.67</ele>
        <time>2021-03-24T13:01:03Z</time>
      </trkpt>
      <trkpt lat="45.89285" lon="6.44679">
        <ele>1638.7</ele>
        <time>2021-03-24T13:01:04Z</time>
      </trkpt>
      <trkpt lat="45.89285" lon="6.44673">
        <ele>1637.26</ele>
        <time>2021-03-24T13:01:05Z</time>
      </trkpt>
      <trkpt lat="45.89287" lon="6.44667">
        <ele>1636.3</ele>
        <time>2021-03-24T13:01:06Z</time>
      </trkpt>
      <trkpt lat="45.89287" lon="6.44661">
        <ele>1634.38</ele>
        <time>2021-03-24T13:01:07Z</time>
      </trkpt>
      <trkpt lat="45.89287" lon="6.44655">
        <ele>1633.42</ele>
        <time>2021-03-24T13:01:08Z</time>
      </trkpt>
      <trkpt lat="45.89287" lon="6.44648">
        <ele>1631.49</ele>
        <time>2021-03-24T13:01:09Z</time>
      </trkpt>
      <trkpt lat="45.89286" lon="6.44636">
        <ele>1628.61</ele>
        <time>2021-03-24T13:01:11Z</time>
      </trkpt>
      <trkpt lat="45.89287" lon="6.44631">
        <ele>1626.69</ele>
        <time>2021-03-24T13:01:12Z</time>
      </trkpt>
      <trkpt lat="45.89286" lon="6.44628">
        <ele>1626.21</ele>
        <time>2021-03-24T13:01:13Z</time>
      </trkpt>
      <trkpt lat="45.89285" lon="6.44625">
        <ele>1625.73</ele>
        <time>2021-03-24T13:01:14Z</time>
      </trkpt>
      <trkpt lat="45.89284" lon="6.4462">
        <ele>1624.77</ele>
        <time>2021-03-24T13:01:15Z</time>
      </trkpt>
      <trkpt lat="45.89285" lon="6.44615">
        <ele>1624.28</ele>
        <time>2021-03-24T13:01:16Z</time>
      </trkpt>
      <trkpt lat="45.89287" lon="6.44612">
        <ele>1623.8</ele>
        <time>2021-03-24T13:01:17Z</time>
      </trkpt>
      <trkpt lat="45.89289" lon="6.44611">
        <ele>1623.8</ele>
        <time>2021-03-24T13:01:26Z</time>
      </trkpt>
      <trkpt lat="45.89289" lon="6.4461">
        <ele>1623.8</ele>
        <time>2021-03-24T13:01:48Z</time>
      </trkpt>
      <trkpt lat="45.89291" lon="6.4461">
        <ele>1623.8</ele>
        <time>2021-03-24T13:02:14Z</time>
      </trkpt>
      <trkpt lat="45.8929" lon="6.44611">
        <ele>1623.8</ele>
        <time>2021-03-24T13:02:41Z</time>
      </trkpt>
      <trkpt lat="45.8929" lon="6.4461">
        <ele>1623.8</ele>
        <time>2021-03-24T13:03:07Z</time>
      </trkpt>
      <trkpt lat="45.8929" lon="6.4461">
        <ele>1623.8</ele>
        <time>2021-03-24T13:03:31Z</time>
      </trkpt>
      <trkpt lat="45.8929" lon="6.44611">
        <ele>1623.32</ele>
        <time>2021-03-24T13:04:02Z</time>
      </trkpt>
      <trkpt lat="45.89291" lon="6.4461">
        <ele>1623.32</ele>
        <time>2021-03-24T13:04:24Z</time>
      </trkpt>
      <trkpt lat="45.89291" lon="6.44611">
        <ele>1623.32</ele>
        <time>2021-03-24T13:04:51Z</time>
      </trkpt>
      <trkpt lat="45.8929" lon="6.44611">
        <ele>1623.32</ele>
        <time>2021-03-24T13:05:14Z</time>
      </trkpt>
      <trkpt lat="45.89291" lon="6.44612">
        <ele>1623.32</ele>
        <time>2021-03-24T13:05:41Z</time>
      </trkpt>
      <trkpt lat="45.89296" lon="6.4461">
        <ele>1622.84</ele>
        <time>2021-03-24T13:06:01Z</time>
      </trkpt>
      <trkpt lat="45.89302" lon="6.44612">
        <ele>1621.4</ele>
        <time>2021-03-24T13:06:03Z</time>
      </trkpt>
      <trkpt lat="45.89305" lon="6.44614">
        <ele>1621.4</ele>
        <time>2021-03-24T13:06:04Z</time>
      </trkpt>
      <trkpt lat="45.89309" lon="6.44616">
        <ele>1619.96</ele>
        <time>2021-03-24T13:06:05Z</time>
      </trkpt>
      <trkpt lat="45.89312" lon="6.44618">
        <ele>1619.48</ele>
        <time>2021-03-24T13:06:06Z</time>
      </trkpt>
      <trkpt lat="45.89314" lon="6.44621">
        <ele>1619.48</ele>
        <time>2021-03-24T13:06:07Z</time>
      </trkpt>
      <trkpt lat="45.89316" lon="6.4462">
        <ele>1619</ele>
        <time>2021-03-24T13:06:08Z</time>
      </trkpt>
      <trkpt lat="45.89319" lon="6.44619">
        <ele>1618.04</ele>
        <time>2021-03-24T13:06:09Z</time>
      </trkpt>
      <trkpt lat="45.89323" lon="6.44619">
        <ele>1617.07</ele>
        <time>2021-03-24T13:06:10Z</time>
      </trkpt>
      <trkpt lat="45.89325" lon="6.44622">
        <ele>1616.11</ele>
        <time>2021-03-24T13:06:11Z</time>
      </trkpt>
      <trkpt lat="45.89327" lon="6.44624">
        <ele>1615.63</ele>
        <time>2021-03-24T13:06:12Z</time>
      </trkpt>
      <trkpt lat="45.89331" lon="6.44623">
        <ele>1614.19</ele>
        <time>2021-03-24T13:06:13Z</time>
      </trkpt>
      <trkpt lat="45.89334" lon="6.44624">
        <ele>1613.23</ele>
        <time>2021-03-24T13:06:14Z</time>
      </trkpt>
      <trkpt lat="45.89339" lon="6.44626">
        <ele>1612.27</ele>
        <time>2021-03-24T13:06:15Z</time>
      </trkpt>
      <trkpt lat="45.89344" lon="6.44626">
        <ele>1610.35</ele>
        <time>2021-03-24T13:06:16Z</time>
      </trkpt>
      <trkpt lat="45.89349" lon="6.44628">
        <ele>1608.42</ele>
        <time>2021-03-24T13:06:17Z</time>
      </trkpt>
      <trkpt lat="45.89353" lon="6.44629">
        <ele>1606.98</ele>
        <time>2021-03-24T13:06:18Z</time>
      </trkpt>
      <trkpt lat="45.89365" lon="6.44622">
        <ele>1603.14</ele>
        <time>2021-03-24T13:06:21Z</time>
      </trkpt>
      <trkpt lat="45.89367" lon="6.44607">
        <ele>1599.77</ele>
        <time>2021-03-24T13:06:24Z</time>
      </trkpt>
      <trkpt lat="45.89365" lon="6.44589">
        <ele>1596.41</ele>
        <time>2021-03-24T13:06:27Z</time>
      </trkpt>
      <trkpt lat="45.89362" lon="6.44585">
        <ele>1594.96</ele>
        <time>2021-03-24T13:06:28Z</time>
      </trkpt>
      <trkpt lat="45.8936" lon="6.44579">
        <ele>1594.96</ele>
        <time>2021-03-24T13:06:29Z</time>
      </trkpt>
      <trkpt lat="45.89359" lon="6.44572">
        <ele>1593.52</ele>
        <time>2021-03-24T13:06:30Z</time>
      </trkpt>
      <trkpt lat="45.89357" lon="6.44566">
        <ele>1593.04</ele>
        <time>2021-03-24T13:06:31Z</time>
      </trkpt>
      <trkpt lat="45.89355" lon="6.4456">
        <ele>1592.56</ele>
        <time>2021-03-24T13:06:32Z</time>
      </trkpt>
      <trkpt lat="45.89356" lon="6.44553">
        <ele>1590.64</ele>
        <time>2021-03-24T13:06:33Z</time>
      </trkpt>
      <trkpt lat="45.89355" lon="6.44547">
        <ele>1589.68</ele>
        <time>2021-03-24T13:06:34Z</time>
      </trkpt>
      <trkpt lat="45.89354" lon="6.44541">
        <ele>1589.2</ele>
        <time>2021-03-24T13:06:35Z</time>
      </trkpt>
      <trkpt lat="45.89354" lon="6.44535">
        <ele>1588.72</ele>
        <time>2021-03-24T13:06:36Z</time>
      </trkpt>
      <trkpt lat="45.89354" lon="6.4453">
        <ele>1588.24</ele>
        <time>2021-03-24T13:06:37Z</time>
      </trkpt>
      <trkpt lat="45.89356" lon="6.44525">
        <ele>1588.24</ele>
        <time>2021-03-24T13:06:38Z</time>
      </trkpt>
      <trkpt lat="45.89358" lon="6.44523">
        <ele>1587.27</ele>
        <time>2021-03-24T13:06:39Z</time>
      </trkpt>
      <trkpt lat="45.8936" lon="6.44524">
        <ele>1587.27</ele>
        <time>2021-03-24T13:06:49Z</time>
      </trkpt>
      <trkpt lat="45.89361" lon="6.44521">
        <ele>1587.27</ele>
        <time>2021-03-24T13:06:56Z</time>
      </trkpt>
      <trkpt lat="45.8936" lon="6.44517">
        <ele>1586.31</ele>
        <time>2021-03-24T13:06:57Z</time>
      </trkpt>
      <trkpt lat="45.89352" lon="6.44497">
        <ele>1585.35</ele>
        <time>2021-03-24T13:07:01Z</time>
      </trkpt>
      <trkpt lat="45.89347" lon="6.4448">
        <ele>1584.39</ele>
        <time>2021-03-24T13:07:04Z</time>
      </trkpt>
      <trkpt lat="45.89344" lon="6.44464">
        <ele>1581.51</ele>
        <time>2021-03-24T13:07:06Z</time>
      </trkpt>
      <trkpt lat="45.89343" lon="6.44455">
        <ele>1581.51</ele>
        <time>2021-03-24T13:07:07Z</time>
      </trkpt>
      <trkpt lat="45.89342" lon="6.44447">
        <ele>1579.1</ele>
        <time>2021-03-24T13:07:08Z</time>
      </trkpt>
      <trkpt lat="45.89341" lon="6.44438">
        <ele>1578.14</ele>
        <time>2021-03-24T13:07:09Z</time>
      </trkpt>
      <trkpt lat="45.89342" lon="6.4443">
        <ele>1577.66</ele>
        <time>2021-03-24T13:07:10Z</time>
      </trkpt>
      <trkpt lat="45.89342" lon="6.44422">
        <ele>1575.74</ele>
        <time>2021-03-24T13:07:11Z</time>
      </trkpt>
      <trkpt lat="45.89341" lon="6.44412">
        <ele>1575.26</ele>
        <time>2021-03-24T13:07:12Z</time>
      </trkpt>
      <trkpt lat="45.89341" lon="6.44403">
        <ele>1574.78</ele>
        <time>2021-03-24T13:07:13Z</time>
      </trkpt>
      <trkpt lat="45.89342" lon="6.44395">
        <ele>1573.33</ele>
        <time>2021-03-24T13:07:14Z</time>
      </trkpt>
      <trkpt lat="45.89344" lon="6.44386">
        <ele>1571.89</ele>
        <time>2021-03-24T13:07:15Z</time>
      </trkpt>
      <trkpt lat="45.89347" lon="6.44377">
        <ele>1570.45</ele>
        <time>2021-03-24T13:07:16Z</time>
      </trkpt>
      <trkpt lat="45.89352" lon="6.4437">
        <ele>1570.45</ele>
        <time>2021-03-24T13:07:17Z</time>
      </trkpt>
      <trkpt lat="45.89356" lon="6.44365">
        <ele>1569.01</ele>
        <time>2021-03-24T13:07:18Z</time>
      </trkpt>
      <trkpt lat="45.89362" lon="6.4436">
        <ele>1568.53</ele>
        <time>2021-03-24T13:07:19Z</time>
      </trkpt>
      <trkpt lat="45.89367" lon="6.44361">
        <ele>1567.09</ele>
        <time>2021-03-24T13:07:20Z</time>
      </trkpt>
      <trkpt lat="45.89372" lon="6.44361">
        <ele>1566.12</ele>
        <time>2021-03-24T13:07:21Z</time>
      </trkpt>
      <trkpt lat="45.89378" lon="6.4436">
        <ele>1565.64</ele>
        <time>2021-03-24T13:07:22Z</time>
      </trkpt>
      <trkpt lat="45.89384" lon="6.44361">
        <ele>1563.72</ele>
        <time>2021-03-24T13:07:23Z</time>
      </trkpt>
      <trkpt lat="45.8939" lon="6.44361">
        <ele>1563.72</ele>
        <time>2021-03-24T13:07:24Z</time>
      </trkpt>
      <trkpt lat="45.89394" lon="6.44363">
        <ele>1562.76</ele>
        <time>2021-03-24T13:07:25Z</time>
      </trkpt>
      <trkpt lat="45.89399" lon="6.44364">
        <ele>1561.32</ele>
        <time>2021-03-24T13:07:26Z</time>
      </trkpt>
      <trkpt lat="45.89403" lon="6.44366">
        <ele>1561.32</ele>
        <time>2021-03-24T13:07:27Z</time>
      </trkpt>
      <trkpt lat="45.89407" lon="6.44369">
        <ele>1560.36</ele>
        <time>2021-03-24T13:07:28Z</time>
      </trkpt>
      <trkpt lat="45.8941" lon="6.4437">
        <ele>1559.88</ele>
        <time>2021-03-24T13:07:29Z</time>
      </trkpt>
      <trkpt lat="45.89414" lon="6.44369">
        <ele>1559.4</ele>
        <time>2021-03-24T13:07:30Z</time>
      </trkpt>
      <trkpt lat="45.89418" lon="6.4437">
        <ele>1558.43</ele>
        <time>2021-03-24T13:07:31Z</time>
      </trkpt>
      <trkpt lat="45.89423" lon="6.44369">
        <ele>1557.47</ele>
        <time>2021-03-24T13:07:32Z</time>
      </trkpt>
      <trkpt lat="45.89429" lon="6.44369">
        <ele>1556.03</ele>
        <time>2021-03-24T13:07:33Z</time>
      </trkpt>
      <trkpt lat="45.89435" lon="6.44367">
        <ele>1554.11</ele>
        <time>2021-03-24T13:07:34Z</time>
      </trkpt>
      <trkpt lat="45.89442" lon="6.44365">
        <ele>1553.63</ele>
        <time>2021-03-24T13:07:35Z</time>
      </trkpt>
      <trkpt lat="45.89449" lon="6.44361">
        <ele>1551.71</ele>
        <time>2021-03-24T13:07:36Z</time>
      </trkpt>
      <trkpt lat="45.89456" lon="6.44355">
        <ele>1551.71</ele>
        <time>2021-03-24T13:07:37Z</time>
      </trkpt>
      <trkpt lat="45.89461" lon="6.4435">
        <ele>1549.78</ele>
        <time>2021-03-24T13:07:38Z</time>
      </trkpt>
      <trkpt lat="45.89466" lon="6.44344">
        <ele>1549.78</ele>
        <time>2021-03-24T13:07:39Z</time>
      </trkpt>
      <trkpt lat="45.89472" lon="6.44339">
        <ele>1548.82</ele>
        <time>2021-03-24T13:07:40Z</time>
      </trkpt>
      <trkpt lat="45.89477" lon="6.44334">
        <ele>1547.38</ele>
        <time>2021-03-24T13:07:41Z</time>
      </trkpt>
      <trkpt lat="45.89483" lon="6.44329">
        <ele>1546.42</ele>
        <time>2021-03-24T13:07:42Z</time>
      </trkpt>
      <trkpt lat="45.89488" lon="6.44324">
        <ele>1544.01</ele>
        <time>2021-03-24T13:07:43Z</time>
      </trkpt>
      <trkpt lat="45.89494" lon="6.4432">
        <ele>1544.01</ele>
        <time>2021-03-24T13:07:44Z</time>
      </trkpt>
      <trkpt lat="45.895" lon="6.44316">
        <ele>1542.57</ele>
        <time>2021-03-24T13:07:45Z</time>
      </trkpt>
      <trkpt lat="45.89505" lon="6.44311">
        <ele>1542.57</ele>
        <time>2021-03-24T13:07:46Z</time>
      </trkpt>
      <trkpt lat="45.89511" lon="6.44306">
        <ele>1541.13</ele>
        <time>2021-03-24T13:07:47Z</time>
      </trkpt>
      <trkpt lat="45.89518" lon="6.44301">
        <ele>1539.21</ele>
        <time>2021-03-24T13:07:48Z</time>
      </trkpt>
      <trkpt lat="45.89522" lon="6.44297">
        <ele>1539.69</ele>
        <time>2021-03-24T13:07:49Z</time>
      </trkpt>
      <trkpt lat="45.89527" lon="6.44293">
        <ele>1538.25</ele>
        <time>2021-03-24T13:07:50Z</time>
      </trkpt>
      <trkpt lat="45.89532" lon="6.44288">
        <ele>1537.29</ele>
        <time>2021-03-24T13:07:51Z</time>
      </trkpt>
      <trkpt lat="45.89537" lon="6.44284">
        <ele>1537.29</ele>
        <time>2021-03-24T13:07:52Z</time>
      </trkpt>
      <trkpt lat="45.89541" lon="6.4428">
        <ele>1535.36</ele>
        <time>2021-03-24T13:07:53Z</time>
      </trkpt>
      <trkpt lat="45.89545" lon="6.44274">
        <ele>1535.36</ele>
        <time>2021-03-24T13:07:54Z</time>
      </trkpt>
      <trkpt lat="45.89549" lon="6.44271">
        <ele>1534.88</ele>
        <time>2021-03-24T13:07:55Z</time>
      </trkpt>
      <trkpt lat="45.89553" lon="6.44269">
        <ele>1533.44</ele>
        <time>2021-03-24T13:07:56Z</time>
      </trkpt>
      <trkpt lat="45.89556" lon="6.44265">
        <ele>1533.44</ele>
        <time>2021-03-24T13:07:57Z</time>
      </trkpt>
      <trkpt lat="45.8956" lon="6.44261">
        <ele>1532.96</ele>
        <time>2021-03-24T13:07:58Z</time>
      </trkpt>
      <trkpt lat="45.89567" lon="6.44253">
        <ele>1532</ele>
        <time>2021-03-24T13:08:00Z</time>
      </trkpt>
      <trkpt lat="45.89572" lon="6.44248">
        <ele>1532</ele>
        <time>2021-03-24T13:08:01Z</time>
      </trkpt>
      <trkpt lat="45.89574" lon="6.44242">
        <ele>1530.08</ele>
        <time>2021-03-24T13:08:02Z</time>
      </trkpt>
      <trkpt lat="45.89576" lon="6.44239">
        <ele>1530.56</ele>
        <time>2021-03-24T13:08:03Z</time>
      </trkpt>
      <trkpt lat="45.89579" lon="6.44236">
        <ele>1529.11</ele>
        <time>2021-03-24T13:08:04Z</time>
      </trkpt>
      <trkpt lat="45.89582" lon="6.44232">
        <ele>1528.15</ele>
        <time>2021-03-24T13:08:05Z</time>
      </trkpt>
      <trkpt lat="45.89588" lon="6.44221">
        <ele>1527.19</ele>
        <time>2021-03-24T13:08:07Z</time>
      </trkpt>
      <trkpt lat="45.89597" lon="6.44205">
        <ele>1524.79</ele>
        <time>2021-03-24T13:08:10Z</time>
      </trkpt>
      <trkpt lat="45.89605" lon="6.44189">
        <ele>1519.5</ele>
        <time>2021-03-24T13:08:12Z</time>
      </trkpt>
      <trkpt lat="45.89607" lon="6.44178">
        <ele>1517.1</ele>
        <time>2021-03-24T13:08:13Z</time>
      </trkpt>
      <trkpt lat="45.89609" lon="6.44172">
        <ele>1517.58</ele>
        <time>2021-03-24T13:08:14Z</time>
      </trkpt>
      <trkpt lat="45.89612" lon="6.44168">
        <ele>1516.14</ele>
        <time>2021-03-24T13:08:15Z</time>
      </trkpt>
      <trkpt lat="45.89613" lon="6.44165">
        <ele>1516.62</ele>
        <time>2021-03-24T13:08:16Z</time>
      </trkpt>
      <trkpt lat="45.89613" lon="6.44162">
        <ele>1516.14</ele>
        <time>2021-03-24T13:08:17Z</time>
      </trkpt>
      <trkpt lat="45.89614" lon="6.44159">
        <ele>1516.14</ele>
        <time>2021-03-24T13:08:18Z</time>
      </trkpt>
      <trkpt lat="45.89615" lon="6.44158">
        <ele>1515.66</ele>
        <time>2021-03-24T13:08:31Z</time>
      </trkpt>
      <trkpt lat="45.89616" lon="6.44156">
        <ele>1515.66</ele>
        <time>2021-03-24T13:08:53Z</time>
      </trkpt>
      <trkpt lat="45.89617" lon="6.44153">
        <ele>1515.18</ele>
        <time>2021-03-24T13:08:54Z</time>
      </trkpt>
      <trkpt lat="45.8962" lon="6.44143">
        <ele>1512.29</ele>
        <time>2021-03-24T13:08:56Z</time>
      </trkpt>
      <trkpt lat="45.89621" lon="6.44138">
        <ele>1512.29</ele>
        <time>2021-03-24T13:08:57Z</time>
      </trkpt>
      <trkpt lat="45.89624" lon="6.44131">
        <ele>1511.81</ele>
        <time>2021-03-24T13:08:58Z</time>
      </trkpt>
      <trkpt lat="45.89626" lon="6.44125">
        <ele>1509.89</ele>
        <time>2021-03-24T13:08:59Z</time>
      </trkpt>
      <trkpt lat="45.89627" lon="6.44118">
        <ele>1507.97</ele>
        <time>2021-03-24T13:09:00Z</time>
      </trkpt>
      <trkpt lat="45.89631" lon="6.44112">
        <ele>1505.08</ele>
        <time>2021-03-24T13:09:01Z</time>
      </trkpt>
      <trkpt lat="45.89635" lon="6.44106">
        <ele>1505.08</ele>
        <time>2021-03-24T13:09:02Z</time>
      </trkpt>
      <trkpt lat="45.89638" lon="6.44099">
        <ele>1503.16</ele>
        <time>2021-03-24T13:09:03Z</time>
      </trkpt>
      <trkpt lat="45.89642" lon="6.44094">
        <ele>1502.2</ele>
        <time>2021-03-24T13:09:04Z</time>
      </trkpt>
      <trkpt lat="45.89646" lon="6.4409">
        <ele>1501.24</ele>
        <time>2021-03-24T13:09:05Z</time>
      </trkpt>
      <trkpt lat="45.89649" lon="6.44083">
        <ele>1501.24</ele>
        <time>2021-03-24T13:09:06Z</time>
      </trkpt>
      <trkpt lat="45.89654" lon="6.44078">
        <ele>1500.76</ele>
        <time>2021-03-24T13:09:07Z</time>
      </trkpt>
      <trkpt lat="45.89658" lon="6.44076">
        <ele>1500.27</ele>
        <time>2021-03-24T13:09:08Z</time>
      </trkpt>
      <trkpt lat="45.89661" lon="6.44074">
        <ele>1499.31</ele>
        <time>2021-03-24T13:09:09Z</time>
      </trkpt>
      <trkpt lat="45.89663" lon="6.4407">
        <ele>1499.31</ele>
        <time>2021-03-24T13:09:10Z</time>
      </trkpt>
      <trkpt lat="45.89666" lon="6.44069">
        <ele>1499.31</ele>
        <time>2021-03-24T13:09:11Z</time>
      </trkpt>
      <trkpt lat="45.8967" lon="6.44068">
        <ele>1499.31</ele>
        <time>2021-03-24T13:09:12Z</time>
      </trkpt>
      <trkpt lat="45.89672" lon="6.44066">
        <ele>1498.35</ele>
        <time>2021-03-24T13:09:13Z</time>
      </trkpt>
      <trkpt lat="45.89677" lon="6.44043">
        <ele>1494.51</ele>
        <time>2021-03-24T13:09:19Z</time>
      </trkpt>
      <trkpt lat="45.89677" lon="6.44032">
        <ele>1493.55</ele>
        <time>2021-03-24T13:09:21Z</time>
      </trkpt>
      <trkpt lat="45.89678" lon="6.4402">
        <ele>1490.18</ele>
        <time>2021-03-24T13:09:22Z</time>
      </trkpt>
      <trkpt lat="45.89678" lon="6.44005">
        <ele>1486.82</ele>
        <time>2021-03-24T13:09:25Z</time>
      </trkpt>
      <trkpt lat="45.89683" lon="6.43992">
        <ele>1482.97</ele>
        <time>2021-03-24T13:09:26Z</time>
      </trkpt>
      <trkpt lat="45.89682" lon="6.4398">
        <ele>1480.57</ele>
        <time>2021-03-24T13:09:28Z</time>
      </trkpt>
      <trkpt lat="45.89687" lon="6.43958">
        <ele>1474.32</ele>
        <time>2021-03-24T13:09:32Z</time>
      </trkpt>
      <trkpt lat="45.89692" lon="6.43941">
        <ele>1469.03</ele>
        <time>2021-03-24T13:09:34Z</time>
      </trkpt>
      <trkpt lat="45.89698" lon="6.43923">
        <ele>1463.26</ele>
        <time>2021-03-24T13:09:35Z</time>
      </trkpt>
      <trkpt lat="45.89707" lon="6.43912">
        <ele>1459.42</ele>
        <time>2021-03-24T13:09:37Z</time>
      </trkpt>
      <trkpt lat="45.89715" lon="6.439">
        <ele>1454.61</ele>
        <time>2021-03-24T13:09:39Z</time>
      </trkpt>
      <trkpt lat="45.8972" lon="6.43893">
        <ele>1454.61</ele>
        <time>2021-03-24T13:09:41Z</time>
      </trkpt>
      <trkpt lat="45.89727" lon="6.43878">
        <ele>1450.29</ele>
        <time>2021-03-24T13:09:42Z</time>
      </trkpt>
      <trkpt lat="45.89732" lon="6.43869">
        <ele>1446.44</ele>
        <time>2021-03-24T13:09:43Z</time>
      </trkpt>
      <trkpt lat="45.89744" lon="6.43848">
        <ele>1438.75</ele>
        <time>2021-03-24T13:09:46Z</time>
      </trkpt>
      <trkpt lat="45.89748" lon="6.4384">
        <ele>1438.75</ele>
        <time>2021-03-24T13:09:47Z</time>
      </trkpt>
      <trkpt lat="45.89755" lon="6.43834">
        <ele>1434.91</ele>
        <time>2021-03-24T13:09:48Z</time>
      </trkpt>
      <trkpt lat="45.8976" lon="6.43834">
        <ele>1432.5</ele>
        <time>2021-03-24T13:09:49Z</time>
      </trkpt>
      <trkpt lat="45.89764" lon="6.43833">
        <ele>1432.02</ele>
        <time>2021-03-24T13:09:50Z</time>
      </trkpt>
      <trkpt lat="45.89769" lon="6.43832">
        <ele>1431.54</ele>
        <time>2021-03-24T13:09:51Z</time>
      </trkpt>
      <trkpt lat="45.89774" lon="6.43831">
        <ele>1430.58</ele>
        <time>2021-03-24T13:09:52Z</time>
      </trkpt>
      <trkpt lat="45.8978" lon="6.43831">
        <ele>1430.58</ele>
        <time>2021-03-24T13:09:53Z</time>
      </trkpt>
      <trkpt lat="45.89788" lon="6.43835">
        <ele>1428.66</ele>
        <time>2021-03-24T13:09:56Z</time>
      </trkpt>
      <trkpt lat="45.89799" lon="6.43846">
        <ele>1427.7</ele>
        <time>2021-03-24T13:10:11Z</time>
      </trkpt>
      <trkpt lat="45.89811" lon="6.4384">
        <ele>1423.37</ele>
        <time>2021-03-24T13:10:15Z</time>
      </trkpt>
      <trkpt lat="45.89826" lon="6.43839">
        <ele>1418.08</ele>
        <time>2021-03-24T13:10:19Z</time>
      </trkpt>
      <trkpt lat="45.89836" lon="6.43832">
        <ele>1413.76</ele>
        <time>2021-03-24T13:10:22Z</time>
      </trkpt>
      <trkpt lat="45.89848" lon="6.43825">
        <ele>1408.47</ele>
        <time>2021-03-24T13:10:25Z</time>
      </trkpt>
      <trkpt lat="45.89852" lon="6.43821">
        <ele>1407.51</ele>
        <time>2021-03-24T13:10:26Z</time>
      </trkpt>
      <trkpt lat="45.89862" lon="6.4382">
        <ele>1404.14</ele>
        <time>2021-03-24T13:10:29Z</time>
      </trkpt>
      <trkpt lat="45.89871" lon="6.43819">
        <ele>1401.74</ele>
        <time>2021-03-24T13:10:34Z</time>
      </trkpt>
      <trkpt lat="45.89873" lon="6.4382">
        <ele>1401.74</ele>
        <time>2021-03-24T13:11:00Z</time>
      </trkpt>
      <trkpt lat="45.89873" lon="6.43819">
        <ele>1401.74</ele>
        <time>2021-03-24T13:11:28Z</time>
      </trkpt>
      <trkpt lat="45.89873" lon="6.43818">
        <ele>1401.74</ele>
        <time>2021-03-24T13:11:32Z</time>
      </trkpt>
      <trkpt lat="45.89874" lon="6.43784">
        <ele>1396.93</ele>
        <time>2021-03-24T13:11:39Z</time>
      </trkpt>
      <trkpt lat="45.89877" lon="6.43779">
        <ele>1396.93</ele>
        <time>2021-03-24T13:11:40Z</time>
      </trkpt>
      <trkpt lat="45.89879" lon="6.43774">
        <ele>1394.53</ele>
        <time>2021-03-24T13:11:41Z</time>
      </trkpt>
      <trkpt lat="45.89882" lon="6.4374">
        <ele>1390.68</ele>
        <time>2021-03-24T13:11:47Z</time>
      </trkpt>
      <trkpt lat="45.89884" lon="6.43729">
        <ele>1387.8</ele>
        <time>2021-03-24T13:11:49Z</time>
      </trkpt>
      <trkpt lat="45.89885" lon="6.43724">
        <ele>1383.96</ele>
        <time>2021-03-24T13:11:50Z</time>
      </trkpt>
      <trkpt lat="45.89887" lon="6.43719">
        <ele>1383.96</ele>
        <time>2021-03-24T13:11:51Z</time>
      </trkpt>
      <trkpt lat="45.89889" lon="6.43713">
        <ele>1380.59</ele>
        <time>2021-03-24T13:11:52Z</time>
      </trkpt>
      <trkpt lat="45.89891" lon="6.43707">
        <ele>1380.59</ele>
        <time>2021-03-24T13:11:53Z</time>
      </trkpt>
      <trkpt lat="45.89896" lon="6.43696">
        <ele>1376.26</ele>
        <time>2021-03-24T13:11:55Z</time>
      </trkpt>
      <trkpt lat="45.89899" lon="6.43696">
        <ele>1373.38</ele>
        <time>2021-03-24T13:11:58Z</time>
      </trkpt>
      <trkpt lat="45.89902" lon="6.43696">
        <ele>1372.9</ele>
        <time>2021-03-24T13:12:00Z</time>
      </trkpt>
      <trkpt lat="45.89909" lon="6.43686">
        <ele>1369.05</ele>
        <time>2021-03-24T13:12:03Z</time>
      </trkpt>
      <trkpt lat="45.89915" lon="6.43678">
        <ele>1365.21</ele>
        <time>2021-03-24T13:12:05Z</time>
      </trkpt>
      <trkpt lat="45.89918" lon="6.43668">
        <ele>1363.29</ele>
        <time>2021-03-24T13:12:07Z</time>
      </trkpt>
      <trkpt lat="45.8992" lon="6.43657">
        <ele>1358.48</ele>
        <time>2021-03-24T13:12:09Z</time>
      </trkpt>
      <trkpt lat="45.89922" lon="6.43653">
        <ele>1358.48</ele>
        <time>2021-03-24T13:12:10Z</time>
      </trkpt>
      <trkpt lat="45.89928" lon="6.43643">
        <ele>1354.15</ele>
        <time>2021-03-24T13:12:12Z</time>
      </trkpt>
      <trkpt lat="45.89931" lon="6.43637">
        <ele>1354.15</ele>
        <time>2021-03-24T13:12:13Z</time>
      </trkpt>
      <trkpt lat="45.89934" lon="6.4363">
        <ele>1350.79</ele>
        <time>2021-03-24T13:12:14Z</time>
      </trkpt>
      <trkpt lat="45.89946" lon="6.43607">
        <ele>1341.66</ele>
        <time>2021-03-24T13:12:18Z</time>
      </trkpt>
      <trkpt lat="45.89949" lon="6.436">
        <ele>1341.66</ele>
        <time>2021-03-24T13:12:19Z</time>
      </trkpt>
      <trkpt lat="45.89962" lon="6.43584">
        <ele>1333.49</ele>
        <time>2021-03-24T13:12:22Z</time>
      </trkpt>
      <trkpt lat="45.89965" lon="6.43578">
        <ele>1331.56</ele>
        <time>2021-03-24T13:12:23Z</time>
      </trkpt>
      <trkpt lat="45.89977" lon="6.43555">
        <ele>1324.83</ele>
        <time>2021-03-24T13:12:27Z</time>
      </trkpt>
      <trkpt lat="45.89982" lon="6.43549">
        <ele>1320.51</ele>
        <time>2021-03-24T13:12:28Z</time>
      </trkpt>
      <trkpt lat="45.89989" lon="6.43538">
        <ele>1318.59</ele>
        <time>2021-03-24T13:12:30Z</time>
      </trkpt>
      <trkpt lat="45.89992" lon="6.43532">
        <ele>1315.7</ele>
        <time>2021-03-24T13:12:31Z</time>
      </trkpt>
      <trkpt lat="45.90001" lon="6.43513">
        <ele>1310.41</ele>
        <time>2021-03-24T13:12:34Z</time>
      </trkpt>
      <trkpt lat="45.90008" lon="6.43508">
        <ele>1307.05</ele>
        <time>2021-03-24T13:12:36Z</time>
      </trkpt>
      <trkpt lat="45.9001" lon="6.4351">
        <ele>1305.61</ele>
        <time>2021-03-24T13:12:37Z</time>
      </trkpt>
      <trkpt lat="45.90015" lon="6.4351">
        <ele>1306.09</ele>
        <time>2021-03-24T13:12:48Z</time>
      </trkpt>
      <trkpt lat="45.90015" lon="6.43499">
        <ele>1303.2</ele>
        <time>2021-03-24T13:12:51Z</time>
      </trkpt>
      <trkpt lat="45.90016" lon="6.43487">
        <ele>1302.24</ele>
        <time>2021-03-24T13:12:53Z</time>
      </trkpt>
      <trkpt lat="45.90023" lon="6.43478">
        <ele>1298.88</ele>
        <time>2021-03-24T13:12:55Z</time>
      </trkpt>
      <trkpt lat="45.90035" lon="6.43462">
        <ele>1294.07</ele>
        <time>2021-03-24T13:12:58Z</time>
      </trkpt>
      <trkpt lat="45.90045" lon="6.43449">
        <ele>1289.27</ele>
        <time>2021-03-24T13:13:01Z</time>
      </trkpt>
      <trkpt lat="45.90054" lon="6.43439">
        <ele>1285.9</ele>
        <time>2021-03-24T13:13:03Z</time>
      </trkpt>
      <trkpt lat="45.90058" lon="6.43435">
        <ele>1281.57</ele>
        <time>2021-03-24T13:13:04Z</time>
      </trkpt>
      <trkpt lat="45.90067" lon="6.43418">
        <ele>1276.29</ele>
        <time>2021-03-24T13:13:07Z</time>
      </trkpt>
      <trkpt lat="45.90077" lon="6.43403">
        <ele>1271.48</ele>
        <time>2021-03-24T13:13:10Z</time>
      </trkpt>
      <trkpt lat="45.90087" lon="6.43385">
        <ele>1266.67</ele>
        <time>2021-03-24T13:13:13Z</time>
      </trkpt>
      <trkpt lat="45.90094" lon="6.43372">
        <ele>1263.31</ele>
        <time>2021-03-24T13:13:15Z</time>
      </trkpt>
      <trkpt lat="45.901" lon="6.43359">
        <ele>1259.46</ele>
        <time>2021-03-24T13:13:17Z</time>
      </trkpt>
      <trkpt lat="45.90107" lon="6.43349">
        <ele>1256.1</ele>
        <time>2021-03-24T13:13:19Z</time>
      </trkpt>
      <trkpt lat="45.90113" lon="6.43336">
        <ele>1252.25</ele>
        <time>2021-03-24T13:13:21Z</time>
      </trkpt>
      <trkpt lat="45.90121" lon="6.43326">
        <ele>1248.89</ele>
        <time>2021-03-24T13:13:23Z</time>
      </trkpt>
      <trkpt lat="45.90124" lon="6.43319">
        <ele>1245.53</ele>
        <time>2021-03-24T13:13:24Z</time>
      </trkpt>
      <trkpt lat="45.90127" lon="6.43313">
        <ele>1244.08</ele>
        <time>2021-03-24T13:13:25Z</time>
      </trkpt>
      <trkpt lat="45.90142" lon="6.43287">
        <ele>1236.39</ele>
        <time>2021-03-24T13:13:29Z</time>
      </trkpt>
      <trkpt lat="45.90147" lon="6.43281">
        <ele>1233.51</ele>
        <time>2021-03-24T13:13:30Z</time>
      </trkpt>
      <trkpt lat="45.90157" lon="6.43273">
        <ele>1228.7</ele>
        <time>2021-03-24T13:13:32Z</time>
      </trkpt>
      <trkpt lat="45.90171" lon="6.43243">
        <ele>1220.53</ele>
        <time>2021-03-24T13:13:36Z</time>
      </trkpt>
      <trkpt lat="45.90182" lon="6.43218">
        <ele>1214.76</ele>
        <time>2021-03-24T13:13:39Z</time>
      </trkpt>
      <trkpt lat="45.90193" lon="6.43211">
        <ele>1209.96</ele>
        <time>2021-03-24T13:13:41Z</time>
      </trkpt>
      <trkpt lat="45.90197" lon="6.43206">
        <ele>1208.51</ele>
        <time>2021-03-24T13:13:42Z</time>
      </trkpt>
      <trkpt lat="45.90201" lon="6.432">
        <ele>1208.51</ele>
        <time>2021-03-24T13:13:43Z</time>
      </trkpt>
      <trkpt lat="45.90205" lon="6.43195">
        <ele>1207.07</ele>
        <time>2021-03-24T13:13:44Z</time>
      </trkpt>
      <trkpt lat="45.90209" lon="6.43189">
        <ele>1205.15</ele>
        <time>2021-03-24T13:13:45Z</time>
      </trkpt>
      <trkpt lat="45.90211" lon="6.43181">
        <ele>1203.71</ele>
        <time>2021-03-24T13:13:46Z</time>
      </trkpt>
      <trkpt lat="45.90218" lon="6.43166">
        <ele>1198.9</ele>
        <time>2021-03-24T13:13:48Z</time>
      </trkpt>
      <trkpt lat="45.90222" lon="6.43149">
        <ele>1197.46</ele>
        <time>2021-03-24T13:13:50Z</time>
      </trkpt>
      <trkpt lat="45.90226" lon="6.43139">
        <ele>1194.09</ele>
        <time>2021-03-24T13:13:52Z</time>
      </trkpt>
      <trkpt lat="45.90227" lon="6.43125">
        <ele>1193.61</ele>
        <time>2021-03-24T13:13:54Z</time>
      </trkpt>
      <trkpt lat="45.90233" lon="6.43113">
        <ele>1189.29</ele>
        <time>2021-03-24T13:13:56Z</time>
      </trkpt>
      <trkpt lat="45.9024" lon="6.43097">
        <ele>1185.44</ele>
        <time>2021-03-24T13:13:58Z</time>
      </trkpt>
      <trkpt lat="45.90244" lon="6.43077">
        <ele>1181.6</ele>
        <time>2021-03-24T13:14:00Z</time>
      </trkpt>
      <trkpt lat="45.90246" lon="6.43068">
        <ele>1181.6</ele>
        <time>2021-03-24T13:14:01Z</time>
      </trkpt>
      <trkpt lat="45.90252" lon="6.43031">
        <ele>1172.47</ele>
        <time>2021-03-24T13:14:05Z</time>
      </trkpt>
      <trkpt lat="45.90252" lon="6.43024">
        <ele>1172.47</ele>
        <time>2021-03-24T13:14:06Z</time>
      </trkpt>
      <trkpt lat="45.90252" lon="6.43">
        <ele>1168.14</ele>
        <time>2021-03-24T13:14:09Z</time>
      </trkpt>
      <trkpt lat="45.90246" lon="6.42981">
        <ele>1167.18</ele>
        <time>2021-03-24T13:14:15Z</time>
      </trkpt>
      <trkpt lat="45.90245" lon="6.42967">
        <ele>1165.74</ele>
        <time>2021-03-24T13:14:17Z</time>
      </trkpt>
      <trkpt lat="45.90246" lon="6.4295">
        <ele>1163.81</ele>
        <time>2021-03-24T13:14:19Z</time>
      </trkpt>
      <trkpt lat="45.90253" lon="6.42932">
        <ele>1160.45</ele>
        <time>2021-03-24T13:14:21Z</time>
      </trkpt>
      <trkpt lat="45.90252" lon="6.42916">
        <ele>1158.53</ele>
        <time>2021-03-24T13:14:23Z</time>
      </trkpt>
      <trkpt lat="45.90255" lon="6.42901">
        <ele>1155.64</ele>
        <time>2021-03-24T13:14:25Z</time>
      </trkpt>
      <trkpt lat="45.90259" lon="6.42876">
        <ele>1151.32</ele>
        <time>2021-03-24T13:14:28Z</time>
      </trkpt>
      <trkpt lat="45.90259" lon="6.4287">
        <ele>1151.32</ele>
        <time>2021-03-24T13:14:29Z</time>
      </trkpt>
      <trkpt lat="45.90262" lon="6.42856">
        <ele>1148.43</ele>
        <time>2021-03-24T13:14:31Z</time>
      </trkpt>
      <trkpt lat="45.90264" lon="6.42835">
        <ele>1144.59</ele>
        <time>2021-03-24T13:14:34Z</time>
      </trkpt>
      <trkpt lat="45.90265" lon="6.42823">
        <ele>1144.11</ele>
        <time>2021-03-24T13:14:36Z</time>
      </trkpt>
      <trkpt lat="45.90266" lon="6.42802">
        <ele>1140.74</ele>
        <time>2021-03-24T13:14:39Z</time>
      </trkpt>
      <trkpt lat="45.90265" lon="6.42782">
        <ele>1136.9</ele>
        <time>2021-03-24T13:14:42Z</time>
      </trkpt>
      <trkpt lat="45.90261" lon="6.42759">
        <ele>1134.49</ele>
        <time>2021-03-24T13:14:46Z</time>
      </trkpt>
      <trkpt lat="45.90255" lon="6.42744">
        <ele>1132.57</ele>
        <time>2021-03-24T13:14:49Z</time>
      </trkpt>
      <trkpt lat="45.90251" lon="6.42732">
        <ele>1132.09</ele>
        <time>2021-03-24T13:14:52Z</time>
      </trkpt>
      <trkpt lat="45.90249" lon="6.42709">
        <ele>1126.32</ele>
        <time>2021-03-24T13:14:55Z</time>
      </trkpt>
      <trkpt lat="45.90243" lon="6.42696">
        <ele>1124.88</ele>
        <time>2021-03-24T13:14:57Z</time>
      </trkpt>
      <trkpt lat="45.90246" lon="6.42683">
        <ele>1121.52</ele>
        <time>2021-03-24T13:14:59Z</time>
      </trkpt>
      <trkpt lat="45.9025" lon="6.42682">
        <ele>1121.52</ele>
        <time>2021-03-24T13:15:00Z</time>
      </trkpt>
      <trkpt lat="45.90259" lon="6.42666">
        <ele>1118.15</ele>
        <time>2021-03-24T13:15:04Z</time>
      </trkpt>
      <trkpt lat="45.90262" lon="6.42656">
        <ele>1113.82</ele>
        <time>2021-03-24T13:15:06Z</time>
      </trkpt>
      <trkpt lat="45.90262" lon="6.42653">
        <ele>1113.82</ele>
        <time>2021-03-24T13:15:07Z</time>
      </trkpt>
      <trkpt lat="45.90266" lon="6.42644">
        <ele>1111.42</ele>
        <time>2021-03-24T13:15:12Z</time>
      </trkpt>
      <trkpt lat="45.90266" lon="6.42643">
        <ele>1111.9</ele>
        <time>2021-03-24T13:15:13Z</time>
      </trkpt>
      <trkpt lat="45.9027" lon="6.42636">
        <ele>1109.98</ele>
        <time>2021-03-24T13:15:21Z</time>
      </trkpt>
      <trkpt lat="45.9027" lon="6.42636">
        <ele>1109.98</ele>
        <time>2021-03-24T13:15:47Z</time>
      </trkpt>
      <trkpt lat="45.9027" lon="6.42636">
        <ele>1109.98</ele>
        <time>2021-03-24T13:15:58Z</time>
      </trkpt>
      <trkpt lat="45.90272" lon="6.42638">
        <ele>1109.5</ele>
        <time>2021-03-24T13:16:15Z</time>
      </trkpt>
      <trkpt lat="45.90274" lon="6.42638">
        <ele>1109.5</ele>
        <time>2021-03-24T13:16:38Z</time>
      </trkpt>
      <trkpt lat="45.90275" lon="6.42637">
        <ele>1109.5</ele>
        <time>2021-03-24T13:16:55Z</time>
      </trkpt>
      <trkpt lat="45.90275" lon="6.42637">
        <ele>1109.02</ele>
        <time>2021-03-24T13:17:09Z</time>
      </trkpt>
      <trkpt lat="45.90274" lon="6.42638">
        <ele>1109.02</ele>
        <time>2021-03-24T13:17:26Z</time>
      </trkpt>
      <trkpt lat="45.90275" lon="6.42639">
        <ele>1109.02</ele>
        <time>2021-03-24T13:17:37Z</time>
      </trkpt>
      <trkpt lat="45.9028" lon="6.42638">
        <ele>1109.02</ele>
        <time>2021-03-24T13:17:51Z</time>
      </trkpt>
      <trkpt lat="45.90281" lon="6.42638">
        <ele>1108.54</ele>
        <time>2021-03-24T13:17:54Z</time>
      </trkpt>
      <trkpt lat="45.90285" lon="6.42638">
        <ele>1108.06</ele>
        <time>2021-03-24T13:17:58Z</time>
      </trkpt>
      <trkpt lat="45.90301" lon="6.42639">
        <ele>1106.13</ele>
        <time>2021-03-24T13:18:14Z</time>
      </trkpt>
      <trkpt lat="45.90309" lon="6.4265">
        <ele>1104.69</ele>
        <time>2021-03-24T13:18:28Z</time>
      </trkpt>
      <trkpt lat="45.90312" lon="6.42651">
        <ele>1104.69</ele>
        <time>2021-03-24T13:18:34Z</time>
      </trkpt>
      <trkpt lat="45.90312" lon="6.42647">
        <ele>1104.21</ele>
        <time>2021-03-24T13:18:37Z</time>
      </trkpt>
      <trkpt lat="45.90303" lon="6.42634">
        <ele>1101.81</ele>
        <time>2021-03-24T13:18:51Z</time>
      </trkpt>
      <trkpt lat="45.90295" lon="6.42619">
        <ele>1099.89</ele>
        <time>2021-03-24T13:19:07Z</time>
      </trkpt>
      <trkpt lat="45.90295" lon="6.42617">
        <ele>1099.4</ele>
        <time>2021-03-24T13:19:09Z</time>
      </trkpt>
      <trkpt lat="45.90307" lon="6.42605">
        <ele>1098.92</ele>
        <time>2021-03-24T13:19:25Z</time>
      </trkpt>
      <trkpt lat="45.9031" lon="6.42607">
        <ele>1098.44</ele>
        <time>2021-03-24T13:19:39Z</time>
      </trkpt>
      <trkpt lat="45.90311" lon="6.42606">
        <ele>1098.44</ele>
        <time>2021-03-24T13:20:03Z</time>
      </trkpt>
      <trkpt lat="45.90312" lon="6.42607">
        <ele>1098.44</ele>
        <time>2021-03-24T13:20:17Z</time>
      </trkpt>
      <trkpt lat="45.90311" lon="6.42608">
        <ele>1098.44</ele>
        <time>2021-03-24T13:20:32Z</time>
      </trkpt>
      <trkpt lat="45.90311" lon="6.4261">
        <ele>1098.44</ele>
        <time>2021-03-24T13:20:45Z</time>
      </trkpt>
      <trkpt lat="45.90311" lon="6.42616">
        <ele>1097.96</ele>
        <time>2021-03-24T13:21:07Z</time>
      </trkpt>
      <trkpt lat="45.90308" lon="6.42617">
        <ele>1097.96</ele>
        <time>2021-03-24T13:21:32Z</time>
      </trkpt>
      <trkpt lat="45.90308" lon="6.42619">
        <ele>1097.96</ele>
        <time>2021-03-24T13:21:43Z</time>
      </trkpt>
      <trkpt lat="45.90308" lon="6.42615">
        <ele>1097.96</ele>
        <time>2021-03-24T13:21:47Z</time>
      </trkpt>
      <trkpt lat="45.90309" lon="6.42613">
        <ele>1097.96</ele>
        <time>2021-03-24T13:21:49Z</time>
      </trkpt>
      <trkpt lat="45.90309" lon="6.42631">
        <ele>1097.96</ele>
        <time>2021-03-24T13:22:02Z</time>
      </trkpt>
      <trkpt lat="45.90313" lon="6.42626">
        <ele>1097.96</ele>
        <time>2021-03-24T13:22:18Z</time>
      </trkpt>
      <trkpt lat="45.90311" lon="6.42622">
        <ele>1097.96</ele>
        <time>2021-03-24T13:22:28Z</time>
      </trkpt>
      <trkpt lat="45.90312" lon="6.4262">
        <ele>1097.96</ele>
        <time>2021-03-24T13:22:47Z</time>
      </trkpt>
      <trkpt lat="45.90308" lon="6.42616">
        <ele>1097.96</ele>
        <time>2021-03-24T13:22:59Z</time>
      </trkpt>
      <trkpt lat="45.90306" lon="6.42616">
        <ele>1097.96</ele>
        <time>2021-03-24T13:23:03Z</time>
      </trkpt>
      <trkpt lat="45.90312" lon="6.42618">
        <ele>1098.44</ele>
        <time>2021-03-24T13:23:16Z</time>
      </trkpt>
      <trkpt lat="45.90311" lon="6.4262">
        <ele>1098.44</ele>
        <time>2021-03-24T13:23:35Z</time>
      </trkpt>
      <trkpt lat="45.9031" lon="6.4261">
        <ele>1098.44</ele>
        <time>2021-03-24T13:23:56Z</time>
      </trkpt>
      <trkpt lat="45.90312" lon="6.42604">
        <ele>1098.44</ele>
        <time>2021-03-24T13:24:20Z</time>
      </trkpt>
      <trkpt lat="45.90308" lon="6.42605">
        <ele>1098.44</ele>
        <time>2021-03-24T13:24:40Z</time>
      </trkpt>
      <trkpt lat="45.9031" lon="6.42604">
        <ele>1098.44</ele>
        <time>2021-03-24T13:25:12Z</time>
      </trkpt>
      <trkpt lat="45.90308" lon="6.42604">
        <ele>1098.44</ele>
        <time>2021-03-24T13:25:51Z</time>
      </trkpt>
      <trkpt lat="45.90306" lon="6.42608">
        <ele>1098.44</ele>
        <time>2021-03-24T13:26:33Z</time>
      </trkpt>
    </trkseg>
  </trk>
</gpx>